GFSMW_prec_cthk_000.txt.gz
RH
30 27 23 21 20 20 19 20 20 21 22 25 27 29 31 31 31 33 34 37 38 38 39 39 39 40 42 41 38 39 39 36 37 42 38 37 36 36 37 40 43 41 42
27 24 23 21 21 20 20 19 19 19 21 23 26 30 32 35 36 38 40 42 41 41 41 41 42 43 43 43 43 44 44 43 43 46 51 49 44 39 39 40 41 39 41
26 25 23 23 23 21 20 19 20 22 24 26 28 32 35 38 42 44 44 44 44 44 44 44 44 44 45 46 48 50 51 52 51 52 58 60 57 53 47 46 49 50 49
27 26 26 24 24 22 23 24 25 27 29 30 32 35 38 39 40 40 40 42 42 42 42 42 44 44 46 48 50 53 54 57 57 59 56 57 61 62 56 47 51 55 54
27 26 25 24 24 25 27 28 30 30 29 28 28 28 30 31 32 31 30 32 35 38 40 41 43 45 46 45 50 54 56 56 54 56 58 57 56 59 63 61 56 62 60
27 25 25 26 27 29 32 34 32 30 30 28 28 28 29 30 30 29 30 31 32 33 33 34 37 41 43 43 44 50 53 57 66 66 69 71 72 69 72 74 75 73 70
28 29 31 33 35 36 37 37 34 32 30 28 28 29 30 32 34 36 37 39 40 41 42 43 44 45 46 48 50 51 53 56 60 67 76 80 83 86 87 87 83 88 83
33 34 36 38 38 37 35 34 34 32 33 34 35 36 38 40 41 40 39 38 38 37 36 36 37 38 39 41 45 49 52 55 57 58 59 65 69 74 82 85 89 89 86
37 39 38 37 36 33 34 36 37 38 39 40 41 41 39 38 37 36 36 37 37 36 36 35 35 36 36 37 38 39 40 43 47 51 55 60 63 64 65 67 75 80 77
41 41 39 37 36 38 40 42 44 46 45 39 36 35 35 36 37 38 38 38 38 38 38 38 38 39 40 40 40 40 40 41 41 44 50 55 59 61 63 65 69 77 83
40 39 38 38 41 46 49 50 48 43 40 36 36 36 38 39 40 40 40 40 40 40 40 40 40 41 42 43 44 46 46 47 49 51 54 54 56 57 59 61 62 62 67
39 39 41 48 52 52 47 43 41 40 36 37 38 39 40 40 41 42 42 42 41 40 38 37 38 41 41 44 47 48 52 55 55 56 57 57 58 55 55 56 57 58 59
40 44 50 52 46 43 42 41 40 40 40 41 42 43 44 43 42 40 39 37 35 34 33 34 34 34 38 41 44 50 54 52 52 53 54 54 55 55 54 55 57 57 57
48 49 47 43 42 42 43 43 43 43 44 46 46 46 45 42 38 35 31 28 26 23 22 22 23 24 27 27 30 35 40 43 45 47 50 51 50 50 47 51 54 56 60
47 45 44 44 44 45 44 42 44 47 49 50 48 44 40 36 31 28 26 24 22 22 23 22 24 24 25 29 34 36 39 43 44 43 42 41 43 44 52 51 48 55 62
43 43 44 45 46 45 46 50 51 53 52 49 43 39 36 34 30 27 25 23 23 23 24 24 24 26 28 30 28 29 36 41 42 41 41 40 41 43 42 42 47 51 59
44 45 47 48 47 50 51 50 50 51 48 44 41 38 32 29 28 26 27 27 26 26 28 30 29 27 26 24 25 31 39 40 39 37 36 34 36 42 42 39 40 44 52
48 50 50 49 50 53 55 56 53 49 44 43 40 34 32 31 30 30 29 29 30 30 29 26 25 22 20 19 25 28 27 30 29 31 29 28 31 34 39 40 43 44 51
49 47 49 54 59 63 62 57 52 47 45 44 40 35 33 33 34 33 33 32 32 30 27 24 21 19 19 22 22 21 18 16 17 18 15 21 27 29 41 52 54 53 53
50 57 60 62 66 66 60 53 48 47 45 40 37 36 38 37 35 35 36 34 30 26 25 23 23 23 23 23 24 25 25 24 25 26 27 29 30 31 32 44 55 65 68
59 62 65 68 65 59 54 52 49 42 39 38 39 42 42 42 42 42 38 32 30 28 28 27 26 25 26 25 27 28 34 35 40 41 38 30 26 27 29 38 63 74 74
56 59 62 59 61 55 53 48 44 42 43 42 44 45 44 45 42 35 33 33 31 30 29 29 28 27 26 27 30 37 40 45 44 44 36 31 30 29 36 44 63 73 80
61 63 64 64 62 52 47 45 42 42 43 43 44 41 35 32 34 35 33 31 31 30 30 31 31 30 28 27 33 39 45 46 48 44 39 32 32 34 35 40 64 75 86
60 62 63 59 54 49 46 41 37 39 39 31 30 32 35 37 36 33 30 28 28 32 36 40 42 41 38 39 41 49 47 45 45 42 36 31 32 30 33 43 73 81 89
58 57 55 49 43 39 36 34 31 28 29 32 35 37 36 32 28 27 28 29 32 41 46 44 45 45 43 43 52 52 50 51 50 42 36 28 25 25 34 53 76 81 88
56 53 42 37 33 30 26 26 29 32 36 38 36 30 28 28 29 29 27 27 31 35 41 45 48 47 51 53 52 52 53 53 50 43 39 31 27 30 44 68 75 79 93

GFSMW_prec_cthk_006.txt.gz
RH
28 24 20 24 29 30 28 23 23 23 24 25 26 28 31 35 38 40 43 45 48 49 51 52 50 49 47 45 44 45 45 44 46 48 44 44 43 44 44 44 42 43 44
22 23 26 29 31 30 26 26 25 25 25 25 26 28 31 33 35 38 41 42 43 43 41 39 37 37 36 37 39 42 45 46 47 51 51 47 46 44 47 49 49 51 50
24 28 29 31 32 30 28 27 27 26 25 25 27 30 33 36 38 38 37 36 35 35 35 35 35 37 38 38 39 41 43 47 47 50 54 54 52 54 49 52 49 53 54
31 30 32 33 32 31 31 30 28 27 27 28 29 33 35 35 36 36 36 36 36 36 38 38 37 35 33 32 32 33 34 35 36 40 47 52 55 59 53 54 56 56 59
33 34 33 33 34 33 32 30 28 28 29 30 32 34 36 38 38 37 37 37 36 34 30 29 29 30 30 31 31 31 31 31 31 32 35 38 41 47 56 48 48 50 53
34 34 35 35 33 34 32 31 30 31 34 35 37 39 39 38 38 37 36 32 30 31 31 32 33 34 34 34 33 33 34 34 34 34 35 36 38 40 45 50 48 49 46
34 35 34 34 34 33 33 32 35 38 39 40 40 40 40 39 36 32 30 30 31 32 32 33 33 33 33 32 32 32 32 32 33 34 36 40 43 45 47 51 50 52 46
36 36 35 36 35 35 36 39 42 42 43 44 43 41 37 32 30 30 31 33 33 33 33 33 32 31 29 27 25 24 24 25 28 31 35 38 40 43 47 54 60 56 52
37 36 36 38 39 40 42 44 44 44 45 45 42 36 33 34 34 34 35 37 36 33 30 27 25 23 21 20 18 18 18 20 24 30 33 34 36 41 49 57 62 70 69
38 39 41 43 44 44 44 44 44 47 48 44 38 35 36 37 39 40 38 34 29 26 24 21 20 19 19 19 18 18 17 18 24 24 22 23 25 31 38 39 44 49 61
42 44 46 45 42 43 46 48 50 49 44 38 38 39 41 39 36 33 29 26 24 22 21 21 21 20 20 19 18 18 18 18 20 22 24 27 33 39 42 42 45 42 46
46 44 41 42 44 49 53 51 46 41 41 40 41 42 39 37 34 29 26 25 24 24 23 21 21 21 21 21 20 20 20 22 24 27 32 36 37 39 40 41 43 45 55
41 41 44 48 52 52 48 46 44 43 43 43 43 42 39 36 33 32 28 27 26 25 23 23 23 23 22 22 24 26 27 30 33 39 39 36 34 33 33 32 31 38 47
43 48 51 51 49 49 49 46 45 45 45 45 44 42 37 37 36 30 29 28 27 24 24 24 23 22 24 27 29 31 33 35 38 40 37 33 31 30 29 29 30 36 41
49 48 46 46 47 48 48 46 47 48 47 47 44 42 39 35 31 31 30 27 25 24 23 22 22 24 26 25 25 25 27 29 31 32 30 29 27 28 30 35 32 35 35
40 41 44 46 48 48 48 48 48 48 48 47 46 42 40 34 32 29 27 25 24 22 21 21 20 19 22 23 22 25 25 25 26 25 25 24 25 28 32 33 35 39 43
39 41 44 47 47 47 46 47 49 50 53 52 48 42 34 32 30 27 24 23 20 17 16 18 18 18 17 16 16 22 24 25 24 24 23 24 28 35 38 37 41 42 41
41 42 45 46 45 45 48 51 53 56 53 48 42 38 34 31 27 24 19 15 15 18 17 17 17 16 16 17 20 25 25 25 25 27 30 36 40 38 44 47 48 48 39
41 43 46 46 46 48 51 55 58 53 46 40 40 36 32 27 19 15 16 19 19 17 16 17 17 17 16 18 24 29 31 31 31 31 34 44 43 43 50 57 51 44 36
41 43 46 47 49 52 54 53 53 47 42 41 36 29 23 17 16 19 22 20 18 18 18 18 18 19 20 20 27 36 37 35 34 35 42 41 46 49 52 53 54 50 37
43 46 48 49 51 54 55 54 46 43 42 32 26 21 18 18 22 24 22 20 20 20 20 19 18 19 23 26 30 36 38 41 45 47 40 39 48 50 50 52 51 49 45
45 47 50 53 56 56 53 46 43 39 31 25 21 19 21 24 27 24 22 23 23 22 21 18 18 22 25 28 31 37 40 47 50 47 42 52 59 53 49 47 51 47 38
47 49 53 56 55 52 47 43 38 30 25 22 21 23 25 28 26 24 25 25 24 23 22 24 25 25 27 30 32 37 43 49 50 48 57 64 57 50 43 48 47 35 31
50 53 58 58 54 50 45 37 29 26 24 23 25 27 29 27 26 27 27 25 25 27 27 28 31 31 33 35 37 44 47 48 50 53 64 60 54 44 47 47 39 30 33
53 55 54 53 52 48 36 30 28 26 25 26 27 30 28 27 27 27 28 27 29 31 31 32 36 38 37 40 49 51 52 53 57 56 56 53 51 46 46 46 34 30 36
53 53 52 55 46 35 32 29 28 28 28 28 31 30 29 28 28 28 26 28 29 29 28 30 38 41 44 48 52 55 57 58 55 49 51 58 55 50 49 43 34 34 54

GFSMW_prec_cthk_009.txt.gz
RH
32 32 32 28 22 19 24 31 31 30 27 27 29 31 32 33 35 37 39 40 42 44 43 41 39 37 36 36 36 36 37 37 37 38 36 36 36 36 38 40 41 41 41
33 32 27 21 24 28 31 32 30 29 27 28 29 29 31 33 36 38 40 40 38 37 38 37 37 36 36 36 34 31 28 28 29 36 35 38 34 36 40 39 38 39 42
29 25 23 26 31 34 33 32 31 30 30 29 29 30 31 32 34 36 37 38 39 39 38 37 35 31 28 27 27 28 28 28 29 30 34 38 38 33 31 32 34 36 40
26 26 27 31 34 37 37 34 32 32 30 29 28 28 30 34 38 40 40 40 38 36 32 28 28 29 30 30 31 31 31 32 32 31 34 33 35 37 31 32 32 32 37
29 31 33 36 38 38 37 36 34 31 29 28 31 35 37 40 41 40 38 35 31 29 30 31 32 32 31 31 30 29 29 28 28 29 30 31 33 37 39 32 35 36 38
32 34 35 38 38 39 38 36 34 33 31 33 36 39 41 41 40 37 32 31 30 31 32 32 31 28 25 23 22 21 20 20 20 21 24 30 34 39 43 43 35 36 34
34 35 37 38 39 38 38 36 36 36 36 38 40 42 42 40 36 32 31 31 32 32 29 26 23 21 20 19 18 18 17 17 16 17 20 24 27 29 33 36 36 37 35
35 36 38 40 40 39 39 39 40 40 40 42 44 45 42 38 35 33 33 32 29 26 22 21 21 20 18 18 17 17 17 17 18 19 20 21 20 22 28 32 40 45 40
36 38 40 40 42 43 43 43 43 42 44 46 46 43 38 36 35 34 32 31 28 27 23 20 20 19 19 19 20 20 19 19 19 19 19 20 21 27 33 38 53 57 57
38 40 43 45 47 47 46 45 46 48 48 45 41 38 38 37 36 36 34 32 29 26 21 21 21 21 21 20 19 19 20 19 20 21 22 25 30 33 36 39 44 52 60
41 45 47 49 50 47 47 51 52 50 45 42 41 41 38 39 38 34 31 28 25 23 22 22 22 22 21 20 19 19 19 18 18 19 22 26 28 27 27 33 39 40 42
48 50 50 50 48 50 54 53 50 46 44 44 43 41 42 42 39 35 32 28 25 24 23 22 21 20 19 18 17 15 13 13 14 17 20 21 20 21 24 28 34 38 46
47 46 46 48 54 54 51 49 49 47 46 46 44 44 44 42 39 36 32 26 25 24 22 20 19 17 16 14 12 12 12 12 14 16 19 18 19 19 21 23 27 35 39
46 45 50 54 51 50 49 48 47 48 48 46 47 47 47 42 39 34 26 26 25 23 20 17 15 14 14 13 12 12 13 15 16 18 19 20 21 21 24 30 33 40 42
44 50 52 48 48 48 48 47 48 49 48 48 49 49 45 41 36 29 27 26 23 19 15 15 16 15 13 13 13 15 16 18 17 20 20 21 23 26 34 41 41 42 41
47 55 52 48 50 47 47 48 49 50 51 50 51 44 41 36 30 28 27 22 17 16 17 17 15 14 14 14 15 18 22 22 22 21 21 24 27 32 37 41 43 45 54
58 55 50 45 45 46 49 51 51 52 53 50 44 42 36 33 29 26 20 17 18 19 18 16 15 15 15 16 17 24 23 23 24 27 29 28 34 38 42 39 46 53 47
53 43 41 43 47 49 51 52 54 54 53 48 43 38 35 30 25 20 18 20 21 20 17 17 18 16 17 18 21 24 24 25 28 32 32 36 38 44 45 50 56 46 37
39 38 41 46 48 50 52 54 56 54 50 44 41 36 30 24 20 20 23 23 21 18 18 19 18 17 19 21 24 27 29 27 31 33 38 44 43 45 52 60 52 43 38
35 38 43 46 49 51 53 55 55 52 47 42 38 30 24 22 22 25 25 22 20 19 19 19 19 22 22 21 25 33 32 33 35 39 41 43 45 50 62 64 59 48 39
37 42 45 48 51 54 56 56 54 49 44 41 30 25 24 24 26 27 24 21 21 20 20 20 21 24 25 26 29 33 37 42 43 43 43 42 46 59 61 61 55 50 53
42 46 47 50 54 57 57 54 49 46 41 31 27 25 26 28 29 26 23 22 21 22 23 22 24 27 29 29 32 35 38 46 50 49 47 49 55 52 52 53 54 51 51
46 48 49 52 56 58 54 47 48 42 32 29 27 27 29 31 28 24 23 22 24 25 25 28 31 31 29 30 32 36 43 49 50 50 53 51 45 47 50 53 52 50 43
46 48 50 54 56 51 49 50 41 33 30 28 28 31 32 29 25 24 25 25 26 29 32 35 39 38 34 34 35 44 48 53 53 53 51 47 47 51 55 50 49 46 39
47 50 53 53 51 53 50 38 34 32 29 30 32 33 31 27 25 25 27 27 32 36 38 40 43 42 40 40 46 51 52 56 57 55 51 49 52 53 51 49 47 39 44
49 51 53 54 56 50 38 35 32 31 31 32 35 33 29 26 27 28 27 32 34 39 40 41 45 44 44 44 47 52 57 59 57 56 56 54 58 58 53 47 40 53 66

GFSMW_prec_cthk_015.txt.gz
RH
30 32 32 34 33 33 33 32 32 34 36 34 39 45 44 41 42 43 43 41 38 35 34 34 35 37 37 37 33 29 27 24 26 24 24 20 22 23 25 27 31 30 25
31 33 35 35 33 32 32 32 33 34 32 35 39 41 40 40 38 35 32 31 32 35 37 40 40 38 33 28 25 23 21 22 20 21 19 20 18 20 18 17 18 19 24
32 31 32 33 34 33 30 29 28 27 35 44 40 38 36 36 34 31 32 35 39 42 42 38 33 28 25 23 20 18 18 19 18 19 21 22 22 20 20 18 22 23 20
32 33 32 33 33 30 28 26 26 29 35 37 38 38 35 33 32 34 36 40 42 40 36 31 28 27 23 20 19 17 17 18 20 19 19 20 21 25 24 22 19 19 19
31 35 34 35 33 30 27 30 31 34 36 37 34 34 33 34 35 38 43 42 39 34 31 29 26 23 21 20 18 18 18 18 20 20 19 19 21 22 21 20 19 16 14
33 36 35 36 34 32 32 34 36 37 37 36 35 35 35 38 41 43 41 36 30 27 26 25 23 20 19 19 19 19 18 18 21 20 20 20 20 18 18 15 14 16 16
35 36 35 35 37 35 35 37 38 39 38 38 37 37 40 43 44 40 35 31 29 29 29 26 23 21 21 21 20 20 19 20 20 18 18 15 15 17 16 16 16 18 18
34 34 35 36 38 38 38 39 40 40 41 40 38 41 46 47 42 38 36 33 33 32 30 28 24 23 22 22 21 20 20 18 17 17 16 14 14 14 16 17 22 22 21
36 37 37 37 39 40 40 41 42 42 42 40 44 48 46 43 42 40 38 36 35 33 31 27 25 23 23 22 20 18 18 18 17 15 14 14 14 15 17 18 25 28 24
38 39 39 38 39 42 43 44 45 43 42 46 50 45 44 43 43 42 39 37 36 33 29 26 25 24 23 20 19 20 19 17 16 15 15 15 17 19 21 22 26 28 31
40 43 43 42 44 46 46 47 46 44 50 52 46 45 45 45 45 44 40 38 32 28 28 27 26 23 20 21 22 21 19 17 16 16 17 20 21 23 23 25 26 31 36
42 44 46 46 47 49 49 45 47 54 53 48 46 45 47 48 46 42 40 36 30 29 28 26 24 22 23 24 23 20 18 17 16 17 20 23 24 26 28 29 31 36 35
44 46 47 46 47 48 48 50 54 56 50 48 47 50 51 49 46 44 39 32 30 29 27 25 24 26 26 25 22 19 17 17 17 19 24 25 29 30 31 34 36 36 39
47 46 46 49 52 53 52 52 59 55 52 52 53 52 52 51 48 43 37 32 30 28 27 26 28 28 28 25 20 18 17 17 19 21 27 31 32 35 36 37 41 44 43
45 46 48 53 56 56 53 56 62 57 55 54 53 54 54 51 47 41 33 30 29 28 28 30 31 29 26 20 17 17 19 21 22 26 32 33 36 39 43 45 46 47 47
45 49 54 58 58 56 53 63 61 55 54 53 55 56 55 50 43 36 32 31 30 30 32 33 30 26 21 18 19 21 23 24 27 32 33 35 37 41 43 44 45 53 58
47 53 57 59 57 57 60 61 55 52 52 56 57 56 52 46 38 34 33 32 31 34 34 31 26 22 19 20 21 24 26 28 34 34 37 39 39 43 42 44 47 54 59
53 56 57 59 60 61 61 54 51 51 55 57 56 53 49 41 36 34 33 33 35 35 31 27 23 21 21 22 24 26 29 34 36 38 46 45 43 44 48 51 51 60 56
55 57 59 61 64 64 55 52 49 54 56 55 52 49 44 39 35 35 33 34 35 31 27 24 22 22 23 25 28 31 37 37 39 44 47 50 50 47 52 60 59 52 50
56 59 63 65 66 52 48 46 52 55 54 52 49 45 41 37 36 32 33 35 33 27 24 23 23 24 25 29 34 40 41 41 42 44 48 49 49 50 60 62 59 57 55
61 64 64 58 47 42 43 49 53 54 51 48 48 45 39 35 30 33 35 31 26 24 24 24 25 27 30 35 40 42 47 52 51 50 47 46 48 58 59 60 61 60 61
62 54 46 40 39 44 49 51 51 48 47 50 47 38 32 29 32 34 31 26 26 26 26 26 27 30 35 38 40 44 52 53 54 51 48 46 52 56 57 62 60 60 59
45 41 37 41 45 48 49 48 47 48 52 47 36 29 29 33 35 33 29 28 29 28 28 28 29 32 35 36 43 45 46 50 52 50 49 51 54 54 58 57 60 58 58
36 39 43 45 45 46 48 49 51 52 42 33 28 30 33 37 36 33 32 31 31 30 30 32 34 36 38 41 42 43 47 50 48 48 52 51 55 58 58 56 54 59 73
44 45 42 42 44 48 52 52 52 37 30 28 30 34 38 38 36 34 33 32 32 34 36 37 38 40 42 43 46 51 50 49 50 53 55 55 57 58 55 52 58 71 86
42 42 42 45 50 53 50 47 34 29 29 30 35 39 40 40 37 34 32 33 34 35 36 39 45 45 47 48 50 49 47 52 56 59 59 59 62 58 53 59 75 95 98

GFSMW_prec_cthk_018.txt.gz
RH
31 28 28 28 33 36 37 37 36 36 36 38 38 40 40 42 48 47 43 41 37 31 28 31 34 37 38 35 30 26 22 20 17 15 14 14 15 15 16 20 16 15 16
33 30 31 31 35 38 39 38 38 37 38 37 37 39 41 44 44 40 37 34 31 32 34 35 37 37 34 29 25 22 19 17 16 18 16 17 16 18 14 15 14 18 19
36 29 31 33 36 37 38 38 37 36 37 35 33 32 41 40 37 35 35 34 34 35 35 37 37 32 26 22 20 18 17 16 16 17 19 21 19 18 17 15 15 16 12
35 30 33 32 33 33 33 34 34 34 31 29 31 34 35 36 36 36 36 36 37 37 36 33 27 23 22 20 18 17 18 18 18 18 18 18 19 20 19 18 13 13 11
38 32 32 33 32 33 34 34 34 31 32 35 37 35 35 36 37 38 38 38 37 35 29 26 24 24 23 20 19 20 19 19 19 20 19 16 17 17 16 16 16 14 13
41 33 31 34 34 36 36 35 35 34 35 36 36 37 37 38 39 40 41 39 36 31 28 28 28 26 23 21 21 21 21 21 20 18 17 18 20 17 17 18 15 15 15
42 36 32 34 36 37 36 36 38 37 37 37 38 39 40 40 42 42 42 39 36 33 32 31 28 25 23 23 23 23 22 19 18 19 19 18 17 16 18 19 17 18 17
39 36 33 35 36 36 37 39 39 38 39 39 40 42 40 43 41 43 39 39 38 36 33 29 25 24 24 24 24 21 19 20 21 20 18 18 17 18 19 19 22 21 19
38 37 35 34 35 37 39 40 40 40 41 42 44 41 44 43 44 41 41 41 40 37 32 26 25 26 26 24 22 21 22 22 21 20 19 18 17 17 19 20 22 27 26
39 39 39 40 39 40 41 41 42 43 44 44 43 44 48 46 42 42 43 43 41 35 28 26 27 26 25 23 22 23 22 22 21 21 18 17 17 18 18 22 25 28 33
41 40 43 43 41 43 44 45 47 46 46 43 46 52 48 46 43 45 46 45 39 32 27 27 27 26 24 24 25 24 23 23 22 19 17 17 16 18 22 25 29 32 37
41 41 44 45 45 46 48 49 48 46 44 46 55 53 50 46 48 50 47 43 38 31 28 28 27 26 26 27 26 25 24 23 20 17 15 17 19 21 26 31 32 36 39
43 42 45 47 46 48 49 49 48 48 49 54 59 53 50 52 51 49 47 42 35 30 29 28 27 28 29 28 26 25 23 20 18 17 18 19 23 28 32 34 37 40 44
45 45 47 48 48 48 49 52 53 54 53 59 63 56 53 53 52 50 47 40 32 30 30 29 29 31 29 26 23 22 21 19 19 19 20 25 31 34 36 41 45 49 52
47 46 49 50 48 49 52 56 57 59 55 65 61 53 53 54 53 50 44 35 31 31 30 31 32 28 25 23 21 20 21 21 22 21 25 30 35 39 46 49 50 52 52
47 46 49 49 48 51 57 59 59 56 62 62 55 55 55 55 53 48 38 32 32 31 32 32 27 23 20 19 20 24 24 24 24 25 29 35 39 41 47 49 50 56 60
45 44 47 50 52 58 60 58 58 62 65 56 58 54 56 54 49 40 34 33 33 34 31 26 21 19 19 20 22 24 26 27 28 32 35 38 41 44 45 44 51 57 57
39 42 49 54 60 62 60 60 65 68 63 56 51 55 54 48 41 35 35 34 33 31 26 22 20 20 20 22 23 25 28 30 34 37 41 44 44 47 52 54 56 56 53
45 48 54 60 62 60 63 65 69 64 52 50 54 53 48 43 39 37 34 31 32 27 23 21 20 20 21 22 25 31 35 37 38 42 48 52 50 51 55 58 57 54 53
54 56 60 61 66 68 67 65 57 49 50 53 51 49 45 42 38 33 31 33 28 24 23 21 21 21 22 24 29 38 39 41 42 44 49 49 51 49 57 59 58 58 56
56 61 64 63 65 65 56 50 45 50 52 50 47 46 43 37 31 33 34 30 26 24 23 22 21 22 25 27 31 38 42 51 50 49 45 44 48 56 59 59 62 61 61
57 57 57 60 53 49 42 45 49 50 47 48 47 41 35 29 34 34 32 29 26 25 23 23 24 25 26 29 32 40 45 52 52 49 44 44 54 57 59 62 62 60 58
59 57 51 46 40 42 47 49 48 46 49 46 38 33 29 34 34 33 31 29 27 26 26 27 27 27 28 30 34 41 44 49 49 48 50 56 58 59 58 59 57 59 68
49 41 37 39 45 49 48 48 47 51 45 37 30 29 33 33 33 34 32 29 29 28 29 29 30 30 32 34 38 44 45 45 46 50 56 57 58 58 60 53 55 72 94
42 42 45 46 46 46 45 47 49 45 36 28 29 31 33 34 35 35 33 31 31 32 33 33 33 36 37 40 46 46 46 50 55 59 58 57 58 58 52 57 83 98 99
47 46 43 42 41 44 50 49 45 34 28 29 30 32 34 36 37 34 32 32 31 32 31 32 38 40 43 47 45 46 50 56 60 61 61 65 62 54 65 94 97 98 99

GFSMW_prec_cthk_021.txt.gz
RH
32 39 32 28 28 29 32 37 37 38 40 42 43 45 45 48 49 54 52 49 42 36 35 35 35 34 34 32 31 26 21 19 18 17 16 15 14 14 16 16 14 12 12
35 39 36 31 30 32 34 35 39 41 42 42 43 45 46 46 42 46 46 38 36 36 37 36 35 33 30 27 23 20 19 18 17 17 16 16 16 17 15 15 13 14 15
37 40 38 34 33 35 37 40 42 43 42 41 43 41 37 36 36 36 35 37 38 37 36 34 32 28 25 23 22 20 19 18 18 18 20 21 21 17 17 15 17 16 14
38 42 38 35 33 38 41 43 45 44 41 40 37 33 33 35 35 35 38 40 39 38 37 34 29 26 26 24 22 20 20 19 20 20 20 20 19 19 20 18 15 15 15
37 41 39 33 32 36 39 41 40 38 37 35 35 34 35 36 37 40 42 41 41 41 37 33 30 28 24 23 22 22 22 21 21 21 19 18 18 18 21 20 18 17 16
38 39 41 38 31 33 35 37 37 36 37 39 40 38 38 39 41 42 42 42 39 37 37 35 31 25 23 23 23 23 23 22 21 20 20 20 20 21 20 19 19 19 18
38 40 43 40 33 32 35 37 38 38 40 41 41 40 41 42 43 43 42 40 39 39 39 34 28 25 23 23 24 23 23 22 21 21 21 21 21 21 20 21 20 20 19
39 43 43 40 36 33 34 37 37 40 41 42 42 42 44 45 44 45 42 42 42 42 39 35 28 25 24 23 23 23 23 22 22 22 22 22 22 21 20 21 22 20 18
40 42 42 38 35 34 34 36 38 40 41 42 45 46 47 45 47 46 47 44 44 43 41 34 28 25 23 23 24 24 24 24 24 23 23 22 20 16 16 16 18 24 24
39 40 40 38 38 36 37 38 40 42 42 46 49 49 46 46 52 53 49 46 45 46 41 32 26 24 24 25 25 26 25 25 24 22 20 16 13 12 14 18 21 24 29
40 40 41 41 42 42 41 42 43 45 48 51 51 47 46 53 60 55 49 47 49 44 36 29 26 25 27 27 27 26 25 23 19 16 14 13 13 14 17 21 26 30 34
42 43 43 44 45 43 44 45 46 49 51 53 48 49 52 60 63 55 51 52 46 40 33 28 26 28 29 28 27 24 21 17 16 15 16 16 16 18 22 25 30 33 35
43 43 43 44 46 46 46 47 49 51 51 52 54 56 58 64 65 56 51 49 45 37 30 28 29 31 30 27 24 20 18 17 18 19 19 18 19 22 26 31 34 38 46
45 44 45 46 48 48 49 50 51 53 55 57 60 64 61 69 59 51 52 51 41 33 30 31 32 31 28 24 19 17 18 19 20 20 20 21 23 27 34 36 43 48 47
47 48 49 50 51 51 52 51 53 56 59 63 67 63 68 64 56 57 51 44 36 30 32 34 32 29 23 18 18 19 20 20 20 22 24 25 29 32 38 46 43 47 49
52 53 53 53 53 52 51 52 56 62 66 68 65 70 71 66 60 51 46 38 31 34 36 34 29 23 18 17 20 21 20 21 24 27 27 29 32 35 38 42 50 52 57
48 50 51 51 51 49 52 58 64 68 66 67 73 76 70 57 50 50 37 31 35 37 35 29 23 20 18 17 20 21 23 25 28 31 32 34 35 40 42 40 48 48 53
51 44 45 47 49 52 58 65 68 67 70 74 78 70 54 52 50 38 33 35 37 35 30 24 21 19 18 19 22 24 27 30 32 32 36 38 38 42 48 47 49 54 56
56 50 50 48 52 59 66 68 70 74 76 74 63 53 53 50 38 35 36 38 35 31 25 22 20 20 20 22 25 28 31 30 32 35 37 43 43 44 46 55 58 56 54
58 59 60 61 63 68 72 73 71 74 67 58 52 52 48 39 38 37 37 35 32 27 23 21 21 22 23 24 28 33 37 35 33 32 34 37 44 48 59 62 61 58 56
59 61 63 65 68 67 66 67 67 58 51 51 51 46 41 39 36 37 36 33 29 24 23 23 23 24 25 26 30 35 38 39 41 38 36 36 46 58 60 62 62 62 60
62 65 65 64 64 66 65 57 48 48 51 52 46 40 38 36 37 36 34 31 27 26 25 24 24 26 27 28 30 34 38 45 46 44 42 49 58 59 60 60 59 60 70
59 60 61 64 61 54 44 45 51 53 50 43 40 37 35 37 36 34 32 29 29 28 26 26 27 27 28 29 29 33 39 44 45 48 54 56 58 59 56 53 62 82 95
63 61 54 48 42 43 49 53 51 45 44 41 36 34 36 35 35 34 32 32 31 28 29 30 29 28 29 30 34 40 41 43 46 52 52 56 60 58 52 66 90 98 98
51 49 48 48 49 51 50 46 44 47 41 35 33 34 34 34 34 35 35 34 30 31 31 30 32 32 29 32 40 44 45 49 53 55 53 56 54 50 76 95 97 98 99
50 48 47 48 46 44 45 48 48 40 35 32 33 33 34 34 36 36 35 32 29 29 29 32 32 31 35 37 37 43 46 52 53 54 58 56 58 84 96 97 97 97 98

GFSMW_prec_cthk_024.txt.gz
RH
39 37 34 37 36 27 26 29 34 38 41 46 51 53 51 52 52 54 55 49 50 44 39 38 38 37 33 30 27 21 19 18 18 19 18 17 17 16 17 17 15 14 14
42 39 34 35 38 31 26 26 29 33 40 46 49 51 51 53 55 53 47 40 38 37 38 39 37 35 33 28 22 20 19 19 20 19 19 18 18 19 17 16 16 16 16
42 40 37 37 40 34 32 30 34 38 42 47 51 53 53 53 48 42 37 36 37 39 40 40 40 37 30 24 20 21 21 21 21 20 20 19 20 18 18 17 18 18 17
43 41 39 39 42 39 35 35 38 43 48 50 50 49 47 44 39 35 37 38 41 43 43 43 39 32 25 22 22 23 23 22 21 20 20 21 22 21 19 18 18 19 18
43 42 40 43 46 40 38 39 40 43 45 45 44 42 41 39 39 40 40 42 44 43 42 39 34 29 26 25 25 24 22 21 21 21 21 20 20 20 23 23 21 19 18
44 42 43 45 49 43 42 40 42 43 43 40 38 38 40 41 43 43 43 45 44 43 40 37 34 33 29 26 24 23 22 22 22 22 21 22 22 23 23 21 19 19 17
42 42 44 45 49 48 45 42 39 41 38 37 38 41 42 44 46 45 46 46 45 43 40 39 39 35 29 25 23 23 23 22 22 23 24 24 23 22 20 17 15 15 14
45 45 45 47 49 49 45 40 35 37 39 39 41 43 45 46 46 47 47 49 48 46 44 42 39 33 27 26 25 24 22 24 25 25 24 22 20 18 16 14 15 16 16
45 47 47 49 50 49 43 39 36 39 41 41 42 44 46 48 49 50 49 52 54 51 46 43 37 32 29 26 25 24 25 27 26 24 22 20 17 15 13 13 15 20 20
49 49 50 50 51 46 41 39 39 39 40 42 45 47 50 53 53 50 49 58 61 52 47 42 38 32 28 28 25 27 29 27 25 22 19 16 15 14 13 15 17 20 24
49 49 48 49 47 44 41 40 42 43 45 48 49 53 56 56 52 52 57 65 65 54 47 42 35 31 30 26 28 30 28 25 23 19 17 17 17 16 16 16 19 22 28
49 47 46 45 44 43 43 46 46 46 49 51 53 56 58 54 58 62 64 68 62 51 43 38 34 31 28 30 31 29 25 22 18 18 18 18 18 18 18 20 24 28 31
50 48 48 48 46 46 45 45 47 48 51 54 56 58 59 63 66 70 67 67 54 46 42 36 31 31 30 32 29 25 20 18 18 19 20 20 21 21 22 26 29 34 37
48 49 49 47 46 47 47 48 49 52 55 57 58 61 64 67 72 69 69 63 53 48 33 33 33 32 34 30 24 19 18 17 19 21 22 23 25 26 29 34 36 43 42
51 50 49 48 49 51 52 53 55 57 58 59 61 65 70 73 70 72 72 62 48 34 36 33 35 35 30 24 19 17 19 20 21 22 24 27 29 31 36 42 45 45 45
53 54 54 54 56 57 57 57 57 58 58 60 66 71 73 72 76 78 69 48 37 36 34 37 36 31 25 19 16 21 22 22 23 24 27 28 29 32 35 37 43 45 53
54 55 57 58 59 59 60 59 57 56 61 66 72 75 76 81 79 68 50 40 35 36 40 37 32 25 20 18 17 23 24 24 25 27 28 29 32 34 33 35 44 44 54
59 54 53 54 55 57 58 57 58 62 68 73 76 80 82 79 64 50 39 34 38 41 39 33 27 22 19 19 20 22 24 24 25 27 30 34 33 34 41 46 50 55 53
60 61 61 54 54 56 58 59 64 72 76 78 80 80 76 61 47 38 37 39 42 39 34 28 24 22 21 22 22 27 26 26 26 29 34 38 36 37 48 58 56 53 50
62 64 64 65 67 68 69 71 75 77 74 75 77 66 54 46 40 36 39 43 39 34 29 26 24 23 23 23 25 29 33 32 30 31 33 35 41 49 56 58 59 54 49
65 68 67 67 68 70 72 74 73 71 75 68 54 51 48 39 34 40 43 39 35 30 27 25 24 23 24 25 28 33 37 36 36 34 32 36 46 55 57 60 55 54 71
62 64 66 69 71 71 70 70 72 66 55 50 52 46 36 34 41 42 39 35 32 29 27 24 23 24 24 26 26 36 37 45 41 40 39 44 51 55 56 50 56 85 94
68 69 68 68 68 70 69 62 52 49 53 51 43 34 35 41 41 38 36 34 32 29 26 24 25 25 25 25 28 35 35 37 44 41 46 48 51 52 44 64 90 93 93
67 67 68 68 61 54 51 51 54 54 49 40 36 37 40 39 37 36 35 33 31 27 25 26 27 26 26 27 33 34 33 39 42 43 46 48 50 47 71 88 90 93 96
62 58 55 52 49 47 50 53 49 43 41 37 37 38 37 35 36 35 35 34 30 27 29 29 29 28 27 29 34 34 39 44 44 46 46 47 49 69 89 91 93 95 96
50 49 48 46 47 50 49 45 45 42 39 37 37 35 33 35 36 36 36 33 28 27 26 25 28 27 28 27 31 36 42 44 45 45 48 53 72 89 92 94 95 94 86

GFSMW_prec_cthk_027.txt.gz
RH
40 44 41 38 36 36 40 34 32 38 47 56 60 58 59 65 63 61 60 59 56 48 35 37 39 37 37 37 33 27 21 19 18 18 18 19 20 19 19 20 18 16 16
37 44 43 39 38 36 41 37 32 35 40 46 51 55 58 58 59 60 59 58 47 34 35 37 38 41 40 35 27 21 19 19 19 20 21 20 19 19 19 18 18 19 19
37 42 43 41 39 37 40 39 35 31 32 40 48 54 55 58 58 56 59 48 36 36 40 41 44 43 36 29 23 20 19 21 24 23 22 20 20 19 20 20 20 20 20
34 38 42 41 41 42 43 40 37 35 36 41 46 49 52 57 57 56 48 39 40 42 44 46 43 38 33 28 23 21 23 25 23 22 20 21 23 24 22 21 21 21 21
33 37 43 44 44 45 46 45 41 40 42 46 50 52 54 56 54 46 40 42 45 46 47 45 41 37 34 29 25 25 26 24 22 22 23 24 24 23 25 25 23 21 18
30 37 44 46 46 46 50 50 47 47 48 49 50 49 48 46 43 41 43 46 47 49 48 46 45 39 34 30 29 27 25 24 25 26 25 25 25 26 27 26 22 19 14
32 36 44 48 48 48 54 55 52 48 47 46 45 45 43 42 42 44 47 48 49 50 50 51 47 40 36 33 30 27 27 28 27 25 26 26 27 28 26 22 17 17 14
33 37 45 50 50 50 56 59 57 50 46 43 41 42 42 43 47 48 49 51 51 50 52 53 49 42 38 34 31 31 30 28 27 28 27 28 28 25 21 19 17 17 17
36 40 48 51 50 53 58 62 60 55 49 40 41 42 44 47 49 51 52 53 53 52 50 54 53 45 39 35 32 31 29 29 28 28 29 28 23 20 18 17 16 19 21
41 44 51 51 52 56 60 64 63 53 45 43 43 43 47 50 52 55 57 57 54 53 55 57 55 45 36 32 33 32 30 28 30 30 27 22 19 18 17 17 18 19 22
49 50 54 54 55 59 60 63 56 48 46 46 45 47 51 54 57 60 61 57 58 61 61 59 51 37 35 38 34 30 30 31 31 26 22 19 18 18 19 19 20 22 26
56 54 55 56 59 59 61 58 51 47 48 50 50 52 55 58 61 63 62 63 64 67 62 59 45 41 41 33 31 32 33 31 25 21 20 19 19 21 21 22 24 26 27
58 56 56 58 59 57 54 51 50 50 52 52 53 55 57 62 65 65 66 68 70 66 63 58 46 39 34 34 33 35 32 25 21 20 20 21 22 23 24 26 27 30 33
62 59 57 56 53 52 52 50 51 52 53 53 55 59 63 65 66 68 72 73 70 69 65 51 39 37 34 35 36 32 26 22 21 21 23 23 24 26 27 31 33 35 35
61 58 58 56 55 54 52 51 51 53 56 58 60 63 65 66 69 73 77 74 76 70 54 40 38 35 37 37 32 26 23 22 22 23 23 23 24 26 30 34 33 33 40
57 58 57 55 54 53 53 55 56 58 60 62 64 63 64 69 75 80 79 81 73 54 40 37 37 39 39 33 25 22 22 22 22 22 21 22 23 26 30 30 34 44 47
57 58 60 61 59 58 59 60 62 63 63 63 61 64 70 77 82 82 82 74 53 39 39 39 38 40 33 26 21 21 25 23 23 23 23 24 27 29 29 30 39 46 52
60 61 63 64 64 63 65 66 66 65 63 61 65 72 79 84 83 81 73 48 40 42 38 40 41 33 26 22 21 22 23 23 24 25 27 30 29 32 37 43 46 45 48
68 66 65 62 64 64 64 64 64 62 64 68 76 82 84 82 79 65 43 42 42 38 43 40 33 27 23 22 21 23 24 24 25 26 32 33 35 37 46 48 48 49 42
65 64 65 68 69 65 66 68 69 68 72 79 82 81 80 76 53 43 42 39 40 44 39 33 28 25 23 22 21 25 26 26 27 30 30 34 39 41 49 52 51 45 56
63 65 68 72 74 74 74 73 76 80 80 78 79 77 59 49 44 40 37 42 43 39 34 29 27 25 23 22 21 26 28 30 32 30 31 34 39 43 47 51 48 73 86
65 69 72 73 70 72 77 78 75 74 75 74 59 53 51 42 36 39 43 42 38 34 31 28 26 23 22 21 22 27 33 34 32 33 34 37 42 45 46 48 77 89 89
63 66 70 74 75 74 73 75 76 66 57 55 56 49 36 36 40 42 41 38 35 33 30 27 24 22 21 22 23 27 33 32 34 37 40 40 41 42 46 75 87 88 89
71 73 73 73 74 75 68 60 57 55 55 52 41 37 39 39 40 39 37 36 35 32 28 25 23 22 22 22 26 34 32 34 37 40 38 39 42 50 74 84 87 90 91
71 71 69 62 57 55 53 52 53 52 46 41 40 38 38 38 36 37 37 37 34 29 26 24 24 24 25 27 34 33 34 37 40 41 37 40 49 72 84 88 90 90 82
57 54 53 51 49 47 50 51 49 45 44 39 37 36 35 35 37 39 39 35 29 26 24 23 23 24 25 26 26 33 36 40 38 37 39 51 72 83 88 90 89 78 76

GFSMW_prec_cthk_030.txt.gz
RH
32 34 36 38 43 39 37 35 39 41 33 39 50 62 71 73 70 70 68 69 64 63 57 41 34 33 36 40 38 33 26 21 18 18 19 18 19 20 20 20 20 19 18
32 30 34 37 43 42 38 37 41 44 38 39 48 57 67 71 68 68 65 66 65 61 45 38 35 38 42 40 35 30 24 20 20 20 19 20 21 22 21 19 19 20 22
31 33 38 38 41 44 41 38 39 43 42 42 47 54 60 61 64 65 65 64 62 51 40 41 41 44 42 39 34 29 24 22 21 20 21 22 22 21 20 21 22 22 22
28 31 38 39 42 46 44 41 40 41 44 44 44 48 53 57 61 62 61 61 54 42 43 43 46 46 44 39 34 30 25 22 22 23 24 24 24 24 23 23 23 24 24
25 28 33 38 42 45 45 45 45 41 43 44 46 49 53 58 59 61 60 54 46 44 45 47 48 49 47 43 39 31 26 24 25 26 26 26 26 25 26 25 26 25 24
25 27 32 37 41 46 47 48 49 45 44 44 49 52 56 59 59 60 56 47 44 47 49 50 50 49 48 47 40 32 29 29 29 28 28 28 27 28 29 28 27 25 20
26 28 32 34 41 48 49 50 53 49 48 52 55 58 60 61 58 55 48 46 48 51 52 52 51 49 49 48 44 36 33 33 31 29 29 29 30 30 30 29 25 21 18
29 30 29 32 39 49 51 52 57 56 54 58 57 58 56 54 51 46 46 49 52 53 55 55 54 52 51 50 46 38 33 30 32 33 31 30 30 31 29 26 23 21 19
32 35 32 33 40 53 55 54 60 62 61 62 58 53 49 46 44 46 49 52 53 56 58 59 55 56 57 53 44 35 31 37 35 32 30 30 31 29 25 23 22 23 22
36 39 36 40 47 58 60 59 64 65 66 63 57 51 46 44 45 48 51 54 58 62 63 59 59 61 59 50 44 39 39 35 32 31 32 32 29 25 23 23 23 24 24
35 42 44 45 51 64 63 62 67 68 70 64 54 50 48 48 49 53 57 60 63 65 63 63 63 64 56 48 46 40 36 34 32 33 32 27 24 22 22 23 25 25 27
44 40 47 51 60 65 65 66 69 71 71 62 54 51 49 52 55 58 62 63 66 67 66 67 68 62 56 51 42 37 34 32 33 32 27 23 22 21 22 24 25 26 26
53 55 55 57 67 68 67 69 70 72 68 59 53 52 54 57 60 62 64 68 68 69 70 72 68 64 55 43 38 34 35 35 32 26 23 21 21 22 23 24 26 27 29
65 65 64 64 67 68 68 70 70 68 61 55 54 56 59 60 63 66 68 69 70 72 76 74 68 59 45 37 37 37 35 31 25 21 20 20 22 22 24 25 29 32 31
70 67 69 67 66 65 65 65 62 57 56 56 57 59 61 64 67 68 68 71 75 79 79 70 60 43 38 40 37 36 31 25 21 20 21 21 21 22 26 30 32 33 34
76 74 71 65 62 60 59 58 58 58 57 58 60 62 65 67 68 68 70 77 82 81 71 61 41 41 41 38 37 31 26 22 22 23 22 22 22 23 25 27 33 38 46
75 74 69 64 63 61 59 58 57 58 59 62 64 67 68 68 69 72 79 83 81 72 58 40 42 41 40 37 30 25 21 23 24 23 22 22 24 23 24 26 33 44 47
69 69 67 64 62 60 60 60 62 63 65 68 68 68 69 71 76 82 84 80 73 51 41 42 40 41 37 30 24 22 23 25 24 23 23 24 24 27 33 35 43 39 41
66 66 68 68 68 67 66 67 68 69 70 69 67 69 74 80 84 84 78 69 44 44 40 41 42 37 30 25 22 23 26 25 23 23 25 27 31 33 38 45 41 41 38
72 72 72 72 71 68 70 70 68 69 70 72 74 78 83 84 81 77 53 46 42 38 43 42 37 30 26 23 24 25 27 25 24 26 27 29 35 37 40 42 44 44 66
75 74 73 71 73 76 76 74 76 76 75 79 84 81 79 78 62 51 45 37 40 43 41 36 32 27 25 24 22 23 26 26 31 28 27 30 35 40 40 45 46 72 81
70 70 72 75 79 83 82 78 78 81 81 78 78 76 63 57 48 38 38 42 42 39 36 33 29 26 25 23 21 23 26 28 31 31 31 35 39 37 40 45 73 83 84
71 72 74 75 75 77 81 80 78 79 78 69 61 59 52 40 37 41 40 39 38 37 34 30 27 25 22 20 19 22 24 28 32 33 37 36 35 36 41 70 82 84 84
71 74 76 77 78 78 80 79 72 62 59 57 55 45 39 40 39 38 38 38 39 36 30 27 25 22 20 20 22 25 27 30 32 35 33 33 34 43 70 81 83 86 84
77 78 78 77 75 69 62 57 55 54 54 50 43 41 40 37 36 37 39 41 38 31 28 25 22 22 21 22 28 33 32 34 37 37 32 32 41 69 82 87 85 81 74
76 73 66 58 54 53 53 52 52 51 45 44 41 38 36 36 38 42 43 38 31 27 24 22 21 20 19 22 25 30 34 36 35 34 33 39 68 79 84 79 78 76 75

GFSMW_prec_cthk_033.txt.gz
RH
30 31 33 35 38 39 40 45 43 38 36 42 48 45 46 57 70 76 78 76 82 73 67 64 50 41 40 40 38 37 34 30 26 22 19 18 19 18 18 20 21 20 20
28 29 30 32 34 37 37 43 44 41 40 40 43 42 46 58 72 78 79 78 78 80 67 61 45 43 44 43 41 40 37 32 26 21 20 20 20 21 22 23 22 22 21
24 25 28 31 31 35 36 42 46 44 42 43 45 49 51 62 73 80 78 80 75 70 64 52 46 46 47 46 46 46 42 33 26 23 22 21 22 21 23 24 23 23 24
23 22 24 29 32 32 35 40 46 46 44 46 49 49 51 56 63 69 71 71 67 62 57 48 48 48 49 50 49 48 43 35 29 25 23 23 24 24 25 25 25 25 25
22 21 23 26 31 35 37 42 45 48 45 46 51 54 58 60 67 66 67 69 60 57 52 49 50 51 52 51 50 46 42 38 32 27 26 27 27 26 25 26 28 29 28
22 23 24 28 31 38 41 45 46 49 49 48 50 54 60 60 63 64 64 64 56 54 49 50 51 53 54 53 51 48 46 39 32 28 28 26 27 30 30 31 30 30 26
25 23 28 31 32 37 41 46 48 52 54 52 54 55 62 60 66 66 60 59 58 49 49 52 55 56 57 56 54 52 48 40 34 32 30 31 32 31 30 30 30 28 25
27 28 27 31 34 36 39 47 51 56 58 56 56 59 61 69 68 66 62 55 50 50 53 55 57 59 61 60 56 53 48 40 37 36 35 34 31 31 30 29 28 25 23
28 28 28 34 35 38 40 50 54 57 60 61 59 62 68 71 70 61 54 49 49 52 55 58 61 65 65 60 58 53 46 40 39 37 36 33 30 30 28 27 25 27 24
31 28 32 36 36 40 43 52 58 59 65 69 66 70 72 69 61 55 48 48 51 56 60 64 67 68 65 62 58 51 47 45 39 37 33 31 31 28 26 25 25 23 23
35 30 34 38 35 37 42 53 62 65 69 71 72 73 69 63 57 53 52 53 57 62 66 69 71 69 66 62 57 53 50 42 36 33 33 31 29 25 24 23 21 21 22
38 35 34 39 41 42 49 60 71 74 73 75 74 72 66 59 58 55 55 59 63 66 69 72 72 68 65 63 59 54 44 36 35 34 32 28 25 23 21 20 19 19 21
49 42 44 50 51 52 60 69 78 78 78 79 75 69 63 62 59 56 60 64 66 69 73 74 70 68 70 64 56 45 36 36 35 32 28 25 22 21 22 21 21 23 26
55 46 51 49 56 61 67 76 78 82 82 78 75 67 66 64 59 62 66 67 70 73 73 71 72 74 67 59 47 38 38 35 32 28 25 23 23 23 22 25 29 32 31
57 62 63 62 64 68 75 79 81 83 82 78 73 70 66 60 63 67 69 72 74 72 72 75 77 69 62 46 39 39 36 33 27 23 22 23 24 22 26 30 32 32 33
74 74 72 74 74 78 81 83 82 82 79 76 71 63 61 65 68 72 74 73 72 73 78 80 71 63 43 42 39 37 32 27 24 23 24 23 22 22 25 27 32 34 36
82 74 76 78 78 81 84 82 79 76 70 65 63 64 67 70 74 74 72 73 76 80 81 71 59 43 43 39 39 31 26 24 23 24 23 22 23 23 24 24 32 34 39
79 76 77 77 75 74 73 69 68 66 63 62 65 70 73 74 73 74 76 79 83 82 67 51 44 41 41 38 31 26 24 24 25 22 22 23 22 24 29 32 33 34 35
81 79 77 74 73 72 70 67 65 64 65 69 72 73 73 74 76 79 84 85 76 61 45 43 40 43 37 31 26 25 25 24 22 22 22 23 26 28 33 35 35 37 38
76 76 77 77 77 75 73 72 70 69 70 71 71 74 78 79 83 86 81 70 49 45 38 43 43 36 31 27 26 25 25 24 24 24 24 24 27 32 36 38 38 40 47
78 81 82 81 81 78 75 74 75 73 74 77 78 79 84 84 81 73 54 46 38 39 44 40 36 32 29 27 25 21 26 25 28 26 24 25 28 36 38 39 40 51 78
81 81 81 81 81 80 81 81 81 80 79 81 83 81 80 73 57 49 40 37 42 41 39 37 33 30 28 24 20 19 24 27 29 28 26 28 35 33 34 36 50 80 82
78 78 79 80 81 82 82 81 81 81 80 81 78 66 58 53 43 38 40 41 38 40 38 34 30 27 23 20 18 19 22 23 28 29 29 30 31 29 32 49 79 82 81
79 78 77 79 79 81 83 83 82 80 71 61 57 54 46 39 39 40 37 39 41 39 34 30 26 22 20 17 18 22 22 24 30 31 29 29 29 32 50 79 81 77 76
81 82 82 83 83 82 79 71 64 59 56 52 49 42 40 39 37 37 41 43 40 34 29 26 23 20 18 19 24 26 29 32 33 33 28 29 31 54 77 79 77 78 79
83 84 83 78 69 64 61 58 54 50 50 44 41 41 37 36 39 43 44 40 32 28 25 22 19 17 16 20 24 25 32 33 31 30 29 34 55 69 74 78 81 82 82

GFSMW_prec_cthk_039.txt.gz
RH
29 27 27 28 30 31 34 37 37 37 42 46 52 59 60 58 62 64 60 64 61 61 65 65 72 81 75 59 52 50 49 47 47 45 41 37 33 30 29 27 24 23 22
24 27 28 27 26 27 32 36 37 37 37 41 48 57 60 58 59 62 65 71 80 75 70 74 79 82 75 60 54 52 50 50 48 45 43 40 36 36 31 30 26 24 24
20 22 24 27 27 26 27 32 37 38 37 39 44 54 55 56 54 55 58 65 73 78 76 83 85 82 77 60 55 54 52 50 50 48 46 42 40 37 34 32 30 28 28
22 22 22 24 26 26 28 28 35 37 38 39 41 42 43 51 53 55 58 66 74 74 75 80 86 81 72 58 54 54 53 53 51 50 50 45 41 39 35 33 31 31 30
25 24 24 24 25 27 29 32 34 37 38 37 40 40 43 47 52 55 60 65 72 80 82 82 81 75 59 50 51 54 54 54 54 54 51 47 43 40 37 35 33 32 31
27 28 27 26 27 26 30 33 35 37 37 38 37 39 44 44 50 58 62 68 75 81 86 83 75 68 57 52 54 55 56 57 58 57 53 48 43 41 38 34 33 32 32
28 27 28 30 28 27 28 35 36 39 36 35 39 42 46 45 52 60 63 69 81 84 79 82 76 61 54 52 55 57 59 59 58 57 54 50 45 43 39 36 34 32 30
21 27 32 32 34 31 29 32 35 41 38 38 42 46 46 49 54 63 71 73 80 78 76 73 68 58 54 57 59 59 60 60 60 60 56 49 46 43 39 36 34 32 30
30 26 29 36 37 36 34 35 35 40 42 45 48 48 49 53 58 67 75 74 77 77 78 68 63 59 57 57 61 63 63 64 63 60 54 49 46 42 38 36 33 33 30
39 34 31 37 38 40 39 39 40 41 47 50 52 52 56 59 65 71 73 80 77 80 75 74 65 59 63 64 64 65 67 66 62 58 53 49 46 41 36 33 32 30 30
43 39 35 42 43 42 44 46 46 45 52 52 53 58 62 67 69 74 81 74 86 80 78 71 66 67 68 66 67 69 68 65 62 55 53 50 44 37 34 31 30 30 28
47 47 43 53 51 52 51 52 51 50 56 54 58 64 68 70 75 75 75 85 80 88 76 70 68 72 69 69 72 71 69 65 57 57 53 46 38 33 32 32 30 29 28
51 51 49 62 59 60 59 56 54 54 58 59 63 69 72 76 77 80 84 88 83 80 70 69 74 76 71 74 74 72 67 60 61 57 48 39 33 33 32 30 30 30 30
54 53 56 69 61 60 61 58 56 60 61 64 68 73 77 79 85 84 85 85 79 72 72 75 78 74 76 77 75 67 64 65 58 48 39 34 34 32 32 31 30 29 28
59 57 63 72 61 60 59 57 57 65 69 71 76 80 82 82 83 86 82 77 74 76 78 80 77 79 80 78 68 68 65 56 44 36 35 34 33 31 32 30 28 30 31
57 63 72 72 58 57 57 57 63 71 77 80 80 81 85 85 86 81 84 78 77 83 81 79 81 83 76 71 72 63 52 39 33 35 32 32 32 30 28 29 32 32 32
66 74 75 65 55 58 59 66 68 72 77 76 79 79 83 85 84 81 77 83 85 81 82 85 84 76 76 69 58 45 36 32 32 33 33 32 27 25 26 29 31 30 32
80 75 67 63 63 72 72 71 75 78 76 76 81 85 88 84 85 87 86 82 82 85 86 84 81 74 63 50 41 34 32 31 33 34 30 26 24 26 29 29 29 29 31
76 70 64 69 81 85 82 82 81 82 82 85 86 89 89 90 83 79 80 85 86 85 87 79 66 52 44 37 35 32 31 31 31 27 23 22 26 28 29 33 30 31 31
82 82 76 79 85 86 84 86 86 89 92 93 89 83 78 76 79 86 85 87 90 84 69 54 44 39 37 34 32 32 30 28 24 21 20 23 29 30 34 36 33 32 30
98 98 98 97 98 98 98 96 94 89 83 76 75 77 81 85 86 88 94 86 72 54 45 39 38 38 34 34 33 29 23 23 23 22 23 26 30 32 32 34 34 34 50
90 91 90 90 90 89 88 84 80 77 79 83 85 85 86 91 95 87 74 53 45 38 38 39 37 36 37 35 29 22 22 23 25 27 27 28 32 32 33 33 37 52 67
91 90 89 86 85 87 90 90 88 84 84 86 90 94 92 86 71 52 45 38 36 39 39 37 37 37 31 26 23 22 23 23 28 29 31 32 32 31 31 42 55 64 66
90 91 91 89 88 86 85 87 89 89 93 93 89 78 62 53 46 39 35 38 41 39 36 36 32 26 22 21 21 20 22 23 25 27 26 26 27 36 46 54 60 64 66
86 84 83 82 83 85 87 89 90 85 77 68 60 53 46 39 35 37 40 42 38 35 32 26 22 18 17 19 22 23 23 26 27 30 23 26 40 47 54 59 61 64 69
88 87 86 86 84 79 75 72 69 65 60 54 49 42 37 37 39 43 40 37 34 28 23 19 17 16 17 19 22 24 24 25 25 24 29 42 47 53 58 59 62 68 75

GFSMW_prec_cthk_042.txt.gz
RH
24 25 25 24 22 24 29 33 35 36 35 39 44 46 48 56 59 60 62 58 61 64 63 65 64 57 60 64 56 56 58 57 54 53 47 44 43 41 39 36 34 33 31
21 21 23 25 25 24 26 30 35 36 34 36 40 45 49 52 56 59 61 60 65 68 73 75 82 80 67 66 64 58 58 59 57 55 50 46 44 45 43 41 39 36 33
18 18 19 21 24 25 26 29 32 36 37 36 39 45 49 50 51 54 59 61 63 70 69 72 81 79 77 72 72 69 61 63 59 54 52 48 47 45 43 42 41 37 35
17 18 18 19 20 22 26 27 32 36 39 40 40 41 44 44 47 49 54 58 63 72 73 72 81 85 79 71 73 66 62 57 55 53 51 50 48 46 45 44 41 37 35
18 18 20 21 21 22 25 27 29 36 38 41 41 43 44 45 46 48 51 56 64 70 74 76 78 82 84 79 78 63 55 55 54 53 52 53 51 48 47 45 42 39 35
21 21 21 21 22 24 23 25 30 32 40 43 43 43 43 43 45 47 49 54 62 70 77 81 81 84 82 80 73 58 55 55 54 54 56 55 51 49 47 43 40 37 36
25 22 21 22 22 23 25 25 29 37 39 46 47 43 45 45 45 44 48 53 59 68 75 81 83 88 81 81 71 56 55 57 60 59 56 55 53 51 50 46 42 38 35
31 28 26 25 25 26 27 29 30 42 45 47 46 48 45 44 43 45 49 53 63 68 78 86 85 79 73 74 64 57 60 59 61 61 60 58 57 55 52 47 42 38 34
39 37 35 33 30 29 28 34 31 41 48 48 49 52 50 43 44 48 55 61 65 73 85 83 82 76 78 71 63 62 64 66 65 63 62 62 58 56 51 46 43 38 34
48 47 45 42 37 33 31 32 41 40 47 48 55 55 51 48 49 54 59 63 71 78 81 79 81 80 75 69 64 67 70 69 66 65 64 61 59 54 48 45 38 34 32
56 53 48 44 40 39 36 37 47 53 55 55 57 56 54 54 57 63 67 71 78 79 79 80 78 78 77 72 71 71 73 72 68 66 64 63 55 51 47 39 33 30 31
60 57 52 45 41 40 43 49 54 61 60 58 58 60 62 64 67 72 75 81 81 82 81 81 82 81 84 73 72 74 75 71 70 68 66 58 55 48 38 31 31 33 31
69 67 65 50 49 48 57 64 66 70 60 58 60 67 71 72 76 81 84 84 84 77 86 85 86 87 75 73 77 77 75 73 72 67 61 57 47 36 31 33 33 31 29
75 76 71 59 55 58 75 79 72 70 63 61 66 74 75 80 84 85 84 87 79 83 89 88 85 79 78 81 81 78 76 75 68 65 56 45 35 34 35 33 31 28 25
70 78 75 62 60 67 80 77 68 67 67 68 77 79 81 84 85 84 82 85 89 84 86 85 80 80 86 83 81 80 78 72 65 52 39 33 35 34 34 33 29 30 30
73 75 66 61 66 76 80 70 69 71 70 74 80 81 81 80 82 90 86 79 77 87 83 87 86 86 84 84 82 78 71 59 46 33 32 33 33 31 28 26 28 31 30
69 64 63 63 78 80 70 72 72 70 73 79 82 81 83 89 89 87 86 85 90 88 87 87 86 88 87 82 77 66 52 38 32 32 33 33 30 25 23 24 29 28 29
67 67 72 84 81 71 73 69 72 75 79 83 81 85 88 86 83 76 80 88 87 88 87 88 89 87 81 70 56 43 33 33 32 32 31 27 24 23 26 29 29 30 29
77 78 82 78 69 66 65 69 73 77 80 81 86 84 82 80 88 93 93 85 84 86 89 89 84 71 57 46 36 33 33 31 29 25 22 21 22 25 29 31 30 29 29
77 77 73 69 73 76 79 82 82 77 83 84 82 82 87 98 97 90 83 83 90 92 87 73 57 47 38 34 34 34 31 27 20 19 19 20 23 29 31 33 33 32 31
77 75 72 80 86 87 84 84 91 93 95 96 98 98 93 84 82 86 94 95 87 73 56 45 39 36 36 36 34 31 25 22 23 23 21 21 23 30 31 32 33 38 51
95 90 92 95 97 98 98 98 98 98 95 89 85 84 86 90 95 93 84 70 53 44 38 36 36 37 36 33 27 25 24 23 23 22 22 22 29 31 30 33 42 51 57
91 93 96 94 94 97 94 86 83 84 84 86 89 90 92 88 81 65 48 42 37 36 37 37 35 33 28 21 19 18 18 17 21 21 22 23 23 24 33 44 49 53 53
90 90 89 88 88 89 89 89 88 87 87 90 91 84 73 57 47 41 36 35 39 38 35 33 28 22 18 16 16 16 16 17 20 21 22 22 22 36 44 46 50 53 56
88 89 88 86 83 81 84 85 87 88 85 75 64 55 48 41 35 35 39 40 36 34 29 24 19 17 16 15 19 20 21 23 27 28 21 21 36 42 45 49 52 57 62
89 88 84 81 79 77 76 74 70 66 64 56 48 41 37 36 39 42 38 35 31 26 21 18 16 15 16 17 18 22 22 23 24 23 22 37 43 47 50 53 58 63 69

GFSMW_prec_cthk_045.txt.gz
RH
22 23 23 23 22 20 22 31 32 36 39 37 41 41 45 50 49 51 52 51 52 59 61 63 63 64 68 72 72 67 50 47 50 51 55 55 52 51 49 46 44 43 42
19 21 23 24 25 26 25 26 34 38 41 42 38 41 47 53 58 56 57 53 53 59 61 65 68 71 68 69 74 70 66 60 61 60 58 58 58 54 52 50 47 45 43
17 17 17 18 22 24 26 28 30 35 42 44 43 42 47 55 61 63 59 56 55 55 63 65 71 75 72 72 78 76 69 66 64 63 63 58 53 51 49 48 47 45 43
16 16 17 17 17 20 24 26 28 32 36 43 45 39 41 44 48 54 52 53 56 61 66 69 70 75 74 79 79 73 73 74 66 63 60 58 55 52 49 48 46 46 44
16 15 15 16 17 18 19 22 25 29 34 39 42 44 41 42 46 53 61 61 61 63 66 66 72 78 78 82 81 78 78 77 69 62 60 56 53 52 51 50 47 45 44
18 18 18 18 19 19 20 22 24 26 30 37 40 45 44 42 44 52 59 61 60 61 64 66 71 76 82 83 83 81 81 80 65 60 58 57 56 54 51 50 49 48 49
24 24 24 22 21 21 22 23 25 26 29 34 33 44 48 44 45 50 56 61 61 62 61 65 67 74 81 85 84 83 78 73 64 61 61 60 60 59 55 52 50 48 48
32 31 30 28 26 26 23 23 23 25 28 32 34 38 45 48 55 56 59 63 66 65 64 65 68 75 78 88 84 80 78 75 65 65 65 65 65 61 57 55 53 50 47
42 41 38 37 36 35 33 28 25 26 28 30 39 40 44 55 62 60 63 69 68 66 64 66 73 76 84 83 81 80 82 73 68 70 71 71 68 64 60 58 56 52 44
48 47 44 43 42 43 45 37 31 27 30 33 44 50 53 60 60 61 64 64 63 66 67 69 74 81 81 83 84 82 80 71 72 73 73 72 69 67 63 60 55 47 43
64 59 53 50 47 43 40 39 40 35 33 36 52 62 64 62 61 66 64 64 66 68 70 75 77 80 79 80 82 86 80 73 74 73 74 72 71 68 65 58 51 43 36
67 64 60 56 51 50 45 40 45 46 39 45 46 61 65 63 61 67 67 67 69 74 77 82 82 80 79 80 90 84 81 79 76 76 75 73 71 67 60 53 42 34 32
78 69 67 63 56 59 52 50 53 51 52 52 57 62 62 60 73 75 75 74 77 80 82 86 85 91 82 95 86 83 80 80 81 78 77 74 68 61 51 39 33 34 34
73 73 65 65 73 65 63 58 58 57 62 62 65 74 67 77 81 80 80 83 86 86 89 87 85 82 89 87 83 82 83 79 82 81 77 68 59 45 35 34 36 35 32
69 61 63 70 70 72 66 63 67 71 80 77 78 72 77 84 83 81 84 87 93 88 86 86 88 91 83 82 89 88 85 86 81 74 65 51 37 33 35 35 34 30 26
73 72 76 79 71 64 64 69 79 85 82 88 83 77 82 83 83 89 87 94 83 84 87 84 92 92 96 89 88 89 86 79 69 57 41 31 33 33 32 29 26 26 29
72 71 72 71 70 66 80 86 86 87 88 86 78 78 83 83 83 95 95 86 93 92 90 97 96 89 86 89 90 82 73 62 44 32 31 32 30 29 25 23 23 26 28
67 68 71 72 78 90 90 85 86 88 87 81 79 80 86 91 91 81 82 95 95 90 92 91 91 90 90 84 76 64 46 34 31 33 30 27 23 21 20 23 28 30 29
78 79 84 89 89 88 84 83 84 84 83 84 83 95 85 80 91 97 96 89 96 97 89 88 90 86 76 62 48 35 31 33 32 28 22 22 19 18 22 29 29 27 26
79 81 86 86 77 71 79 82 79 80 81 87 97 95 97 99 98 95 88 90 89 88 95 87 75 58 48 35 32 33 34 30 24 20 18 17 19 21 28 30 30 29 32
71 71 73 73 74 76 79 80 88 92 94 97 95 96 98 97 98 97 91 91 94 84 67 54 45 35 32 34 36 32 29 26 24 20 17 17 18 23 29 30 30 36 43
85 88 90 96 98 98 96 95 97 94 94 97 97 97 95 92 91 96 94 76 58 47 40 35 33 34 36 33 26 22 20 21 18 17 18 20 22 22 22 26 35 40 43
96 98 98 98 98 97 98 98 98 98 98 97 94 92 94 96 83 62 49 40 36 34 33 34 36 32 26 21 18 16 15 15 18 19 22 22 22 18 23 33 39 41 44
97 97 97 97 98 98 97 97 97 95 93 89 90 88 69 52 43 38 34 34 34 35 36 32 27 23 19 16 16 15 16 19 21 21 22 21 18 25 35 42 44 46 51
87 89 90 90 90 90 88 85 86 84 82 72 57 50 44 38 33 35 38 38 36 33 28 24 20 18 17 18 22 23 22 23 22 22 19 17 24 38 44 45 48 52 58
89 87 85 84 82 79 77 74 68 62 58 53 45 40 37 39 41 39 36 33 29 25 21 19 19 21 22 24 23 23 23 23 23 20 18 24 41 47 46 49 53 57 64

GFSMW_prec_cthk_048.txt.gz
RH
21 21 19 18 20 22 25 30 32 34 38 47 56 52 51 56 54 47 46 48 48 51 53 56 58 62 65 67 70 71 70 65 60 60 59 57 58 56 53 55 59 57 53
22 22 23 24 23 21 21 21 22 30 33 37 43 50 45 46 51 57 60 63 56 55 61 59 60 62 67 71 74 73 73 65 66 66 62 60 59 58 62 60 55 51 49
15 16 18 21 24 25 26 27 25 25 31 33 37 49 56 55 52 56 60 66 66 68 66 66 63 62 70 73 76 76 75 73 69 66 68 66 63 61 61 59 56 51 49
16 16 16 16 17 19 21 24 25 26 29 31 34 40 50 53 51 49 53 60 61 62 65 69 67 69 73 75 78 78 77 74 74 75 71 71 67 62 59 57 51 51 50
16 16 15 15 16 18 18 19 23 26 29 29 31 38 50 52 49 47 51 54 63 70 76 78 76 75 74 75 76 82 82 79 78 76 76 74 64 58 58 56 56 53 53
17 17 17 17 17 18 18 19 19 22 27 30 30 31 35 47 52 54 52 54 59 67 72 77 75 76 75 75 75 82 81 79 77 81 76 71 61 60 60 59 59 59 58
24 23 22 22 22 21 21 21 21 22 24 26 29 31 32 39 48 53 54 56 59 63 67 75 77 78 76 74 74 79 79 80 81 82 75 68 65 63 63 62 61 60 59
30 29 29 29 29 28 26 26 23 22 22 23 25 27 31 38 42 50 53 57 60 62 61 74 78 79 78 74 76 76 76 78 82 80 72 74 67 66 65 63 62 59 58
38 37 35 34 35 36 36 36 33 27 25 22 21 24 28 33 38 48 54 60 65 67 68 75 80 83 82 79 75 76 77 85 78 82 79 75 67 68 66 65 63 60 58
43 42 41 41 40 39 41 41 42 40 35 28 23 23 26 32 39 44 57 62 69 71 73 80 84 82 80 73 74 79 81 82 82 76 77 72 69 68 68 67 66 65 61
53 51 53 53 51 52 52 49 46 43 37 37 32 26 27 36 46 56 62 68 75 76 75 83 83 78 73 76 78 83 77 86 81 85 80 75 73 75 70 69 70 66 61
61 65 66 62 64 65 62 54 49 45 40 36 42 37 40 47 67 69 73 72 73 78 85 83 77 75 75 77 79 80 84 84 90 86 80 78 82 78 76 75 69 63 52
73 74 71 76 76 73 69 64 54 48 42 41 44 50 51 51 75 81 81 76 77 84 81 75 75 78 78 84 92 93 96 85 87 85 85 84 85 82 76 68 59 47 36
82 82 71 66 70 70 72 71 64 63 53 58 62 66 70 64 70 80 81 76 82 82 78 79 78 81 80 91 88 83 81 90 91 95 92 88 79 70 62 51 39 35 37
69 70 66 67 71 73 78 73 67 68 74 77 80 73 75 69 71 64 75 82 83 82 79 80 88 90 89 95 85 88 96 96 96 91 81 73 64 51 41 36 36 36 31
64 63 61 70 80 87 84 74 69 76 88 90 90 82 94 82 75 80 84 84 79 78 85 90 94 90 96 90 91 96 90 91 82 73 63 50 39 32 33 34 31 28 26
65 63 61 59 63 64 65 68 78 91 96 98 97 94 82 81 83 85 83 79 83 90 96 93 88 96 95 96 97 95 82 74 67 52 41 32 32 33 29 24 22 22 23
73 70 65 65 65 67 75 86 96 94 99 97 98 93 84 85 82 80 82 95 98 97 94 97 98 96 91 86 81 75 66 54 42 32 31 34 30 23 21 22 24 24 24
72 78 80 83 84 87 88 87 91 92 93 94 91 87 88 93 88 93 99 98 97 96 98 96 91 95 87 78 65 51 41 32 32 33 31 24 21 18 22 23 26 27 24
66 69 78 76 78 82 83 85 91 87 89 88 86 90 98 98 98 93 92 96 97 95 92 95 83 72 59 49 39 33 33 34 31 23 20 18 17 21 22 30 29 22 21
71 75 80 74 70 73 82 89 85 85 93 98 98 97 97 95 96 98 98 97 97 92 77 59 52 45 37 33 34 34 32 26 22 18 16 16 18 23 24 24 22 23 35
84 88 92 90 91 82 84 93 96 96 97 97 97 97 98 98 97 97 95 81 63 54 47 38 33 32 34 33 28 23 21 19 19 19 20 22 23 22 20 18 21 36 40
92 91 92 92 95 97 96 96 96 98 98 98 98 96 96 96 83 64 54 44 36 34 33 34 35 31 25 22 20 19 19 20 24 24 24 23 21 17 16 23 35 39 42
94 94 94 95 96 96 96 97 96 96 96 94 90 84 66 54 44 37 33 34 37 37 33 28 24 22 21 20 20 20 21 22 23 23 22 21 18 17 26 39 42 44 48
93 92 90 90 91 93 92 91 85 78 68 59 53 47 40 35 34 37 39 35 30 28 25 23 21 21 20 21 25 24 24 24 24 23 18 17 18 29 42 45 45 48 53
91 89 86 82 79 76 68 63 58 55 53 47 42 38 36 36 39 35 31 29 26 23 22 21 22 23 22 24 22 22 24 22 23 19 17 20 32 45 47 46 48 53 58

GFSMW_prec_cthk_051.txt.gz
RH
18 19 19 19 20 23 24 30 34 34 32 31 39 51 56 61 62 59 54 55 49 54 61 61 58 54 56 61 62 63 66 69 70 64 58 58 59 58 56 55 55 58 60
21 21 22 23 21 20 19 21 29 35 34 33 33 36 40 49 58 58 54 55 57 58 64 69 66 65 64 64 64 67 69 71 73 65 64 63 60 60 59 58 58 58 60
16 16 18 20 23 24 24 22 22 25 32 36 37 35 40 40 48 51 55 53 55 62 69 73 74 74 74 72 71 70 76 78 74 67 65 64 66 66 64 63 62 61 58
17 17 17 17 16 18 23 26 28 28 27 27 27 29 33 38 42 51 69 69 57 56 61 71 79 79 78 81 83 88 86 83 78 70 70 71 70 68 68 69 63 57 56
17 17 17 16 17 17 17 19 24 26 28 29 29 29 33 35 41 47 48 57 61 55 57 64 74 79 82 86 88 88 88 83 79 75 72 72 68 72 70 68 60 59 60
17 17 17 17 17 18 17 18 19 20 21 24 28 29 30 34 40 44 59 74 71 64 59 61 67 77 83 86 87 88 89 89 81 79 73 73 70 79 72 66 65 64 63
22 22 21 21 20 20 20 20 20 21 21 21 22 28 30 33 35 40 48 61 65 65 60 58 61 65 76 84 88 88 90 87 81 77 73 72 70 78 73 66 68 65 65
29 29 29 28 27 27 26 25 24 24 23 22 22 23 26 31 33 35 38 43 54 63 67 65 61 68 75 83 90 90 88 84 78 78 71 70 81 75 74 74 75 65 64
36 37 37 37 35 34 34 34 35 34 33 29 25 22 21 23 27 30 38 42 46 52 63 65 68 73 77 81 88 89 85 85 80 75 73 80 85 72 78 71 70 68 64
45 43 41 40 39 39 39 38 38 39 42 43 42 34 28 26 24 25 29 37 42 48 62 68 72 81 81 85 90 89 87 83 77 74 76 83 86 76 75 73 69 68 69
56 56 54 52 48 47 49 50 50 49 48 45 43 40 37 34 30 27 29 37 44 51 64 75 82 86 87 87 88 89 85 81 72 73 81 82 81 81 79 82 82 80 78
60 58 57 55 53 51 53 58 62 61 60 56 51 47 43 42 40 34 36 45 51 60 74 79 83 85 84 84 85 84 79 75 78 79 91 92 91 82 87 91 89 82 73
66 64 59 58 54 52 55 60 68 76 71 66 60 54 51 50 55 54 53 53 60 70 85 85 81 80 84 84 82 79 73 79 83 94 97 92 90 98 92 84 78 69 60
60 57 56 56 49 49 57 64 64 68 78 70 62 64 63 63 66 67 70 74 80 86 87 85 85 85 83 80 74 76 80 87 92 89 90 93 96 89 79 71 61 51 43
60 58 60 58 53 59 72 70 69 71 78 73 68 73 75 76 76 76 72 75 84 86 86 82 85 83 81 77 78 84 94 97 98 96 87 82 79 73 62 52 44 39 37
66 60 62 62 57 60 63 77 78 75 73 73 77 84 84 81 78 83 76 71 72 73 75 87 84 82 87 81 96 98 99 98 98 92 84 76 65 51 43 35 32 34 32
63 63 64 63 61 60 62 68 75 80 79 83 84 87 81 80 82 81 76 71 67 78 93 91 88 88 90 98 99 96 93 90 80 72 61 51 46 36 31 31 27 26 24
65 68 70 72 72 71 71 79 87 95 96 96 96 98 88 97 95 89 83 79 87 96 98 90 92 98 98 99 95 88 81 74 65 55 44 35 33 31 26 25 26 24 23
65 68 69 73 78 80 83 84 86 88 93 98 98 97 95 91 84 95 92 98 87 91 96 97 98 98 92 82 77 68 58 49 41 36 34 31 26 23 22 26 26 25 23
70 73 74 71 73 79 85 86 88 87 90 89 89 88 86 85 95 97 98 96 96 98 98 97 89 77 66 58 52 43 38 35 32 27 24 22 21 20 25 29 27 24 21
78 80 82 83 76 75 77 86 86 87 92 92 93 91 94 98 97 97 98 98 98 94 81 68 60 54 48 41 35 33 29 25 22 20 19 19 20 25 25 25 23 20 25
81 82 84 85 83 83 80 86 91 94 93 97 97 98 98 98 98 98 94 80 65 57 52 46 39 33 32 30 26 22 20 20 20 19 19 21 23 23 21 17 15 26 35
84 86 87 88 88 90 92 92 92 94 95 97 97 97 96 92 76 61 53 45 38 36 34 34 32 27 23 21 20 19 18 17 20 19 22 20 19 17 15 17 26 36 40
85 84 85 87 88 89 91 91 92 94 96 94 87 68 54 44 37 34 35 38 38 34 29 25 22 21 20 18 17 16 16 16 16 17 18 17 15 16 20 33 41 45 46
87 85 85 84 84 84 83 80 77 68 59 52 44 40 37 36 37 39 37 31 28 25 23 22 20 18 16 16 16 18 18 19 18 18 15 16 18 25 38 46 48 49 52
83 80 78 75 72 70 65 59 54 51 49 44 39 37 36 38 37 31 28 27 25 23 21 19 17 17 17 17 15 14 15 14 16 16 16 20 29 44 51 49 50 52 57

GFSMW_prec_cthk_054.txt.gz
RH
17 18 17 19 19 21 25 28 31 31 33 34 32 30 31 38 48 49 57 59 58 60 59 60 61 64 63 64 65 62 63 62 64 66 67 63 56 57 58 55 53 52 52
20 20 19 20 21 20 21 22 25 30 32 33 34 32 31 31 40 50 60 68 70 68 67 67 69 70 69 70 72 74 72 71 71 70 71 66 60 61 59 60 59 58 58
16 16 17 18 19 20 21 22 22 23 25 27 30 32 34 32 33 39 45 54 61 68 66 64 69 71 74 73 76 77 84 86 87 85 80 70 66 66 65 66 64 60 60
19 17 17 17 18 18 19 22 25 26 25 24 24 27 31 32 33 35 41 42 45 57 62 65 70 75 74 74 78 82 86 90 92 93 92 83 73 69 68 67 63 66 66
21 19 18 18 18 17 17 18 18 23 28 30 29 28 28 30 33 35 38 44 49 53 69 79 72 70 69 73 79 81 85 87 90 92 93 88 79 75 70 68 67 72 69
21 20 19 18 17 17 18 18 19 21 23 25 28 31 32 33 32 33 34 36 45 52 54 64 69 74 69 66 72 78 84 87 88 92 92 90 83 79 76 68 68 69 71
23 22 21 20 20 20 20 20 20 21 22 23 23 23 23 25 29 34 36 37 47 56 56 70 80 80 80 70 68 76 83 89 90 91 91 88 84 81 79 71 72 72 73
28 28 27 27 26 25 24 25 24 24 23 23 24 24 24 24 26 29 36 42 42 43 56 62 72 76 79 74 72 77 81 87 92 90 90 88 87 84 78 76 83 79 76
34 35 34 33 33 32 33 32 31 31 31 31 30 28 27 26 25 24 26 30 35 41 43 52 60 71 79 82 85 82 84 89 90 90 91 87 84 82 94 80 73 80 77
44 44 44 43 43 45 42 41 41 38 35 36 40 42 42 37 32 29 28 27 28 33 39 45 50 64 73 77 78 83 86 90 90 87 88 90 91 88 81 91 77 84 80
55 54 53 51 50 50 47 43 43 42 44 45 47 46 45 47 46 43 37 32 30 28 35 45 49 59 72 83 89 90 88 88 87 88 90 91 93 86 78 79 93 93 98
59 57 56 53 49 47 48 46 43 42 42 44 45 51 58 52 50 48 48 45 42 37 40 49 51 58 68 83 88 90 89 89 86 88 91 93 89 82 95 95 98 98 89
54 53 52 52 48 44 41 38 39 43 46 52 53 57 62 71 62 56 54 54 52 50 48 53 58 64 75 89 90 88 87 84 90 92 94 91 80 94 97 93 91 83 76
55 56 55 51 50 46 42 46 50 54 63 63 61 66 70 79 78 68 65 68 68 64 62 62 63 70 79 86 86 86 89 96 95 95 88 84 95 96 96 89 84 78 70
54 57 53 55 54 49 49 49 54 64 72 72 73 87 85 84 83 78 76 78 76 77 74 74 80 82 90 89 88 94 95 95 91 84 92 93 98 94 83 74 62 56 50
59 56 53 54 51 52 52 54 61 68 67 71 79 84 87 91 94 90 92 87 80 85 86 85 87 88 89 92 94 95 93 87 87 98 97 89 80 72 65 56 46 39 35
58 59 56 56 58 62 64 63 71 79 77 75 78 86 92 94 94 94 92 95 83 80 86 85 86 85 93 99 93 87 91 97 91 88 81 72 61 50 43 38 32 29 25
62 64 63 64 69 72 74 75 75 81 88 94 93 99 95 90 90 92 97 86 86 86 83 81 86 92 97 96 91 95 95 87 74 60 50 43 38 33 28 24 23 24 25
63 67 67 71 69 72 77 79 82 84 88 93 97 98 99 97 97 99 98 97 95 94 93 93 96 98 97 94 89 78 61 49 42 37 33 28 23 21 20 26 25 24 23
73 73 71 73 71 72 72 82 82 88 92 96 94 94 91 90 85 88 93 91 95 98 98 97 97 88 77 66 54 45 39 34 26 24 22 20 19 19 23 22 20 19 16
75 77 76 77 77 71 74 79 84 87 92 97 98 98 98 98 97 97 98 98 98 96 85 67 57 50 44 40 35 29 25 22 20 18 16 15 15 20 19 20 18 16 20
76 77 78 80 77 78 82 87 89 89 92 95 96 96 96 96 97 97 85 67 57 51 45 40 35 31 28 26 23 21 19 18 16 14 14 14 18 15 14 13 14 21 29
78 77 78 79 83 87 86 87 89 92 93 93 93 94 92 73 58 50 42 37 35 35 33 31 27 24 22 20 17 16 16 16 17 15 16 14 13 12 14 18 23 31 38
80 80 81 82 84 86 86 84 84 84 83 75 60 48 41 37 36 37 38 36 32 28 25 24 23 21 18 17 19 19 18 16 15 13 14 13 13 16 20 31 40 43 43
81 79 78 78 78 78 76 74 68 60 53 46 41 37 36 36 36 35 31 28 26 25 24 22 20 19 19 20 22 22 19 20 15 14 13 13 17 27 37 40 42 44 48
84 78 74 71 68 67 62 56 53 51 46 40 37 36 36 37 33 30 28 27 25 24 23 21 20 20 20 19 18 17 14 12 13 13 14 22 34 36 38 40 43 46 49

GFSMW_prec_cthk_060.txt.gz
RH
18 17 16 16 16 19 20 22 24 24 24 29 26 29 31 33 33 36 39 43 49 52 53 55 58 61 61 62 58 58 59 55 59 67 69 70 67 66 68 64 58 56 56
19 17 16 16 16 16 16 17 18 20 21 23 27 26 31 32 34 35 37 39 41 48 54 55 56 59 62 63 65 65 67 66 67 74 74 72 69 71 73 74 71 66 63
20 19 18 17 16 16 16 15 15 16 17 18 23 28 31 32 31 30 32 37 39 41 43 48 54 57 62 65 69 71 75 75 73 74 77 77 73 72 76 80 80 73 72
23 22 21 19 18 17 16 16 17 19 20 22 22 25 28 28 25 27 30 33 36 38 42 48 55 53 62 67 68 76 77 80 78 78 79 81 76 77 76 78 75 74 77
26 25 23 21 20 19 18 17 17 17 18 19 22 25 31 32 32 35 31 27 28 33 39 45 49 58 60 65 68 72 73 73 80 80 82 87 84 84 85 79 78 77 78
28 27 25 23 22 20 19 18 18 18 17 17 18 20 24 30 34 35 36 35 36 34 33 38 46 49 61 64 70 71 69 70 77 82 86 87 86 85 88 88 81 83 81
30 28 27 24 23 22 21 20 19 19 20 19 19 20 20 24 31 34 35 35 35 34 38 42 41 42 47 58 65 70 75 75 82 86 89 88 89 90 92 88 88 86 84
31 30 29 28 26 25 24 24 24 23 22 22 23 23 24 24 25 26 26 26 27 27 29 33 41 50 53 53 55 61 71 78 86 86 89 90 97 98 96 93 98 84 82
36 36 35 34 34 33 32 31 30 30 29 28 29 30 31 32 34 35 35 36 35 33 31 31 32 39 48 54 63 67 69 74 84 89 92 97 98 98 98 91 85 85 85
41 40 39 39 38 37 37 37 38 39 40 40 38 36 36 36 38 40 42 43 43 42 42 41 39 39 41 47 56 59 65 74 82 86 92 90 98 98 94 89 89 91 90
43 44 44 43 42 41 41 41 40 40 41 40 39 38 36 34 31 33 35 37 40 44 49 49 49 47 47 51 52 57 63 69 72 78 81 84 85 94 89 93 88 92 95
48 49 48 45 42 40 38 37 36 35 34 33 31 28 28 30 32 33 37 41 46 50 53 56 57 62 61 55 55 58 61 65 67 69 71 73 74 77 83 87 96 93 95
53 52 48 44 42 42 41 38 36 36 33 32 30 32 35 34 35 36 39 45 50 60 68 66 66 68 69 68 61 63 65 68 69 71 69 69 67 76 84 91 93 95 97
55 52 49 46 44 44 42 40 38 37 36 35 36 38 40 42 46 49 54 59 67 67 67 75 75 69 70 76 73 68 71 74 72 70 69 72 81 97 98 96 97 97 97
56 53 51 47 47 46 44 43 42 41 41 43 45 47 48 49 53 60 66 72 81 82 80 81 78 75 77 81 82 77 78 81 78 74 78 97 95 96 95 97 95 90 86
58 55 53 49 50 50 48 48 49 50 49 51 55 58 56 58 61 64 73 83 90 97 98 98 98 94 89 86 84 81 80 82 87 89 96 98 96 98 92 86 82 64 49
65 56 52 53 55 55 52 55 54 55 55 57 60 61 65 66 71 75 77 85 91 98 98 98 98 98 99 98 99 90 92 96 98 98 98 96 89 79 65 50 34 26 18
65 62 57 56 58 57 54 55 56 59 62 64 65 66 67 70 73 77 81 86 88 94 98 97 93 95 97 97 98 98 98 97 90 83 77 66 49 39 29 22 13 12 14
67 66 65 64 62 59 57 56 60 63 67 68 70 68 70 70 74 79 83 89 92 97 97 98 97 96 93 93 94 93 86 75 61 47 39 31 26 20 14 16 13 17 15
66 68 68 68 65 64 59 63 67 68 72 74 74 77 77 79 80 84 87 90 91 95 97 97 97 93 84 73 57 49 42 35 30 26 23 18 14 12 16 18 18 14 14
68 68 70 71 70 65 68 71 72 75 76 77 76 77 78 80 83 85 87 88 78 60 51 46 44 41 39 34 29 24 20 19 18 16 15 13 12 14 12 11 16 12 15
68 70 71 72 71 73 74 76 76 77 79 76 72 72 72 68 55 41 35 35 34 32 30 27 26 24 22 21 21 19 19 17 17 16 15 14 11 10 11 12 12 19 24
69 70 73 73 76 77 76 76 75 73 71 69 61 46 37 34 34 34 32 29 26 24 23 23 22 21 22 22 21 20 18 17 16 15 14 13 12 12 15 17 22 26 28
73 70 70 72 73 73 72 70 68 65 53 46 37 34 33 34 33 30 28 28 25 23 23 23 22 22 23 23 22 21 21 19 20 18 17 15 15 18 23 26 27 29 31
79 75 73 70 70 70 69 64 55 48 42 36 34 34 34 33 32 30 29 27 25 24 24 25 25 25 26 27 24 24 26 27 22 19 18 17 21 28 29 29 30 32 35
82 82 78 74 69 67 59 52 50 44 39 36 36 37 36 34 33 32 29 27 26 26 27 27 27 27 27 26 27 27 25 24 23 22 21 26 31 31 31 32 34 36 38

GFSMW_prec_cthk_066.txt.gz
RH
29 27 24 22 22 22 23 24 26 27 27 33 40 40 34 31 33 31 34 36 42 43 42 41 45 49 52 50 52 57 61 60 62 66 67 63 62 62 61 61 61 61 65
30 27 25 23 22 20 20 19 18 19 22 23 25 32 30 29 27 27 28 31 35 39 44 44 42 45 52 54 56 58 64 66 67 65 69 67 66 66 68 69 72 72 73
25 24 22 20 19 18 17 17 16 16 16 17 18 19 23 24 26 22 21 21 24 35 39 49 53 50 52 51 55 60 59 66 73 77 75 76 69 69 71 75 79 80 79
23 22 22 20 19 17 16 16 16 16 17 18 19 19 20 23 26 25 23 25 25 26 30 43 49 51 52 55 61 68 61 66 69 73 73 81 80 77 75 78 79 83 82
27 26 24 23 22 20 18 18 17 17 16 16 16 17 20 22 26 31 36 37 35 34 35 34 39 44 50 53 58 63 65 65 65 67 69 76 86 88 86 86 86 87 88
31 30 30 28 26 24 23 21 20 20 18 18 17 17 17 18 20 23 28 31 33 35 38 38 37 39 40 42 46 53 60 66 72 73 71 75 82 86 91 93 93 91 92
33 32 29 27 27 25 24 22 22 21 20 19 18 19 18 18 19 22 25 30 35 34 36 38 45 43 42 45 48 50 55 60 65 69 72 77 81 86 94 97 95 94 93
35 32 31 29 28 27 25 23 23 23 23 22 22 22 22 22 23 23 25 28 35 41 44 46 44 46 45 44 45 47 52 60 68 70 75 82 76 76 80 89 95 94 91
35 34 33 32 32 31 31 30 30 30 29 29 29 29 28 27 27 28 30 31 31 33 36 38 38 37 37 37 40 44 47 52 60 66 77 85 85 85 84 85 84 86 85
40 37 36 35 34 33 32 32 33 33 34 34 35 35 35 35 35 33 31 31 31 29 26 27 29 31 32 35 39 43 45 51 56 62 73 82 88 89 91 92 92 93 91
41 40 38 37 37 37 36 35 35 35 35 36 36 35 35 36 36 35 32 30 27 27 29 30 31 33 36 39 45 51 54 60 67 71 71 75 88 93 98 99 97 95 94
43 41 41 41 40 40 40 38 36 36 35 33 31 30 30 30 28 26 25 25 27 27 27 30 33 37 40 47 52 53 56 65 71 79 86 85 85 91 95 96 98 90 89
44 43 42 44 44 45 43 40 37 36 34 34 33 32 31 30 28 29 31 31 32 33 35 37 42 48 50 53 56 59 68 71 75 86 86 93 91 88 89 91 87 88 94
48 47 48 48 49 48 43 40 39 38 37 35 34 34 34 35 36 37 37 36 38 40 40 45 50 53 57 61 64 67 75 77 86 90 95 95 92 94 89 84 87 79 90
54 52 52 51 52 48 43 43 42 43 41 40 40 40 38 39 42 43 43 43 43 44 47 53 56 59 61 64 68 73 77 79 80 82 87 93 96 99 89 86 90 90 80
56 56 57 57 52 51 49 48 47 47 47 47 47 46 45 46 48 49 49 48 49 51 55 57 59 61 63 67 71 75 77 81 79 81 91 98 98 95 98 96 84 85 80
61 59 60 59 55 55 52 49 49 49 49 49 51 52 51 51 52 51 52 53 55 56 60 63 63 65 68 71 74 78 84 89 95 96 98 97 98 96 94 91 82 69 59
63 64 62 61 60 58 55 52 52 52 52 54 56 56 54 55 55 54 55 57 59 60 61 62 65 68 71 75 79 83 87 90 94 94 90 82 71 61 52 44 38 31 24
64 62 59 61 62 63 63 59 57 57 56 60 60 60 59 60 59 58 59 59 58 58 58 60 64 62 58 52 45 43 38 38 38 35 34 30 26 24 20 18 16 15 16
61 59 61 62 65 65 63 62 60 60 64 65 66 65 63 61 61 60 58 51 44 37 32 27 25 22 21 19 18 18 18 19 20 20 18 17 16 15 14 14 16 18 17
64 62 63 63 64 63 63 64 67 68 70 70 68 67 65 63 56 39 30 27 25 23 21 21 20 19 18 19 20 20 20 20 19 19 20 19 18 18 17 17 17 18 19
69 65 65 66 65 64 68 71 72 73 73 72 71 70 61 37 28 28 27 24 23 22 21 21 20 20 20 21 21 22 22 22 23 23 23 23 22 21 22 22 22 23 25
73 69 67 67 65 67 69 71 73 74 75 74 70 44 31 28 29 28 26 24 23 23 23 23 22 22 23 24 24 25 26 26 27 27 27 26 26 25 25 26 28 29 30
76 73 70 68 66 66 66 67 68 67 65 52 36 30 29 31 30 28 27 26 25 25 26 25 24 24 25 26 27 27 28 29 29 29 29 29 29 29 30 32 32 32 32
78 76 74 71 72 67 65 65 65 62 51 37 32 30 33 33 31 30 29 28 27 28 29 28 27 27 28 28 29 30 30 31 31 31 30 30 30 33 35 35 34 34 35
85 82 77 76 75 73 71 68 65 56 42 36 34 35 36 35 34 33 32 31 31 31 32 32 31 31 31 31 32 33 34 33 33 32 32 32 35 36 37 35 34 37 37

GFSMW_prec_cthk_069.txt.gz
RH
33 31 29 27 26 25 25 27 34 38 36 32 32 33 32 38 46 42 42 43 44 42 45 42 42 43 47 49 51 54 56 58 59 63 64 65 63 58 58 61 63 65 68
33 31 29 27 26 26 26 25 25 26 28 28 29 28 30 29 29 30 32 36 37 39 41 47 47 47 53 57 59 64 69 67 63 63 68 69 69 72 71 69 70 70 71
36 34 31 30 29 27 25 23 22 22 21 22 21 20 19 19 20 22 23 24 27 29 33 37 42 47 51 53 64 60 59 61 63 70 76 74 70 71 72 73 75 76 77
37 34 32 29 27 24 21 19 18 18 19 19 18 18 19 19 18 21 26 26 25 25 27 30 33 36 43 49 55 60 67 69 69 73 77 80 79 80 75 73 76 85 87
34 32 29 25 23 22 21 19 18 17 17 17 17 18 19 21 22 23 24 27 32 34 33 33 32 39 46 49 50 55 56 61 67 68 75 81 82 80 82 82 81 86 91
34 31 29 26 24 24 22 20 20 20 19 18 17 17 17 17 17 19 21 25 29 31 31 30 30 34 41 46 47 47 49 52 57 62 68 72 74 77 89 87 88 93 93
34 31 30 30 28 28 27 26 24 22 21 20 19 18 17 17 17 17 18 20 24 27 29 32 34 36 41 48 49 48 50 53 53 55 57 62 74 91 82 88 89 88 93
36 34 32 30 28 28 28 25 24 23 21 21 21 20 20 20 20 19 20 22 25 30 34 38 38 38 40 42 38 37 37 42 47 50 55 59 64 71 81 84 95 98 94
38 37 34 33 32 30 29 28 27 27 27 27 26 26 25 25 25 25 25 27 29 31 31 34 36 35 32 33 33 35 35 39 40 43 47 52 57 63 69 85 94 98 98
39 37 37 36 34 32 31 30 29 28 29 29 29 29 30 30 31 32 32 32 31 31 30 27 25 25 27 29 33 34 36 39 43 48 53 59 66 71 74 79 86 89 97
42 40 39 38 37 36 34 33 32 32 31 30 31 31 31 31 31 31 33 33 30 27 24 24 26 26 28 30 31 34 37 43 46 49 55 67 71 77 78 83 85 84 88
47 45 44 42 41 40 40 38 36 36 34 32 31 30 29 28 28 28 26 24 22 23 25 26 26 27 30 34 38 43 46 48 49 53 61 62 71 78 80 83 90 92 97
49 49 49 48 45 44 44 43 41 38 35 34 32 31 30 31 31 29 28 28 29 29 30 31 32 34 39 43 45 47 52 53 55 58 58 65 71 76 80 85 92 95 96
49 50 50 48 48 47 46 45 43 39 37 35 34 33 33 34 36 36 36 36 36 35 35 36 40 44 46 49 51 55 56 58 61 64 64 67 70 75 89 94 97 96 97
50 52 51 51 52 51 49 46 42 40 40 40 41 41 42 42 40 41 43 44 42 41 43 44 46 48 49 50 53 59 62 64 67 67 74 72 77 77 87 92 95 97 92
55 56 55 54 54 54 52 47 43 46 46 46 46 47 48 49 48 47 47 48 47 47 48 50 51 51 51 54 56 61 65 69 72 74 78 83 88 91 94 97 96 98 97
58 57 57 58 57 56 54 52 52 50 48 48 48 50 53 52 52 51 50 52 52 53 54 54 53 53 54 56 60 65 69 72 75 78 81 83 85 88 88 81 73 62 55
59 59 59 59 62 62 62 57 55 51 51 51 53 57 55 54 54 55 55 56 56 56 55 53 52 51 48 42 39 32 31 30 30 31 30 30 30 28 26 25 23 22 18
61 60 61 62 62 63 63 63 62 56 55 57 59 59 58 59 59 59 59 59 58 52 48 38 26 22 19 16 16 16 17 17 16 16 16 16 16 16 16 16 16 17 18
65 64 64 63 63 64 64 63 62 61 60 62 64 63 63 63 63 62 57 43 32 25 22 20 19 17 17 16 17 18 18 20 20 20 20 20 20 20 20 19 20 21 22
71 67 64 64 63 63 62 63 61 63 67 68 68 67 67 67 62 41 29 26 23 22 20 19 19 19 19 19 19 20 21 22 22 23 24 24 23 23 23 23 23 24 24
73 71 66 66 65 64 63 64 67 71 72 72 72 71 69 56 36 31 26 25 24 22 21 21 21 22 22 22 22 22 23 23 25 26 26 26 26 26 26 26 26 27 28
74 73 70 68 66 64 65 68 69 72 73 74 74 69 49 35 30 27 26 26 25 23 23 24 24 25 25 24 25 25 26 26 28 29 29 29 29 28 28 29 31 33 32
78 76 73 70 69 66 65 66 67 68 68 67 55 39 34 31 29 29 29 28 27 27 27 27 28 28 28 28 29 30 30 30 31 31 31 30 29 30 30 33 35 34 33
85 81 77 74 73 73 71 67 65 65 63 52 40 34 33 32 31 32 32 31 31 31 31 31 31 32 32 32 32 34 34 34 34 32 31 31 31 33 35 35 33 34 34
88 88 84 79 77 75 74 73 72 68 60 46 38 35 35 35 35 35 35 34 33 34 34 35 36 35 36 35 36 38 37 38 36 34 32 32 32 35 37 36 36 37 37

GFSMW_prec_cthk_072.txt.gz
RH
36 33 32 30 29 28 28 31 33 34 35 35 37 39 41 42 44 44 47 48 48 51 51 47 43 43 43 44 53 55 59 63 65 69 69 71 70 65 61 64 67 68 74
38 34 31 31 30 29 28 27 28 29 33 35 35 33 34 34 37 39 41 42 41 44 41 43 44 46 50 52 54 58 58 64 68 72 75 77 74 74 74 74 74 76 78
42 39 34 32 31 30 29 28 28 27 26 26 27 28 26 25 23 22 23 25 28 32 35 33 32 32 32 33 41 43 51 62 66 69 71 78 72 72 73 75 77 80 83
42 41 39 35 34 32 30 27 26 25 25 25 25 25 23 21 20 19 19 19 21 23 25 27 27 28 31 33 35 40 52 59 64 69 73 82 77 76 77 80 83 83 87
47 42 40 37 35 32 29 26 24 22 21 20 19 19 19 19 19 19 20 21 23 25 27 29 38 44 38 38 39 42 50 55 55 61 66 68 68 71 75 68 71 75 83
47 44 42 40 36 32 30 27 28 28 25 23 20 18 18 18 18 19 19 19 20 22 26 27 29 28 29 34 37 39 44 49 50 51 51 52 59 62 65 68 67 74 78
47 46 42 39 34 30 30 29 25 23 23 21 21 20 20 19 19 18 18 18 18 20 23 26 28 30 33 35 37 40 41 44 43 44 45 48 52 57 60 67 61 77 77
48 46 40 36 33 29 28 26 25 25 26 25 24 22 21 21 20 19 19 19 19 21 23 27 31 34 36 36 38 37 36 34 35 34 37 40 45 50 51 57 67 69 70
49 46 41 37 31 29 28 27 27 28 28 27 26 25 25 25 25 24 24 24 24 24 26 29 31 33 35 34 32 30 31 29 32 34 36 38 42 46 55 54 61 72 78
43 45 41 36 34 34 33 32 31 30 29 29 29 28 28 28 29 29 29 29 30 31 32 31 31 29 26 24 25 26 28 31 34 36 36 39 42 44 48 55 64 72 79
45 43 42 41 40 38 37 36 35 34 32 31 31 31 30 29 29 29 30 31 31 32 32 29 24 23 24 24 25 26 29 31 34 38 40 43 44 47 49 55 59 66 73
52 48 47 44 41 40 40 39 36 35 34 34 33 32 31 30 28 27 26 26 26 25 23 23 24 24 24 25 27 32 37 39 43 44 45 47 49 51 53 57 64 74 77
49 49 48 47 46 43 42 41 41 40 39 39 37 35 32 30 30 30 29 29 28 27 27 28 28 28 30 33 37 42 43 45 48 49 51 51 53 56 60 64 69 76 84
55 54 53 51 50 49 48 47 47 46 44 41 38 35 33 32 33 34 36 36 35 34 34 33 33 35 38 41 43 45 47 47 50 52 54 57 60 64 68 73 76 84 88
50 50 52 53 54 53 52 51 49 47 43 39 38 39 39 40 43 43 42 42 42 41 38 39 40 42 44 45 46 47 50 51 54 58 61 63 68 69 75 79 82 86 90
49 52 54 54 55 54 53 53 50 47 43 44 43 44 46 48 49 49 47 47 45 43 44 46 46 47 48 48 49 50 51 51 53 56 62 64 68 69 72 75 77 73 78
50 58 58 57 57 57 55 54 52 50 48 48 47 48 49 52 52 51 52 50 48 51 51 50 50 51 49 47 43 38 34 33 35 36 37 37 38 40 39 35 28 23 21
64 61 59 59 59 59 60 60 58 56 54 52 50 50 55 56 53 53 55 54 55 54 54 52 48 41 27 20 16 15 15 15 16 16 15 15 15 15 14 15 15 16 16
64 63 62 62 61 60 61 64 65 63 58 55 54 56 60 58 57 58 57 58 58 55 46 29 21 18 17 16 16 16 16 17 17 17 18 18 18 18 17 17 18 19 21
68 67 64 65 65 64 66 66 65 64 63 63 60 62 64 63 62 62 62 57 41 28 24 19 18 17 18 18 18 18 18 18 18 20 21 22 22 22 22 22 23 23 25
72 72 71 68 67 66 65 64 62 61 60 61 66 69 67 66 66 59 41 32 26 24 20 19 19 20 20 20 21 21 21 21 22 23 24 25 26 26 26 25 25 25 24
76 76 73 68 67 65 64 63 62 63 68 71 73 72 71 70 56 41 35 29 26 22 21 22 22 22 23 24 24 24 24 24 26 27 27 28 28 28 28 27 27 28 28
81 76 74 71 68 66 66 65 66 68 71 74 75 74 73 56 43 36 31 27 24 24 25 25 25 26 26 27 28 28 29 29 30 31 30 30 30 29 29 29 30 31 31
85 80 78 75 72 70 66 64 66 68 69 70 71 67 50 38 34 33 32 27 27 27 28 29 30 30 31 32 33 34 35 35 35 34 34 34 33 31 31 33 33 33 34
86 85 83 80 77 74 71 70 70 68 67 67 61 47 38 35 32 31 30 30 31 31 32 33 34 36 37 38 38 39 39 38 37 37 37 37 36 35 35 35 35 36 37
89 89 89 87 83 78 76 75 75 74 71 64 53 42 37 36 34 33 33 34 34 35 35 35 36 38 40 42 43 43 43 43 42 42 41 40 37 36 37 37 38 40 40

GFSMW_prec_cthk_075.txt.gz
RH
54 46 41 40 36 33 34 34 36 40 45 45 42 42 41 44 42 41 41 43 46 48 52 54 54 54 50 47 48 52 53 53 55 57 58 60 66 72 74 74 75 75 75
50 46 39 37 35 32 31 31 31 31 32 33 36 38 38 39 38 40 45 45 43 46 48 49 46 45 46 44 42 42 43 43 45 53 62 66 70 70 72 72 74 72 78
44 43 44 38 35 33 32 31 30 30 29 29 28 29 30 31 32 32 32 32 34 36 38 37 41 43 35 32 32 34 37 39 41 48 65 69 65 64 66 72 74 71 76
45 42 42 42 40 36 34 33 31 29 28 27 27 27 27 26 27 27 26 26 26 25 24 25 27 27 27 29 30 34 37 41 44 51 58 63 65 62 61 62 62 60 65
48 47 45 44 42 41 38 35 33 30 29 27 26 24 24 25 25 25 23 22 22 22 23 24 26 27 29 33 39 40 38 36 37 40 48 52 54 54 55 53 51 54 56
51 50 49 48 46 42 39 37 35 31 28 25 23 24 23 23 23 22 20 21 21 21 22 23 25 28 28 29 29 28 32 36 40 43 48 48 50 51 51 50 50 49 48
50 51 49 51 50 46 42 37 33 30 28 26 26 27 26 26 25 22 19 19 20 19 20 21 23 26 29 31 35 37 37 41 43 42 41 37 41 43 43 45 47 46 45
45 50 50 50 50 48 44 41 38 34 32 31 30 27 24 23 22 22 22 21 20 20 20 21 24 27 30 34 37 41 42 42 39 35 32 34 35 39 38 45 44 45 50
47 48 49 49 49 48 42 39 36 33 32 31 28 25 25 26 25 25 24 24 24 24 24 24 25 26 30 34 37 39 40 36 33 33 30 33 35 37 41 41 46 46 46
49 51 52 52 49 46 42 38 34 31 30 29 29 30 30 30 29 29 28 29 29 29 30 31 31 32 32 32 31 28 26 26 27 29 32 35 38 39 40 42 47 47 50
55 52 49 48 46 45 43 40 36 33 32 31 31 31 31 31 31 30 30 29 29 30 30 31 32 32 30 25 24 24 24 25 27 32 36 38 40 43 43 46 48 47 49
53 53 49 43 42 45 42 39 39 39 38 37 36 36 35 33 31 30 29 28 27 26 26 27 26 24 24 26 26 26 28 31 36 40 42 42 44 47 48 49 48 52 55
61 58 55 53 52 47 46 46 44 43 43 42 41 37 36 36 35 32 30 30 30 28 28 28 28 29 29 29 32 34 38 40 41 43 45 46 47 49 53 54 57 59 60
56 56 56 58 56 54 53 52 51 48 45 44 43 43 42 39 36 33 33 34 35 36 35 35 35 34 34 35 38 40 43 44 44 45 47 49 51 54 56 58 63 64 67
54 56 57 58 60 58 57 56 54 53 51 50 47 45 42 40 38 41 43 43 42 42 41 40 39 39 39 41 43 46 46 46 46 46 47 50 52 54 57 59 61 60 57
55 53 53 57 61 62 60 58 56 55 56 52 49 45 42 43 44 47 49 49 48 46 45 44 43 44 45 47 47 46 43 37 35 35 35 35 36 36 37 38 39 38 35
52 52 55 61 61 57 58 58 60 60 54 51 47 47 45 46 48 51 53 52 50 49 48 49 50 49 49 46 39 28 23 22 22 23 23 22 21 20 18 15 14 14 14
53 51 56 60 59 59 59 59 59 60 58 55 51 50 49 50 53 55 54 54 54 53 53 54 52 43 29 20 17 15 16 16 16 16 16 17 17 17 17 17 17 18 18
57 60 73 64 61 62 62 62 62 64 66 63 57 55 53 53 56 59 58 58 58 56 54 41 31 21 19 16 16 17 17 17 17 18 19 19 20 21 20 21 21 22 23
52 60 66 67 64 62 64 65 66 68 67 66 66 61 58 59 61 61 61 61 60 48 33 25 21 18 17 17 18 19 19 20 20 21 21 22 23 23 24 24 24 24 24
62 69 70 68 66 66 68 69 69 68 65 65 66 65 64 65 64 65 66 55 40 32 26 24 21 19 19 20 21 22 22 23 23 24 25 27 27 27 27 26 26 25 24
73 73 75 75 74 71 69 68 68 66 64 65 66 67 68 66 68 66 46 37 33 29 26 24 22 22 23 24 25 25 26 28 29 30 31 31 31 31 30 30 29 29 30
77 84 78 79 77 73 70 69 68 68 68 71 72 72 70 71 70 47 40 36 32 28 26 24 25 26 27 29 30 31 33 34 36 37 35 33 33 33 34 35 34 34 33
85 86 88 81 80 77 74 70 67 67 70 72 72 71 71 71 50 43 36 30 28 28 28 29 30 31 32 33 35 36 38 40 41 41 40 38 37 36 37 38 38 37 36
88 88 89 85 84 82 78 75 72 70 68 68 68 67 64 47 38 35 32 30 30 30 29 31 33 34 35 35 37 39 41 43 46 46 46 45 42 41 42 42 42 41 41
86 89 89 91 88 87 84 79 77 76 75 73 70 63 52 41 37 35 33 31 30 29 31 33 35 36 36 37 38 40 41 44 48 50 50 49 47 46 45 45 46 46 47

GFSMW_prec_cthk_078.txt.gz
RH
64 57 51 47 44 44 47 48 49 48 48 48 46 45 42 41 42 43 44 45 44 41 42 46 49 52 55 54 54 52 52 48 48 47 43 43 45 49 56 67 72 73 74
64 60 53 48 45 42 40 40 41 39 39 38 38 40 41 41 40 42 43 46 46 48 51 50 49 50 44 40 41 45 41 36 35 41 45 42 43 46 52 59 63 60 63
58 60 55 51 44 40 38 37 36 34 33 32 34 36 35 34 33 33 35 36 37 39 38 36 36 38 38 36 35 34 32 31 33 40 46 47 49 48 51 55 59 54 56
56 56 56 54 47 40 37 36 34 33 33 32 31 30 29 28 28 28 30 31 30 29 28 28 28 28 28 29 29 30 32 34 37 40 40 43 44 47 47 49 48 50 51
49 47 48 48 46 46 45 41 38 37 34 32 30 29 28 27 26 26 26 26 26 26 25 25 24 24 27 29 30 34 37 39 36 34 36 41 43 45 45 42 43 46 45
51 50 51 50 46 44 44 44 42 40 37 35 32 30 27 25 24 23 23 23 23 23 24 25 22 23 24 27 31 31 32 31 34 36 39 42 40 42 39 39 38 40 40
49 48 50 54 52 50 47 46 46 42 40 37 34 31 29 27 25 24 25 24 24 24 24 21 20 21 22 25 29 31 33 35 36 39 41 38 38 34 36 40 40 39 39
38 42 49 55 57 55 53 51 48 46 42 38 36 34 32 31 29 28 28 27 26 23 21 21 21 23 25 27 30 33 36 39 41 41 39 37 34 32 35 36 40 39 44
35 40 46 53 55 56 55 52 49 47 43 42 40 37 34 33 32 31 29 24 24 24 24 25 24 25 25 27 30 33 38 43 43 41 36 34 32 33 37 40 41 43 45
36 40 43 48 53 56 53 50 48 49 47 43 40 38 35 34 33 31 28 29 29 28 28 28 28 29 30 31 32 33 35 35 31 29 29 28 30 36 39 40 41 42 47
41 45 48 51 54 55 52 49 48 48 48 44 40 37 35 33 30 29 29 29 29 30 30 30 30 29 30 31 32 30 26 26 26 26 28 33 37 40 42 43 44 47 47
47 51 52 55 54 51 48 49 48 48 48 45 42 36 33 31 31 31 31 32 32 31 28 26 25 25 25 25 25 26 27 28 30 34 38 40 41 43 45 46 46 49 51
52 53 53 55 55 53 50 49 49 48 48 46 42 39 37 36 36 36 36 35 33 32 30 29 29 28 29 30 32 33 33 36 39 41 41 42 44 46 46 48 50 52 57
54 56 56 60 58 59 58 54 54 52 50 47 45 44 43 42 41 40 38 35 36 37 37 35 36 36 35 36 36 38 39 40 43 44 44 46 46 48 49 50 52 54 54
56 55 56 59 65 66 65 61 60 58 55 53 52 51 48 45 43 40 39 43 45 45 43 42 41 41 40 41 42 43 44 46 45 41 40 42 40 37 34 34 33 33 33
65 56 55 58 59 61 64 64 64 63 62 63 62 59 54 51 46 44 47 49 50 49 48 47 46 45 45 46 47 48 47 38 34 33 32 32 30 27 26 25 23 21 19
62 58 56 55 58 63 64 63 65 66 66 65 62 57 54 52 48 49 51 52 52 51 51 50 50 50 50 50 46 37 24 18 17 17 18 17 16 16 17 17 18 18 18
64 61 60 60 62 68 69 68 65 62 63 62 62 60 53 51 50 51 52 55 55 55 54 54 54 49 42 35 25 18 17 16 17 18 18 18 18 18 19 20 21 21 22
64 63 62 63 69 69 66 65 63 62 62 65 67 62 56 54 54 56 57 59 61 60 58 52 46 38 28 22 19 17 18 18 19 20 21 21 21 21 22 23 23 24 24
59 63 65 68 73 77 67 64 65 65 65 67 67 66 67 62 60 59 62 65 65 62 51 44 35 25 22 20 19 19 20 21 22 23 24 25 26 27 27 27 27 26 26
59 56 56 62 68 68 71 70 67 68 69 68 67 69 70 69 66 64 66 67 64 52 41 32 27 24 22 22 21 22 23 24 25 27 30 32 33 32 31 30 30 29 29
55 62 69 72 72 72 72 72 72 72 71 69 69 68 68 70 69 69 69 63 51 43 34 29 27 25 25 24 24 26 27 29 31 34 36 38 38 37 36 35 34 34 35
71 75 78 80 77 79 77 74 71 71 71 70 70 72 74 74 73 73 65 50 41 36 32 30 28 26 25 27 29 31 33 35 37 40 42 43 43 42 42 41 39 41 41
82 81 83 83 82 81 81 77 75 72 71 72 74 75 76 75 74 72 51 43 40 36 29 28 27 28 29 32 34 35 36 38 40 43 44 45 46 47 47 46 46 46 45
85 85 85 86 87 85 85 83 78 77 73 71 71 72 72 71 71 52 40 36 33 29 28 29 29 30 32 34 35 37 38 40 42 43 45 47 48 49 50 49 49 50 51
89 88 88 88 90 90 89 88 86 81 79 78 76 75 71 68 58 42 39 35 33 32 30 29 29 30 33 35 37 38 39 43 43 43 45 46 48 50 51 51 52 53 52

GFSMW_prec_cthk_081.txt.gz
RH
66 64 63 64 65 68 69 69 68 70 68 65 60 57 53 51 48 46 47 47 45 47 46 47 51 53 56 56 52 49 47 41 41 43 37 31 33 37 39 40 44 49 55
67 64 62 58 59 59 59 57 58 59 59 57 54 51 49 46 44 44 43 42 43 46 50 51 52 55 57 55 44 42 39 37 34 33 32 35 34 37 39 42 44 50 53
68 63 63 60 56 54 52 49 48 50 49 46 43 40 37 34 34 34 35 35 35 36 36 36 36 37 35 33 34 34 33 32 29 29 35 41 39 36 37 37 37 43 49
71 67 63 63 60 55 50 46 41 41 40 38 37 35 34 33 31 30 31 31 31 31 31 31 29 28 27 27 26 30 29 30 30 33 33 38 39 39 41 44 42 43 41
71 69 67 63 60 58 55 50 46 40 37 35 34 32 31 30 29 28 28 28 27 28 28 27 26 25 23 25 28 32 30 32 33 36 32 31 33 38 41 40 44 39 40
67 65 64 62 59 56 54 51 49 48 46 43 39 35 33 31 30 28 26 26 25 24 24 24 25 25 25 26 28 29 31 34 32 31 32 37 38 40 42 40 38 36 39
60 59 59 54 54 53 53 53 52 51 49 46 43 40 38 37 34 31 28 27 26 25 24 24 24 24 24 25 22 24 30 34 33 34 36 38 42 44 42 39 34 35 33
52 56 54 53 52 50 52 52 51 49 49 47 46 43 38 37 36 34 32 30 28 27 27 27 27 26 23 22 24 28 31 34 37 43 41 44 44 41 37 35 33 37 41
39 42 48 50 51 50 52 55 57 55 52 49 46 45 42 40 39 37 36 34 33 31 31 30 27 25 26 27 28 30 34 35 37 38 40 41 35 32 33 34 37 41 44
31 33 38 43 48 48 50 55 58 56 54 50 48 47 44 42 41 41 39 38 35 33 32 29 27 28 29 30 31 32 33 34 36 38 35 30 30 29 30 36 40 41 42
32 34 37 39 44 50 53 54 53 53 52 50 47 46 47 46 42 39 38 35 33 31 29 26 27 28 31 31 30 30 31 32 29 27 27 27 29 34 39 41 42 43 46
37 40 42 45 47 49 51 52 51 53 52 51 49 47 46 47 45 39 35 33 30 29 28 28 28 28 27 26 26 25 24 25 28 30 31 35 39 41 42 43 44 45 46
43 43 48 52 53 53 53 51 49 48 49 49 47 48 48 48 47 42 37 33 32 31 32 32 31 29 29 29 28 28 29 32 34 37 39 41 43 42 43 44 45 46 46
51 50 54 54 54 53 52 54 55 55 56 55 53 52 50 48 47 44 41 36 36 36 37 36 35 35 35 35 35 35 36 38 40 41 43 44 43 42 40 38 36 34 33
61 61 56 55 56 55 58 60 59 60 59 58 58 57 57 53 49 44 42 40 39 41 44 45 43 42 41 39 40 42 44 45 45 46 40 37 34 32 31 29 29 28 27
61 63 61 58 51 55 59 63 67 67 67 66 62 61 62 60 56 52 49 47 47 49 52 50 51 48 45 45 46 47 48 49 42 35 30 28 26 24 20 19 17 16 17
64 65 64 60 56 55 58 61 67 69 69 68 68 66 65 64 61 59 59 57 56 57 59 55 51 50 51 52 52 52 41 28 22 19 18 18 18 19 19 19 19 19 20
64 68 65 63 62 59 58 62 65 70 68 66 67 67 69 67 62 58 59 62 59 56 56 55 56 54 51 47 40 31 22 19 18 19 19 20 21 21 21 22 23 24 24
61 65 64 66 66 67 67 69 72 72 73 73 70 68 66 66 63 59 57 56 57 58 59 60 55 49 43 38 28 23 21 19 19 20 22 22 24 24 27 28 28 27 27
58 60 62 63 69 70 74 76 77 73 70 69 70 72 70 72 72 65 63 64 64 64 62 55 50 44 34 27 24 21 21 21 22 23 25 26 29 31 33 33 32 31 31
50 56 58 63 67 68 67 74 76 77 72 72 73 72 72 72 74 75 69 67 67 67 58 49 44 35 29 26 23 23 24 24 25 27 30 34 36 37 37 37 36 36 36
54 57 61 61 63 61 67 71 72 73 76 75 75 74 75 73 74 75 73 72 73 65 52 43 36 31 29 26 26 26 25 27 30 34 38 40 41 41 41 41 42 42 42
57 59 61 69 72 75 76 78 76 77 78 77 77 76 75 74 73 74 73 74 66 54 45 39 34 31 30 29 27 27 29 33 37 39 41 43 44 44 44 45 46 47 47
63 65 76 81 82 83 83 84 83 81 78 76 75 77 77 78 79 77 78 73 55 46 40 37 34 32 29 28 28 30 33 36 38 41 42 45 46 45 46 47 48 49 49
79 86 85 85 90 86 85 85 88 86 82 80 77 75 76 79 78 78 76 56 47 43 39 36 31 29 30 31 32 33 35 37 40 41 43 46 46 45 46 47 49 50 51
87 89 89 88 87 90 91 91 91 90 88 85 83 82 79 76 74 73 63 45 40 38 35 32 30 29 29 30 30 32 35 38 39 41 44 46 45 44 45 46 48 50 50

GFSMW_prec_cthk_084.txt.gz
RH
72 66 65 67 65 66 72 75 76 78 72 65 63 60 58 58 57 55 52 50 47 46 45 44 45 48 52 54 54 57 56 54 45 45 39 38 32 28 28 32 36 39 40
70 69 66 65 68 70 73 78 79 80 76 73 68 64 63 62 59 56 52 50 48 47 44 43 45 50 50 48 49 49 47 41 39 38 38 33 30 32 34 35 38 39 41
71 69 68 65 64 67 69 69 69 75 74 71 69 63 59 54 51 48 44 42 40 38 36 36 38 39 38 38 40 38 35 36 36 33 38 36 36 36 38 36 32 34 38
75 70 70 66 65 62 62 60 59 59 62 65 66 61 55 53 48 43 40 37 33 32 32 32 32 32 32 31 30 31 31 33 34 36 34 34 39 39 38 33 33 37 40
74 71 69 67 67 64 62 61 59 58 57 57 55 51 48 45 39 36 33 31 30 29 29 29 29 29 29 28 27 28 30 34 35 37 33 33 36 35 39 39 42 41 40
79 77 74 70 67 64 64 62 60 58 54 51 46 43 40 38 36 34 32 30 29 28 27 27 27 26 26 26 27 28 29 32 35 33 36 36 38 37 38 40 47 42 44
82 80 73 71 70 67 66 67 67 64 60 55 49 45 43 39 37 35 32 30 29 29 30 32 30 27 26 25 24 24 26 32 32 37 37 40 40 39 42 45 49 42 41
68 70 78 74 72 69 66 62 60 58 55 53 53 54 53 49 48 45 39 37 36 36 34 31 29 28 27 26 26 26 26 27 29 38 40 40 44 45 49 48 42 42 39
48 57 66 70 65 63 64 60 61 62 61 59 57 54 52 49 46 43 41 38 37 37 36 35 34 33 32 30 30 29 28 33 33 37 41 43 41 42 42 38 35 34 40
39 41 46 54 62 62 59 58 59 58 58 58 57 54 51 48 46 44 44 43 41 39 38 37 37 36 34 32 31 28 30 33 35 37 37 37 39 36 35 32 32 38 41
36 34 36 39 44 52 57 62 61 57 56 55 56 55 53 51 50 48 47 46 45 42 38 36 35 33 31 30 28 29 32 33 33 33 35 33 32 31 32 36 39 42 42
36 35 35 35 36 39 45 46 51 58 57 54 52 50 50 50 49 47 46 45 46 44 38 35 33 30 27 27 27 29 29 30 29 28 28 30 33 36 39 41 41 42 42
43 41 39 38 40 41 43 46 48 48 47 48 49 49 49 49 49 48 47 46 46 45 43 37 32 31 29 30 31 30 30 30 30 31 34 38 40 41 42 42 42 42 41
47 47 45 46 46 49 51 51 50 48 48 48 48 48 49 51 50 50 49 49 48 47 44 43 38 35 34 35 36 36 35 35 37 39 42 43 43 43 41 35 34 32 31
50 50 49 48 47 50 51 50 50 52 52 53 54 54 55 56 54 53 52 51 49 47 46 44 43 42 42 43 42 41 41 44 43 45 46 44 41 35 32 30 29 28 28
52 55 55 55 54 53 51 53 56 56 57 58 58 59 58 59 60 59 56 55 52 50 50 48 49 50 51 52 52 52 50 49 51 49 41 33 31 28 26 23 21 19 18
55 58 61 61 60 57 56 52 53 55 57 61 64 65 64 65 66 65 62 59 60 59 59 59 60 60 58 60 60 54 55 50 44 35 27 22 20 20 20 20 21 22 23
53 56 61 65 65 63 63 60 58 55 58 61 63 67 72 66 67 71 68 64 64 66 66 60 59 62 62 61 59 53 40 29 24 21 20 21 21 21 22 23 25 27 28
55 57 62 68 69 70 67 67 66 67 67 68 67 68 72 72 74 69 68 65 63 65 67 65 62 59 56 50 45 39 31 24 22 21 21 22 23 24 25 29 31 31 32
50 55 60 65 67 67 67 69 71 74 75 75 74 73 73 77 77 76 75 73 69 67 66 65 61 59 51 47 41 31 25 24 22 22 23 24 26 29 32 35 36 36 35
43 49 57 61 64 63 65 72 76 77 76 77 76 77 77 80 79 76 77 79 76 74 72 66 60 56 48 40 33 28 26 23 24 26 27 28 32 36 39 39 39 39 39
43 46 53 58 61 64 69 69 66 63 70 75 79 82 83 81 81 79 80 84 82 78 74 65 58 50 40 35 31 28 25 26 28 29 30 34 39 41 42 43 42 42 43
48 50 55 59 63 65 62 62 69 75 77 79 81 82 82 81 79 78 79 83 81 80 73 59 49 42 38 34 32 29 29 29 29 31 35 39 41 43 45 45 45 45 46
56 58 61 63 64 71 76 77 82 87 86 84 82 80 79 81 82 82 82 81 81 80 61 49 44 41 37 35 33 32 31 29 31 34 37 40 42 43 45 46 45 46 46
65 65 66 67 77 83 84 87 84 85 87 86 84 83 80 79 81 84 82 82 81 65 55 48 43 40 38 37 33 30 30 32 34 36 38 40 42 42 45 46 46 46 46
82 85 90 91 94 90 95 91 91 91 93 92 88 86 85 84 83 79 78 79 66 51 45 42 39 36 33 30 29 29 30 31 32 33 36 38 40 42 45 48 48 47 48

GFSMW_prec_cthk_090.txt.gz
RH
45 43 46 52 56 60 60 62 62 63 66 64 64 73 70 67 66 67 68 66 62 63 62 57 59 57 55 52 51 50 50 47 48 48 45 42 37 33 34 36 46 44 45
48 40 43 46 50 55 63 65 64 62 64 65 63 69 78 78 71 69 71 69 67 66 67 67 64 62 60 57 56 55 50 48 49 48 48 46 35 35 36 38 42 45 42
47 44 41 43 46 52 56 66 68 72 65 63 63 77 82 89 86 83 77 77 78 73 65 62 60 58 55 52 49 46 43 42 42 45 47 45 44 41 42 41 37 38 39
38 44 43 40 42 48 52 61 70 72 74 69 68 79 78 78 82 81 83 84 75 62 56 53 54 52 48 44 42 42 41 41 41 43 45 44 49 49 50 45 41 38 37
35 41 42 39 38 41 49 60 67 76 76 78 76 74 73 74 75 76 79 81 77 70 63 52 48 44 41 38 36 35 36 39 40 40 41 43 44 49 53 52 42 44 44
33 38 48 41 39 38 43 51 67 74 78 80 75 76 76 73 73 78 80 78 68 66 60 48 45 43 38 36 34 32 32 32 34 37 40 44 48 45 49 47 50 41 48
35 37 48 43 42 43 48 52 59 68 74 77 72 68 75 68 67 66 61 58 54 50 50 49 48 45 41 37 36 36 33 32 33 36 41 41 44 48 48 44 55 51 51
35 36 43 47 44 46 51 58 62 65 69 70 66 65 66 67 63 60 55 55 54 53 52 51 47 45 44 41 41 39 36 36 36 39 40 41 44 44 44 48 47 58 49
37 40 44 49 50 55 60 66 67 65 70 70 68 67 66 66 64 66 65 63 63 64 58 55 51 49 47 48 46 46 43 42 42 41 44 45 49 43 44 43 46 48 51
33 35 38 48 53 60 71 75 75 75 73 74 74 73 72 75 75 72 69 68 63 61 58 56 55 53 51 49 47 46 44 42 40 40 44 42 46 44 41 44 48 48 42
32 33 36 43 55 64 66 74 82 83 77 76 77 77 76 73 71 67 65 63 61 61 60 57 53 50 48 47 46 44 44 42 40 38 40 42 41 39 40 43 43 40 37
34 33 34 39 43 48 56 57 76 90 88 86 83 81 79 77 71 68 67 65 61 56 54 52 51 50 49 48 46 45 44 44 41 38 36 35 36 37 38 36 36 38 43
35 34 34 35 37 39 41 43 52 66 75 74 68 70 72 72 71 71 70 67 64 61 56 51 49 49 47 46 45 44 44 45 43 42 37 33 32 33 34 38 43 47 49
41 40 38 37 39 39 39 42 45 48 49 49 54 62 65 63 62 58 56 54 53 51 51 51 49 47 46 45 45 44 44 44 43 42 39 38 37 38 42 45 50 52 42
44 42 43 42 41 42 43 44 46 47 48 49 49 51 52 51 49 49 48 48 48 47 46 46 48 49 48 46 46 47 46 46 46 46 44 44 45 47 50 54 49 38 36
45 44 41 42 43 47 48 48 48 48 50 51 51 50 51 51 51 52 50 50 50 51 51 51 51 53 53 53 52 51 54 52 52 53 53 52 56 59 59 47 39 38 32
43 41 40 39 44 46 50 52 52 54 54 50 49 50 52 53 53 53 53 54 56 56 56 56 57 57 58 60 60 60 61 62 61 61 61 63 62 58 47 40 29 25 23
39 40 41 44 46 49 52 54 57 57 56 56 55 55 56 58 57 57 56 55 57 59 61 63 65 64 62 64 66 65 66 66 66 66 67 66 54 37 28 28 29 25 26
40 38 41 50 50 51 56 60 62 63 62 60 59 60 62 62 64 65 67 64 62 63 66 69 70 69 69 67 68 70 71 71 64 58 47 39 34 32 33 30 27 28 29
44 41 45 50 55 58 62 65 68 68 65 64 66 65 65 65 67 68 67 69 70 71 73 75 75 77 75 71 67 63 63 58 48 42 38 36 36 35 31 29 29 30 34
45 44 47 51 56 64 67 68 73 74 70 68 67 68 68 69 69 68 70 73 75 77 81 81 83 83 80 72 67 59 56 52 49 44 42 39 36 33 31 29 31 35 38
48 44 44 49 55 61 65 69 72 70 67 69 69 67 66 68 64 66 70 78 79 81 82 82 85 86 82 73 67 62 57 54 49 45 40 38 36 32 30 32 35 40 42
47 48 47 48 53 61 66 66 67 67 70 71 68 68 70 69 69 71 76 79 83 84 85 85 89 89 81 72 67 62 58 53 48 42 39 37 33 32 34 36 40 42 44
56 53 52 53 56 61 64 63 66 70 71 71 75 76 78 81 79 80 81 82 82 83 85 88 91 89 77 66 61 57 52 47 42 39 37 35 34 33 37 39 41 43 44
65 64 63 61 60 62 65 67 70 73 75 79 85 83 83 86 84 82 82 84 85 84 86 87 90 88 70 61 58 53 47 43 40 38 36 35 37 37 34 36 39 40 41
77 75 74 74 71 71 72 74 75 78 81 87 92 88 88 89 89 89 87 87 88 87 85 85 89 84 61 54 51 48 46 43 42 40 39 38 35 33 34 36 36 37 37

GFSMW_prec_cthk_093.txt.gz
RH
54 52 50 51 59 60 61 58 57 62 64 62 61 59 59 63 65 72 72 68 62 56 56 54 57 60 59 59 59 57 57 55 54 49 47 46 43 41 35 36 40 46 46
51 49 52 50 50 56 57 56 58 59 59 59 59 62 65 69 71 77 80 83 78 72 71 68 67 67 68 64 63 59 58 55 53 49 48 43 42 36 37 39 39 47 49
45 45 47 46 45 45 48 51 52 56 61 62 64 64 70 74 80 82 88 91 86 90 90 91 91 79 67 61 59 56 53 50 48 46 47 47 45 42 45 48 48 51 48
38 39 42 43 40 39 43 46 49 53 56 63 70 75 74 76 79 82 89 88 83 83 84 82 83 78 62 58 55 54 51 47 44 47 45 47 47 49 50 49 50 50 50
39 35 35 38 38 41 41 43 47 52 55 58 64 74 80 81 80 82 83 80 79 77 78 81 82 77 68 55 49 47 46 47 43 43 46 48 49 49 51 52 54 52 53
35 36 36 35 37 37 38 41 43 48 52 59 68 74 81 85 83 83 82 78 78 75 75 82 78 65 60 50 46 44 41 42 41 40 44 46 47 45 50 57 51 54 56
37 34 34 34 38 39 39 40 42 44 49 55 65 71 78 84 83 81 83 78 79 78 70 60 58 54 51 49 50 48 45 43 42 39 40 43 44 47 51 50 53 58 51
36 38 34 34 38 40 42 43 41 44 48 55 59 65 77 81 81 86 78 78 71 67 61 56 55 60 62 60 53 48 44 44 44 43 44 42 44 46 46 49 51 58 50
35 36 38 37 39 42 44 44 43 42 45 51 57 62 69 72 75 81 73 68 66 64 63 64 69 65 63 60 53 49 48 48 48 48 48 46 45 45 47 46 52 52 53
33 35 39 41 41 42 48 49 49 49 50 52 58 62 67 69 70 71 70 69 71 71 74 75 72 67 60 57 53 51 51 50 47 45 44 46 47 47 43 47 49 50 48
33 34 37 39 39 39 44 49 54 56 56 60 65 70 74 72 73 77 77 76 75 74 74 71 67 63 60 58 54 52 50 47 46 44 43 45 48 45 44 47 48 50 47
32 34 33 32 33 38 44 51 57 64 69 70 73 83 85 78 77 78 77 77 76 75 73 70 66 60 55 52 50 48 47 46 45 44 43 42 46 46 44 45 43 44 41
34 34 34 33 34 36 40 47 52 52 58 59 72 87 88 89 91 85 87 86 82 79 75 71 67 65 63 59 53 49 47 45 44 44 43 42 42 42 42 42 41 40 41
38 37 37 36 35 37 39 40 42 47 50 54 59 68 75 84 85 79 73 70 71 69 62 58 55 55 53 51 49 48 49 50 47 43 42 41 41 41 42 44 42 45 48
43 40 40 39 38 39 39 41 41 43 45 48 52 52 51 54 56 56 57 57 55 52 50 49 48 48 46 45 45 46 48 49 50 49 48 45 45 46 47 48 50 54 54
51 49 46 44 42 39 40 41 43 44 45 46 48 49 52 53 54 55 55 53 52 51 49 50 50 50 49 50 51 52 54 56 57 54 55 54 53 57 57 57 59 59 45
48 46 46 45 44 42 42 42 44 49 51 52 54 54 54 53 54 54 55 54 53 52 52 53 54 55 56 57 57 58 59 60 61 63 62 65 65 64 64 66 59 44 42
46 44 43 42 42 42 42 45 48 51 54 58 59 58 60 60 58 58 59 60 60 60 60 58 57 59 60 61 61 63 64 65 65 68 70 70 70 69 66 55 39 35 31
43 40 40 38 41 43 49 51 52 57 60 63 63 64 64 63 64 65 64 65 67 67 67 67 69 68 67 67 68 68 69 72 70 73 75 73 68 60 43 38 37 35 37
46 45 43 40 40 45 55 58 56 60 67 69 69 69 69 69 71 69 67 66 68 69 69 71 73 73 75 76 74 76 76 75 72 65 57 52 48 43 39 39 40 40 36
45 44 44 44 43 49 59 65 67 69 73 75 75 74 72 72 73 71 69 69 67 66 69 77 79 78 81 84 82 75 69 65 64 58 53 45 43 41 40 42 40 39 37
46 44 46 47 45 50 60 70 76 77 79 79 76 73 76 75 73 69 69 70 67 69 77 81 83 84 86 83 80 76 70 64 63 60 54 48 43 44 45 40 39 37 37
50 48 48 49 49 51 59 68 72 77 79 75 73 77 77 73 72 73 74 73 73 75 78 80 83 87 88 88 83 75 70 65 65 59 53 53 47 45 42 40 36 37 42
61 54 52 53 55 59 66 72 74 74 71 71 74 74 73 77 79 81 85 84 82 83 83 83 83 85 90 89 79 72 65 62 65 59 56 51 45 41 39 39 40 39 41
72 67 63 60 60 63 67 71 71 70 71 72 73 77 79 84 88 87 88 87 84 83 85 86 85 86 88 81 70 66 61 56 54 48 43 42 41 40 39 35 37 44 41
83 79 75 73 72 72 71 72 73 74 75 77 77 80 85 90 90 90 92 90 91 90 89 88 89 89 90 79 64 61 58 57 52 49 44 42 41 40 40 43 42 38 38

GFSMW_prec_cthk_099.txt.gz
RH
57 61 73 76 77 78 75 77 79 82 85 84 71 70 66 69 68 69 64 64 63 61 63 61 58 56 57 62 61 59 57 58 59 57 56 58 55 53 51 47 44 43 41
54 52 57 65 70 75 75 73 69 69 70 71 74 73 71 71 68 69 68 66 65 65 68 71 72 73 72 77 75 77 67 67 67 60 62 61 56 56 51 49 46 46 45
50 52 50 50 54 58 68 71 71 69 73 73 64 69 69 66 67 71 69 65 62 64 67 75 86 83 87 83 81 81 80 82 79 73 70 66 62 60 56 57 57 57 57
52 49 49 49 50 52 53 56 64 71 73 74 67 64 65 64 64 69 71 72 69 68 70 73 80 86 88 87 90 84 85 85 84 73 68 66 63 62 60 60 59 59 60
56 55 54 51 50 51 52 55 57 61 67 74 73 72 70 65 69 67 68 76 78 79 80 79 83 85 87 88 88 89 82 85 79 65 61 58 61 60 61 62 61 62 60
52 50 51 48 47 49 49 50 54 58 63 67 65 66 68 68 65 62 67 73 79 85 87 91 95 93 91 82 87 87 74 75 77 61 65 68 66 63 58 59 62 62 62
51 49 50 46 45 45 49 50 53 55 60 61 61 62 63 65 66 63 66 67 72 80 89 96 94 91 87 80 77 70 65 62 63 67 67 66 62 60 60 57 62 63 60
42 43 45 45 44 43 43 50 52 51 53 56 58 57 54 55 57 62 67 69 75 77 77 83 85 95 79 77 72 74 71 68 66 67 65 67 65 60 58 60 64 63 64
41 40 39 37 39 42 43 43 42 41 42 46 50 52 52 52 55 56 55 62 67 77 79 85 76 81 88 74 76 72 73 73 71 69 69 64 61 59 58 59 61 66 68
39 38 36 36 37 37 36 39 42 45 45 43 44 46 47 50 51 52 56 61 65 74 76 67 65 66 62 58 58 66 67 70 73 69 68 64 62 59 55 58 59 64 63
37 36 36 37 37 40 42 41 39 41 43 45 46 45 43 46 50 55 58 60 62 70 69 62 55 55 58 60 63 71 78 78 74 75 74 68 65 58 55 55 58 59 58
39 39 37 38 39 40 41 44 43 43 43 42 46 47 50 51 53 55 57 56 54 56 60 58 60 63 68 74 77 82 80 78 73 73 69 68 64 60 56 57 56 55 60
41 37 36 33 36 46 45 46 45 45 42 42 45 48 52 54 56 57 55 56 60 61 63 69 75 74 78 80 78 73 72 69 64 60 59 59 63 64 61 60 58 56 57
45 41 41 37 35 36 37 37 38 39 41 43 46 48 54 56 57 59 60 61 65 64 76 80 84 82 80 76 74 65 64 58 56 55 53 54 55 57 58 58 57 54 53
51 46 44 42 39 38 37 38 38 39 41 42 44 48 53 57 60 63 63 62 65 63 67 75 75 75 75 73 67 59 53 49 48 47 48 51 51 53 54 56 57 56 55
52 49 46 43 43 42 40 39 42 41 40 41 44 48 51 54 56 59 64 63 56 53 54 56 56 56 54 53 50 49 48 48 49 51 55 55 55 56 59 60 59 60 61
59 56 52 50 46 46 44 41 38 39 40 41 43 46 50 55 58 58 59 57 56 54 53 53 53 51 51 51 53 54 54 55 56 56 57 59 61 61 62 65 66 68 69
62 60 58 57 57 53 50 46 42 40 41 43 45 46 48 50 52 54 56 58 57 55 54 54 54 53 53 55 56 57 58 62 62 63 64 65 65 66 70 72 72 74 75
67 65 62 57 55 53 51 46 46 46 47 50 53 53 52 54 57 59 58 59 59 59 60 59 57 57 58 59 60 61 62 64 66 68 70 73 74 76 78 78 78 80 79
64 62 58 52 51 52 50 47 45 47 50 53 56 61 63 61 59 61 64 64 65 66 65 64 62 62 64 64 63 61 63 70 72 73 76 79 82 83 81 78 75 69 57
61 59 56 50 48 48 50 50 48 48 53 59 64 66 66 64 65 66 68 71 72 71 70 68 68 66 65 65 64 64 69 73 76 77 79 76 69 65 64 65 60 56 47
59 55 54 51 48 48 47 48 49 53 60 66 69 72 74 73 73 75 76 76 73 74 74 72 70 70 69 68 69 70 72 72 71 69 67 68 66 60 57 55 55 54 55
64 58 55 53 51 50 50 51 53 57 62 68 73 79 83 85 87 86 85 82 80 79 79 77 76 78 75 76 76 77 77 74 72 69 67 65 63 64 57 54 47 47 49
72 66 60 59 57 55 55 54 56 62 67 71 75 80 88 91 91 89 85 82 82 82 79 82 82 82 82 80 79 80 80 76 72 66 62 64 70 61 62 60 56 51 56
81 77 70 66 63 62 63 63 63 66 69 74 78 81 86 88 86 85 85 84 81 78 83 87 88 87 86 83 82 82 84 80 71 68 61 72 78 70 65 65 60 60 61
85 84 81 77 73 71 70 72 75 77 77 79 80 80 79 80 80 79 78 79 82 84 89 92 91 90 88 86 85 85 87 81 73 67 60 69 75 65 58 55 51 50 50

GFSMW_prec_cthk_105.txt.gz
RH
84 90 91 93 89 84 84 81 78 76 76 80 89 81 75 71 68 64 62 65 70 65 65 67 69 66 67 66 64 63 66 68 74 80 79 79 77 75 64 50 50 46 45
78 81 86 92 88 88 88 81 82 86 83 83 91 96 85 81 78 74 70 69 73 70 75 76 74 72 71 69 70 65 67 76 85 90 86 83 77 78 77 69 58 52 52
69 73 79 83 89 88 91 89 89 87 88 89 88 89 85 84 83 77 86 83 84 85 83 77 75 72 73 72 74 72 83 91 94 93 91 84 83 79 77 67 68 63 60
66 67 70 75 77 81 86 91 93 93 90 88 86 89 89 88 85 87 89 96 96 92 88 75 75 82 85 90 94 93 94 94 92 87 81 84 81 78 74 70 70 72 73
66 67 68 68 71 74 81 81 80 91 88 82 87 95 96 95 96 88 92 97 88 86 83 80 78 79 82 93 94 96 98 93 83 80 78 73 60 65 69 68 72 72 73
71 68 67 66 66 65 65 69 70 77 81 80 88 90 93 85 87 87 87 93 86 81 77 77 79 84 85 89 92 92 92 93 94 82 70 56 53 54 51 57 62 60 64
72 69 66 64 64 65 64 62 60 63 68 79 77 76 75 81 84 82 80 81 84 77 73 73 74 74 74 78 85 86 85 86 85 70 58 56 58 54 49 49 54 53 58
65 70 69 67 64 61 60 60 58 58 59 61 64 68 70 72 72 71 71 73 74 74 70 71 69 69 72 74 82 81 75 74 67 64 64 60 56 52 49 47 50 55 59
61 64 71 70 66 63 62 60 57 56 57 57 57 59 61 62 65 66 65 66 67 66 65 64 65 67 68 68 74 76 71 67 65 60 60 58 55 53 52 54 57 60 64
55 57 61 58 59 64 64 62 59 57 55 56 57 56 54 55 57 58 59 59 60 60 62 64 64 66 65 68 70 70 71 65 61 55 51 55 55 54 54 58 59 63 68
53 52 52 56 51 56 62 60 59 57 55 53 52 52 51 50 53 55 56 59 59 58 58 58 60 58 63 67 68 65 63 57 53 55 54 54 56 58 61 61 65 64 63
49 51 50 50 54 55 56 56 56 55 51 48 48 48 48 49 50 51 51 49 49 53 55 60 62 64 60 55 53 55 55 53 53 56 57 58 60 63 64 64 62 61 62
53 49 49 50 51 54 57 55 55 54 51 48 46 43 42 42 43 44 47 48 50 54 61 66 62 56 52 54 57 57 55 57 61 61 63 61 62 63 61 60 59 57 56
57 54 51 48 47 49 51 51 53 54 54 52 51 49 47 44 44 46 48 51 55 55 55 55 57 58 58 57 57 54 57 59 59 58 57 58 56 53 53 54 51 49 49
57 56 54 52 47 47 44 44 44 47 50 51 51 49 46 44 44 46 48 50 51 53 55 59 59 55 55 52 49 48 50 51 49 48 45 43 43 45 47 49 50 51 51
62 58 55 55 52 51 49 46 44 42 39 39 40 42 42 43 45 47 51 56 58 60 62 61 61 57 53 49 49 48 47 44 42 41 43 45 47 51 53 53 54 55 55
71 68 65 60 58 56 53 51 48 45 43 41 42 43 44 46 48 50 50 52 55 59 60 63 57 55 53 50 50 50 47 43 43 43 45 49 51 51 51 52 54 56 58
67 68 69 71 70 69 64 56 49 46 45 44 41 42 44 47 48 49 49 50 52 57 58 57 57 55 55 55 51 48 48 48 48 50 52 53 54 54 55 58 59 62 65
71 68 69 72 71 69 65 65 59 54 50 48 46 43 42 44 45 47 48 51 54 56 54 52 56 58 56 55 53 54 54 55 54 55 56 56 56 58 60 62 65 67 70
76 73 71 68 67 65 62 59 59 56 52 49 48 46 46 48 52 52 54 55 55 56 55 58 60 60 62 61 61 60 59 59 60 59 57 59 61 62 64 66 68 71 72
82 78 73 69 65 62 59 57 55 52 53 51 49 51 54 55 59 60 59 60 63 65 68 67 66 67 66 65 66 65 68 67 64 62 63 64 66 66 65 63 60 62 64
84 81 73 67 64 62 58 57 56 53 49 52 53 58 61 61 62 64 65 67 70 71 71 72 73 72 72 72 69 68 72 70 69 68 68 64 62 59 57 56 55 51 47
82 79 78 75 66 59 55 54 54 55 56 57 59 63 65 66 70 72 75 81 81 82 83 83 80 80 80 78 77 74 74 77 77 78 72 68 64 60 57 55 55 50 46
86 83 78 74 69 64 61 56 57 58 59 65 67 68 69 69 73 78 81 84 85 87 89 88 90 90 86 83 80 78 80 83 84 82 79 72 67 61 59 54 56 59 59
85 86 85 83 79 73 69 65 63 64 66 67 71 71 71 74 77 81 83 86 87 89 93 93 90 88 84 82 78 78 83 87 88 87 84 78 69 66 62 67 69 66 66
84 85 85 83 82 82 78 76 75 75 76 77 75 74 75 77 78 80 83 88 90 92 89 87 88 86 81 81 82 80 85 91 92 91 88 85 74 64 62 67 73 64 61

GFSMW_prec_cthk_108.txt.gz
RH
91 90 93 94 98 91 93 83 79 67 61 63 63 61 60 60 62 61 64 65 67 68 66 67 67 68 71 69 68 69 63 62 64 65 71 76 79 77 73 73 69 67 62
89 91 94 96 96 94 93 90 80 68 67 64 67 71 74 77 75 73 69 66 66 68 74 75 72 73 80 77 74 72 69 69 70 80 81 86 88 86 79 76 72 65 62
81 79 86 87 94 98 93 90 84 75 71 64 66 77 80 80 82 84 79 77 75 74 82 84 80 84 84 78 75 76 74 80 90 89 89 81 80 78 79 75 73 68 64
76 80 81 81 76 77 91 91 88 83 77 70 66 76 81 78 83 89 91 82 78 84 87 89 95 93 87 79 83 86 90 90 92 89 88 81 79 80 74 65 61 57 56
71 70 73 80 78 89 80 86 91 92 89 82 78 87 85 91 90 84 86 87 84 86 87 87 89 90 91 89 92 94 95 96 91 82 83 90 79 78 64 58 58 47 47
67 67 70 74 76 82 89 89 88 87 91 97 91 87 87 92 97 90 89 86 86 86 89 88 90 93 91 86 84 82 83 89 94 84 81 83 84 64 56 57 54 53 48
71 68 67 66 68 73 77 79 80 81 86 96 89 94 91 93 90 89 87 84 86 84 87 88 90 86 84 80 78 79 81 83 82 87 79 74 64 57 53 54 52 52 48
69 72 68 66 65 64 65 68 69 71 72 76 77 81 86 94 94 92 89 89 87 84 85 87 83 78 75 74 76 75 78 78 75 77 77 64 60 59 58 50 51 54 51
63 71 71 68 66 66 67 67 66 62 61 62 63 65 76 78 82 79 81 81 78 76 78 78 74 72 70 71 73 75 73 72 68 68 62 62 60 59 52 52 52 53 54
64 64 69 73 74 72 69 69 67 64 60 57 56 60 65 71 71 69 67 66 66 67 69 67 65 64 66 70 70 68 67 64 64 64 66 63 60 53 53 53 52 55 57
52 55 58 56 69 75 74 71 69 67 65 62 61 63 65 64 64 61 60 59 61 61 64 64 65 66 67 62 61 62 61 63 59 55 52 51 52 52 54 56 57 59 59
58 54 52 52 52 57 65 71 72 69 66 64 62 61 59 59 58 56 55 56 56 57 57 61 63 63 62 64 67 65 58 53 51 51 50 53 55 59 58 60 58 59 58
60 58 55 54 49 48 51 61 67 68 65 64 61 59 56 55 53 53 53 53 51 53 56 56 58 62 67 65 58 54 53 54 54 54 54 55 56 56 53 53 53 49 49
56 58 53 52 56 55 54 52 55 59 61 63 62 60 57 53 49 47 45 44 45 47 49 53 59 68 61 56 56 58 55 53 54 54 51 48 47 44 43 41 42 44 45
66 62 59 55 52 53 57 58 56 58 60 61 60 59 56 52 49 46 44 46 48 52 53 58 56 54 54 58 55 53 52 49 48 47 45 43 41 40 41 44 47 48 50
67 68 65 62 60 57 54 52 54 56 58 57 56 57 53 50 48 46 45 46 49 51 52 53 55 57 62 60 57 52 49 48 49 46 45 43 41 44 43 48 48 47 48
69 66 65 64 63 62 60 59 56 52 49 48 46 45 44 44 45 46 46 48 49 50 53 57 63 65 63 60 57 55 51 51 49 47 47 48 48 50 48 50 50 48 51
74 72 70 69 68 67 66 64 63 61 57 53 51 48 46 46 46 47 48 49 53 54 55 59 60 63 63 61 60 57 54 53 50 49 50 53 56 54 53 53 52 53 55
74 73 72 73 73 72 70 68 66 63 60 58 55 53 53 49 49 51 50 50 52 56 56 61 62 60 61 59 61 58 55 57 55 55 55 58 59 57 56 55 58 58 59
78 75 73 73 73 71 70 70 68 65 63 61 59 56 54 54 54 54 54 57 60 59 59 62 61 60 60 62 61 60 62 63 64 64 63 63 62 60 59 61 61 62 61
92 86 78 71 70 70 69 66 64 63 61 58 59 58 58 60 61 61 63 64 63 66 68 67 63 63 65 67 66 67 66 64 66 64 64 65 65 64 63 64 65 62 58
95 93 88 80 73 71 67 64 62 59 58 56 54 54 55 57 61 63 61 65 72 72 70 72 70 70 68 72 74 74 72 70 68 69 70 68 65 66 64 60 58 54 49
91 90 88 86 83 75 70 67 62 59 58 57 55 56 61 66 67 67 69 71 72 73 74 76 78 74 75 80 82 81 78 76 74 72 75 73 68 66 65 61 56 54 50
89 88 84 80 80 79 79 74 65 61 59 59 61 65 68 71 72 71 74 76 80 82 85 87 86 85 88 90 91 88 83 80 78 77 80 81 76 72 65 59 58 54 51
83 83 86 84 83 81 77 72 69 66 65 65 67 71 74 77 80 80 80 82 84 88 89 89 90 92 94 95 93 89 84 80 76 79 82 84 85 76 68 62 60 61 60
79 79 81 84 83 82 82 82 76 74 73 76 78 79 80 79 79 81 83 85 87 90 91 93 94 95 96 93 88 86 80 80 83 82 84 87 89 84 75 66 60 65 65

GFSMW_prec_cthk_111.txt.gz
RH
91 83 82 84 86 88 99 93 88 81 62 48 43 42 42 44 51 51 51 51 54 58 58 61 67 65 64 66 69 68 66 65 64 66 68 71 68 72 79 83 78 74 64
87 90 88 91 90 92 96 95 91 89 71 58 50 46 46 48 51 53 54 59 63 64 67 70 73 74 73 71 75 76 74 73 72 74 77 78 80 87 76 77 70 63 58
81 97 93 95 93 90 93 97 96 93 83 75 69 66 62 63 63 62 64 63 65 66 70 75 74 76 80 83 84 83 76 76 80 80 83 86 77 71 73 72 71 66 61
83 82 88 88 88 93 92 94 89 91 84 96 78 73 71 71 67 72 76 79 81 80 81 84 79 80 82 84 91 90 83 81 87 86 86 80 78 74 72 73 70 61 53
80 83 84 86 88 84 84 83 92 95 94 89 86 83 80 75 72 74 82 87 88 89 85 84 79 79 82 87 87 87 95 98 85 86 84 80 76 77 78 73 69 58 53
80 82 83 83 87 84 82 88 90 93 94 95 90 80 74 74 74 76 77 83 88 90 90 89 84 85 88 87 88 93 91 91 94 85 81 78 73 77 76 73 58 54 55
74 72 70 76 78 84 83 84 84 86 87 85 80 80 79 78 74 72 75 81 83 88 90 86 86 89 87 89 93 92 90 83 82 81 78 76 75 73 72 58 56 57 54
72 70 71 72 76 80 76 75 78 86 86 92 91 83 80 77 75 85 82 83 88 92 86 89 89 87 86 85 86 90 86 76 76 76 78 78 75 69 58 56 57 56 51
70 77 76 74 73 71 75 77 80 85 91 88 86 90 93 91 93 96 91 88 85 89 89 92 86 89 87 84 85 80 79 75 75 73 73 71 68 64 59 57 57 53 54
70 69 70 73 73 70 69 71 75 84 82 81 77 83 83 87 83 86 84 85 88 88 87 83 81 82 78 78 73 70 70 72 71 66 64 59 56 55 56 56 52 51 54
68 74 71 73 72 71 70 71 73 75 73 69 67 67 68 72 73 76 82 80 78 73 70 70 70 70 70 70 69 69 70 66 65 57 61 59 56 51 50 49 54 56 59
67 70 70 72 68 67 76 75 75 75 73 70 66 65 67 68 69 70 73 74 72 70 70 67 66 66 66 69 70 68 65 63 66 63 58 51 50 51 50 51 53 57 53
61 61 61 59 59 61 65 76 83 78 79 75 70 71 72 71 69 68 66 67 66 64 66 66 65 65 64 65 63 63 67 66 55 51 53 50 49 49 50 48 46 46 44
58 63 63 63 63 62 57 59 70 81 82 79 77 76 73 70 67 63 59 58 56 57 60 60 58 60 62 60 68 70 60 52 53 53 49 48 46 45 45 41 39 39 41
66 64 63 62 61 63 62 60 59 67 79 80 76 74 71 68 65 63 59 55 52 51 54 53 53 57 59 70 71 55 54 53 51 49 45 45 45 44 41 39 39 41 42
70 68 65 62 62 61 61 64 68 66 68 68 67 67 66 67 66 63 59 55 52 54 54 56 62 65 72 62 55 56 57 55 51 48 46 46 44 42 42 43 45 46 45
74 70 69 68 66 64 62 61 60 61 64 66 67 66 67 67 66 62 57 53 52 53 56 60 63 59 58 62 64 63 59 58 53 49 47 43 42 43 45 48 51 52 51
81 77 72 71 69 67 65 63 63 62 60 59 57 56 56 54 53 52 52 52 53 55 56 56 55 58 63 65 66 62 58 55 53 50 48 45 48 51 53 55 54 57 54
82 82 83 79 73 72 70 69 67 64 62 60 59 58 58 55 54 54 54 54 53 54 55 56 60 64 66 65 64 60 56 55 52 51 48 54 56 57 56 57 61 59 57
85 85 84 83 81 78 75 73 71 70 67 62 59 58 57 57 55 54 53 54 54 53 53 55 57 58 59 64 64 61 58 54 54 56 57 60 61 63 62 60 63 63 62
84 82 82 80 77 74 73 74 73 70 67 66 65 63 61 62 60 59 59 60 61 61 61 61 62 63 63 65 67 61 60 62 66 63 68 66 65 67 64 64 66 68 67
88 85 85 86 80 78 75 71 70 67 65 66 63 60 60 61 63 64 67 70 69 70 69 69 70 72 72 71 70 70 68 70 73 76 75 70 71 74 69 65 63 59 58
83 82 86 85 88 87 83 75 68 65 64 63 64 63 61 62 65 69 69 68 71 72 74 75 74 74 76 78 79 78 77 78 80 83 84 81 79 68 61 61 59 58 57
81 81 83 83 83 85 87 87 82 75 70 69 68 67 64 64 66 67 69 72 74 76 77 76 76 76 76 79 84 90 93 93 93 92 90 85 78 73 68 66 63 60 59
83 81 80 83 84 84 83 83 81 80 79 78 74 72 72 71 74 78 80 81 82 82 80 81 83 86 90 93 95 97 97 97 95 92 88 78 76 75 75 72 68 64 59
82 79 77 79 82 85 84 84 84 82 80 79 82 81 82 82 81 82 85 87 86 88 90 89 91 94 93 95 98 98 98 97 93 87 77 78 80 80 83 80 76 71 66

GFSMW_prec_cthk_117.txt.gz
RH
80 77 94 93 97 91 86 88 87 84 88 89 81 74 78 70 71 55 40 35 35 36 37 36 39 41 43 45 49 51 51 57 58 59 65 61 62 67 69 72 79 75 71
78 88 94 96 95 87 85 81 82 83 92 95 88 68 68 67 62 50 45 37 38 37 38 42 45 48 49 52 55 56 57 69 62 73 74 70 66 72 71 75 72 68 68
80 90 94 93 97 91 83 82 82 84 85 98 95 84 64 63 59 49 45 38 37 38 43 49 50 53 54 57 59 63 72 69 75 81 82 74 74 72 74 78 74 71 69
79 82 84 88 94 95 88 84 83 88 90 94 99 95 85 72 62 48 45 42 43 46 49 53 55 59 61 64 65 72 83 86 89 90 86 83 84 82 82 80 77 75 70
85 91 94 95 85 90 95 87 89 86 91 86 95 96 91 78 67 53 53 53 54 54 56 56 60 61 64 67 72 77 89 92 98 97 93 87 87 84 84 79 74 71 68
86 91 88 90 84 90 92 99 95 94 91 87 88 94 91 88 83 73 65 61 61 63 63 64 66 69 72 76 72 78 83 85 93 95 93 85 83 82 83 77 74 72 69
96 95 91 84 85 88 91 94 97 96 96 91 89 91 80 81 82 76 63 57 58 64 67 73 75 76 78 78 77 76 77 80 90 92 89 89 84 76 78 75 74 74 69
97 95 95 91 93 89 91 94 95 95 95 98 95 91 92 88 84 87 84 84 77 76 80 88 86 85 83 83 82 79 76 77 84 92 94 91 91 85 84 81 77 74 63
88 91 94 93 94 90 92 94 94 91 92 92 98 97 96 94 94 91 92 90 86 84 82 81 82 81 82 85 84 81 82 83 88 95 92 90 85 81 83 78 76 64 55
82 81 83 88 91 93 90 91 92 94 93 94 92 91 91 89 92 92 88 87 86 85 87 80 81 79 83 89 88 86 86 87 96 92 91 92 80 83 80 71 62 50 54
83 83 81 81 84 83 83 87 92 92 90 94 95 94 94 92 95 92 88 93 91 88 84 81 84 84 91 91 90 88 95 90 93 92 85 79 81 79 70 60 57 56 52
75 81 81 82 83 83 84 80 85 91 89 92 94 95 97 98 94 97 97 94 92 93 90 86 89 88 93 96 96 95 93 92 92 87 77 77 77 73 63 68 64 55 48
69 75 80 84 80 78 81 85 84 84 83 86 92 97 95 95 93 91 91 91 90 85 87 90 90 87 87 88 87 88 89 87 83 82 77 78 77 74 69 61 56 49 44
58 65 74 77 78 80 81 76 79 80 81 83 86 90 87 88 88 90 88 85 84 86 84 82 81 83 81 78 80 81 83 86 83 82 76 73 76 65 58 55 48 44 42
66 64 66 69 72 74 73 73 71 73 77 81 86 89 88 86 85 87 85 80 79 76 75 78 76 75 74 72 72 74 74 76 78 80 76 73 67 68 57 50 43 41 41
68 71 69 67 65 67 70 73 74 72 68 75 83 86 87 87 88 86 84 83 80 75 71 70 70 70 70 72 73 71 68 71 72 70 73 75 70 64 54 47 45 42 40
71 69 67 69 68 64 65 64 66 68 73 72 75 81 84 83 83 86 87 83 80 75 72 70 69 69 67 71 71 72 70 71 74 78 76 73 68 61 52 47 44 43 44
71 68 67 69 69 70 70 66 65 64 64 67 74 75 77 83 85 84 84 82 81 78 75 69 67 65 66 66 69 73 76 76 76 73 74 69 63 55 50 48 47 47 48
69 72 70 69 69 68 68 68 66 66 67 67 64 63 62 64 67 70 74 75 68 63 59 61 60 61 64 66 72 70 73 71 70 67 63 62 60 55 53 49 48 49 50
66 66 70 70 69 68 68 67 66 66 66 65 66 67 64 64 65 66 65 66 66 65 67 68 68 68 71 69 67 66 67 69 68 66 65 63 60 57 54 52 52 54 55
66 67 65 64 66 67 67 65 64 64 65 64 63 63 65 64 65 66 65 65 65 67 65 65 66 67 69 66 66 68 69 70 69 68 65 61 61 59 57 57 59 60 61
59 63 65 64 64 65 64 63 64 63 61 59 57 57 58 63 64 67 71 70 68 69 68 67 67 68 69 69 71 72 73 72 71 71 70 66 68 65 65 65 66 66 66
51 57 60 64 66 66 64 62 62 63 63 62 59 58 57 57 59 63 67 68 69 73 77 75 75 78 81 77 78 76 76 79 80 78 75 76 75 76 77 73 71 68 65
36 51 53 56 60 63 64 65 64 64 66 66 65 65 65 66 66 66 67 69 71 73 76 78 81 81 83 82 83 82 82 82 80 80 84 85 84 80 79 82 78 74 68
38 43 49 54 56 59 58 58 61 63 66 70 75 77 79 78 76 77 75 71 71 73 80 84 86 87 85 84 84 83 83 85 86 84 84 87 89 89 89 87 86 81 68
41 42 45 51 54 58 61 60 60 64 71 77 78 79 79 80 81 82 81 83 83 83 84 87 90 92 92 90 88 87 87 89 89 86 90 94 94 95 93 89 84 85 76

GFSMW_prec_cthk_120.txt.gz
RH
90 88 78 74 83 88 92 97 98 99 96 91 83 84 87 85 91 78 70 54 55 50 43 34 34 34 35 35 38 42 44 46 48 53 58 63 65 67 67 67 67 72 74
79 80 81 78 84 90 87 88 96 97 93 93 86 91 97 94 84 85 75 65 57 49 40 38 37 38 37 38 42 46 49 52 55 60 68 75 67 75 71 75 74 76 68
93 88 86 87 88 79 78 89 89 97 94 91 88 86 93 98 98 96 85 73 59 48 44 43 40 40 43 46 48 51 54 58 61 68 76 78 76 77 77 76 78 81 70
91 87 91 88 80 78 88 85 84 89 91 86 87 82 82 85 95 86 94 79 55 49 48 45 43 47 50 51 53 55 60 65 71 75 84 83 82 85 80 81 83 81 76
93 93 92 89 87 83 88 86 87 83 87 89 86 83 80 77 85 97 88 78 54 49 48 49 50 53 54 54 56 60 69 73 79 80 85 92 91 93 87 87 85 81 76
92 90 93 88 89 94 96 95 88 88 86 92 87 89 87 84 83 81 80 74 55 47 47 53 54 58 62 65 66 70 78 80 79 82 88 82 89 93 93 90 83 82 76
89 85 85 92 88 88 86 84 90 94 90 97 93 97 94 89 90 91 78 64 55 51 51 56 60 63 64 68 82 77 81 86 85 82 83 82 78 86 94 93 87 88 80
99 96 97 95 88 90 89 90 96 99 98 99 96 97 94 91 90 96 90 72 66 61 58 64 68 70 77 83 82 80 85 85 84 82 81 84 81 87 91 92 92 89 80
95 98 97 99 95 90 94 97 93 94 98 99 98 95 97 93 91 93 92 91 89 82 81 84 77 85 84 90 93 88 85 86 87 87 85 89 89 95 95 96 92 93 91
90 92 93 95 96 92 92 96 97 95 94 99 98 95 96 95 94 92 93 92 91 89 88 84 86 85 92 92 86 86 86 89 92 91 92 92 86 95 96 96 93 87 82
88 88 88 84 86 86 84 91 97 98 97 96 98 97 97 97 97 97 97 94 94 93 90 92 94 92 87 85 87 87 91 92 94 94 95 91 90 94 94 90 86 81 67
82 86 87 88 83 83 82 83 95 96 98 97 97 97 97 96 93 94 97 95 97 96 94 94 94 95 91 88 87 86 90 93 98 98 93 92 91 90 84 84 80 69 64
72 77 86 86 81 80 84 86 89 90 93 95 97 97 93 97 96 95 93 94 94 95 97 96 93 93 96 94 92 89 94 94 97 93 94 89 88 83 84 80 73 71 63
63 65 72 77 80 83 88 80 83 86 89 92 95 97 99 96 96 98 98 97 97 98 98 95 98 96 93 94 94 94 92 92 94 94 93 93 91 88 81 79 82 68 56
59 60 60 67 72 76 73 71 69 73 79 85 90 92 94 95 95 94 93 94 94 93 93 95 96 97 95 93 92 89 86 85 89 90 90 87 91 84 81 77 69 62 59
61 60 59 59 57 62 66 72 72 72 69 73 80 85 91 92 90 88 90 93 92 90 93 92 89 88 86 84 80 78 80 79 79 82 81 83 81 83 77 76 72 66 59
62 62 61 59 59 56 57 60 62 66 69 72 73 76 82 91 84 82 90 88 86 85 83 81 80 77 76 76 76 77 76 77 77 80 82 80 80 76 82 77 72 63 55
62 62 62 60 59 55 56 57 57 58 61 63 69 76 79 81 82 83 84 88 90 88 87 85 83 81 80 77 75 75 76 80 79 79 78 81 91 90 80 74 67 59 55
56 59 59 59 60 59 57 56 56 57 58 59 60 62 64 67 72 77 81 83 84 88 87 83 78 74 73 72 74 75 78 78 78 82 85 91 87 76 71 70 64 58 54
55 54 54 55 55 54 54 57 58 58 58 57 57 59 62 64 65 66 67 65 67 70 71 72 73 73 73 73 75 74 77 75 77 81 82 79 73 70 66 68 65 60 57
52 53 53 53 53 52 52 52 52 54 56 57 58 59 59 59 60 61 63 65 67 68 68 70 73 75 76 79 81 82 81 79 80 81 81 77 74 74 72 72 69 64 60
43 49 50 52 53 54 52 51 53 53 53 53 53 54 55 58 60 61 62 63 65 67 69 71 73 75 76 77 77 77 76 78 80 82 80 78 78 77 73 68 69 66 64
31 39 49 49 50 52 53 54 54 54 55 56 57 57 56 57 58 58 59 60 61 63 66 70 74 78 79 80 80 80 82 82 81 80 82 82 80 79 76 73 74 72 69
32 32 38 47 49 50 51 50 48 50 53 56 60 62 61 63 65 67 66 65 64 63 65 68 74 78 78 83 87 87 86 86 88 86 84 84 84 84 81 86 85 81 76
30 33 35 39 44 48 50 50 49 47 48 51 55 62 65 66 69 72 72 74 76 77 72 71 74 78 82 88 91 91 90 89 89 90 88 86 84 85 85 86 87 86 86
29 32 34 39 40 40 45 47 51 52 51 52 56 60 63 65 70 74 78 82 84 83 83 85 83 84 86 91 92 93 93 92 92 90 87 85 85 88 89 95 96 92 89

GFSMW_prec_cthk_123.txt.gz
RH
90 80 71 58 63 67 64 75 72 75 99 98 84 86 87 87 82 71 74 78 85 61 61 47 46 44 42 33 32 34 35 40 44 47 47 48 53 62 64 68 68 66 70
87 88 79 85 78 58 63 71 85 88 99 87 91 89 88 93 88 83 74 84 84 63 57 49 49 46 42 38 37 36 38 44 47 48 51 55 60 66 69 75 71 74 78
88 95 90 86 94 65 78 85 88 91 98 99 93 95 95 92 91 86 88 86 86 67 60 51 49 45 42 39 38 39 42 47 49 51 53 59 62 68 80 74 74 80 82
95 97 96 89 85 73 78 79 83 90 92 98 98 97 93 93 88 86 91 94 88 75 68 56 51 49 44 42 42 44 49 51 50 56 58 64 65 64 80 76 79 83 85
95 98 96 89 82 84 86 79 78 85 94 95 93 96 94 93 99 98 97 97 89 84 73 65 57 52 47 45 47 52 54 53 55 59 65 71 73 81 83 85 87 88 86
96 96 99 99 90 87 81 66 93 87 88 89 95 92 88 90 88 94 87 93 97 92 76 71 60 55 50 52 55 57 56 56 59 66 79 80 87 83 85 81 82 85 87
98 99 99 95 94 96 91 98 89 86 95 89 90 88 87 89 85 88 94 96 95 97 85 69 59 54 54 58 60 63 72 80 81 87 89 92 86 84 83 78 78 83 88
99 98 98 98 95 95 92 89 90 95 86 83 88 91 87 92 88 86 90 94 90 94 92 67 56 54 58 61 70 75 78 86 86 89 87 81 79 80 84 83 84 88 90
99 97 98 98 98 95 89 88 85 88 94 91 90 96 93 92 91 92 93 91 86 86 90 68 57 62 67 68 70 75 82 89 84 88 81 76 82 83 85 89 91 97 94
96 95 94 96 95 92 90 91 93 95 93 98 99 98 99 97 97 95 96 94 92 89 80 69 66 69 76 80 84 90 84 85 91 89 83 83 86 87 91 91 94 97 95
97 96 92 89 89 87 87 93 92 97 97 97 97 97 99 99 97 97 97 96 97 93 87 89 89 88 85 87 92 92 92 90 89 91 90 89 91 93 94 91 90 96 97
90 96 96 89 87 87 85 88 90 95 96 94 96 96 96 99 98 97 96 97 96 96 95 92 91 90 92 95 97 94 93 92 90 91 91 92 93 99 98 98 93 97 95
76 80 83 87 86 82 79 85 87 87 90 92 92 93 95 98 99 99 98 96 96 95 96 98 98 95 93 97 93 96 97 94 94 94 92 94 94 95 97 96 97 97 90
60 68 71 76 78 82 79 78 80 80 83 87 89 94 95 95 95 96 93 95 98 98 98 97 95 96 96 92 94 96 98 97 96 96 96 98 94 94 95 98 97 92 85
54 56 61 61 64 69 73 69 69 68 76 79 83 87 86 88 90 91 93 95 97 96 98 97 96 97 97 97 98 94 97 97 98 95 98 98 96 99 98 98 94 90 82
56 54 54 56 56 56 61 65 68 68 67 74 76 78 82 84 85 86 91 94 95 94 95 96 97 96 94 96 97 94 93 94 96 97 93 94 95 96 97 94 87 82 81
56 56 54 52 52 53 54 54 54 57 62 67 69 73 76 78 78 83 81 87 91 90 92 93 95 96 96 96 95 96 94 92 91 89 87 87 89 91 89 90 82 82 77
51 54 55 54 54 52 52 52 51 51 52 55 60 66 71 74 81 77 74 75 79 86 87 88 92 89 89 89 88 85 85 85 87 87 86 83 87 93 90 84 84 87 86
50 49 49 51 52 52 51 51 49 49 49 49 50 53 56 61 64 69 73 74 77 78 81 83 85 90 92 90 86 87 84 83 84 86 87 88 87 83 84 91 91 85 81
44 46 46 45 46 47 48 46 45 46 46 46 47 48 50 52 55 56 58 61 64 73 78 77 82 82 83 85 85 85 86 86 89 85 86 91 95 95 95 92 84 81 76
38 42 43 43 43 44 42 42 42 41 42 43 44 46 47 47 48 50 53 56 59 62 64 65 69 75 80 82 83 86 88 88 89 91 92 90 91 94 90 85 81 75 74
29 33 42 41 42 42 42 41 41 40 39 40 41 42 43 44 45 49 50 54 56 59 62 65 69 72 76 81 84 86 87 90 91 89 92 93 91 89 90 85 83 80 78
28 28 31 42 44 42 41 41 40 40 39 41 41 42 43 44 46 48 50 51 52 54 57 60 64 70 76 80 85 87 89 90 91 93 93 93 93 91 89 88 86 83 83
26 28 29 32 41 42 42 42 41 40 39 39 40 41 41 42 44 46 50 54 56 58 61 64 65 66 68 71 76 83 87 90 93 96 96 95 94 95 92 90 86 87 85
25 27 30 31 36 38 39 43 44 44 43 42 42 43 44 45 47 49 51 54 57 61 65 68 72 75 73 77 80 79 83 91 96 97 95 96 94 95 93 93 91 88 86
27 26 30 32 34 39 38 39 39 42 43 44 46 46 46 47 50 52 53 58 61 65 67 72 76 78 80 87 88 90 90 93 97 95 93 94 96 95 94 93 88 90 92

GFSMW_prec_cthk_126.txt.gz
RH
59 49 48 51 48 43 30 30 47 51 63 72 75 78 92 88 85 84 73 73 62 75 82 60 55 54 49 45 44 41 36 36 35 38 41 43 43 45 47 53 59 59 62
81 72 67 68 65 51 35 39 54 51 63 83 85 96 94 82 93 89 85 69 61 74 79 66 59 53 54 47 47 46 40 39 39 42 48 49 48 50 53 59 63 65 73
88 79 76 78 76 68 51 53 60 67 84 91 88 95 91 85 95 90 78 70 73 81 84 77 64 59 62 53 48 46 42 41 44 49 51 53 50 54 57 61 65 68 76
87 79 86 81 85 84 74 67 66 80 77 73 85 90 85 90 90 86 87 78 83 90 93 88 64 64 66 55 52 46 46 45 47 54 54 55 55 60 63 64 66 71 75
92 90 82 84 97 95 96 99 75 81 73 82 83 98 98 99 95 93 92 94 95 92 92 88 68 67 62 59 56 52 50 48 52 56 57 60 63 64 64 66 71 73 77
99 94 96 94 93 96 99 97 77 78 80 81 86 86 99 95 96 97 97 97 97 96 95 85 69 70 67 61 59 56 54 52 58 62 64 67 68 70 75 75 77 78 81
99 96 98 98 99 99 97 91 86 88 82 76 83 86 92 99 98 97 95 95 98 96 93 79 85 76 67 66 65 59 57 56 62 66 70 74 83 91 94 90 86 84 81
99 98 97 98 97 94 96 90 81 79 89 90 83 91 95 96 94 98 99 98 93 94 92 92 90 83 75 69 67 62 62 63 66 72 77 88 89 94 89 87 88 86 85
99 99 98 98 98 99 98 94 91 85 78 79 93 93 95 93 95 98 98 93 91 94 96 95 90 85 84 79 69 69 72 71 76 87 90 92 92 88 89 86 88 88 87
97 97 98 96 96 94 89 85 83 84 84 91 90 93 92 92 96 97 97 92 92 97 97 99 95 87 83 77 75 76 76 79 86 89 88 88 89 91 88 91 89 89 89
96 96 96 96 96 96 95 97 96 93 89 89 93 92 91 97 97 99 98 94 99 99 96 95 95 90 88 83 84 82 88 86 91 92 92 94 93 91 87 91 92 94 95
92 95 94 92 90 93 94 92 91 89 92 94 95 93 97 99 99 99 98 96 98 98 98 96 97 94 93 84 84 84 92 94 94 93 91 90 91 91 91 95 93 95 92
82 85 86 89 89 87 86 84 83 89 89 91 92 96 98 98 97 97 98 98 98 98 98 95 93 93 91 89 92 93 93 93 94 92 96 93 94 96 96 95 92 99 97
71 73 75 74 79 80 74 74 78 81 80 85 90 89 94 96 97 98 95 94 94 94 93 95 94 96 97 96 94 93 93 92 96 97 98 97 97 96 97 96 96 98 98
60 61 65 66 69 68 71 71 70 73 75 76 75 79 87 92 91 93 92 91 95 94 94 95 98 95 95 96 98 97 98 96 98 98 96 95 95 96 97 98 97 98 98
53 55 56 57 57 57 57 59 62 65 68 72 74 73 73 75 80 82 80 85 88 92 92 93 96 99 97 94 96 96 97 98 97 97 92 97 95 95 99 98 99 99 95
51 53 52 52 52 53 51 50 50 52 56 65 67 68 69 72 71 67 71 75 77 80 86 90 91 92 94 96 97 96 97 98 98 94 95 96 97 98 99 98 97 97 93
46 48 49 51 49 50 50 49 48 47 48 47 49 52 57 63 65 67 68 70 71 72 76 81 85 89 91 93 95 96 97 98 97 96 97 98 98 98 96 95 92 93 92
42 44 44 44 46 47 47 48 48 50 48 46 44 43 44 45 48 51 53 59 64 67 68 68 69 73 84 92 93 92 90 90 94 94 95 97 94 95 94 93 98 96 93
37 39 42 43 42 42 42 42 41 39 40 41 41 42 44 45 45 45 45 45 46 47 49 57 65 72 75 77 84 85 85 87 87 86 89 94 97 96 94 94 95 95 97
25 31 37 39 38 37 37 37 37 36 35 35 36 36 37 37 39 40 42 43 45 45 46 48 47 50 55 61 69 74 79 83 83 87 89 91 94 94 96 95 98 97 95
24 23 25 32 38 38 38 37 36 35 34 34 34 35 35 36 37 37 38 38 39 40 41 43 47 49 54 59 64 70 74 80 84 87 89 90 89 91 94 96 97 97 91
23 24 25 26 32 38 40 38 36 36 35 34 33 33 33 33 33 35 36 38 38 40 42 44 45 47 53 58 61 67 75 82 86 90 94 94 94 94 92 90 90 91 93
23 24 24 25 28 33 36 39 38 36 36 36 35 33 33 33 34 37 38 39 40 40 41 44 47 51 54 58 63 68 73 80 86 91 94 91 94 97 97 96 95 97 97
21 22 23 25 28 31 35 36 35 34 34 36 38 37 35 36 37 39 38 39 41 41 41 45 48 51 56 63 66 71 78 81 89 96 94 93 92 92 97 97 97 97 98
24 23 22 23 27 30 34 37 38 36 34 35 36 37 38 37 38 39 39 43 43 45 47 48 51 54 57 62 69 73 80 88 95 96 95 96 97 98 99 98 98 97 96

GFSMW_prec_cthk_129.txt.gz
RH
64 65 59 50 47 39 37 32 29 23 26 38 55 60 76 80 85 91 85 83 79 71 67 65 76 61 50 48 44 47 46 47 43 38 36 35 38 41 42 46 50 53 54
69 67 67 65 48 44 41 40 34 28 21 32 43 58 61 74 76 83 86 81 83 76 67 65 77 75 53 49 53 50 48 48 46 42 41 42 42 43 46 49 53 57 59
77 78 74 74 68 55 47 46 44 36 27 34 47 62 63 82 86 87 87 87 86 78 70 64 71 80 58 52 56 54 51 49 47 45 43 47 47 48 51 54 59 62 64
87 84 76 74 75 69 64 65 54 41 42 43 57 65 62 69 72 82 87 91 86 86 79 69 76 88 62 61 60 53 55 53 51 48 46 49 51 54 55 58 62 66 64
96 90 82 80 80 79 79 69 63 64 68 67 60 70 68 71 73 94 93 97 91 89 87 78 76 91 68 62 70 60 60 61 55 50 50 53 56 59 59 62 66 68 69
92 87 85 80 85 86 85 80 78 79 82 78 71 76 76 79 95 95 92 89 95 92 83 79 90 92 84 71 71 69 66 63 61 56 55 56 59 62 65 67 69 70 76
98 92 87 87 92 98 88 97 80 99 90 80 72 76 84 87 86 91 88 90 96 95 86 85 92 98 90 82 73 70 65 68 65 62 63 64 64 66 69 84 86 86 88
99 98 97 98 98 99 99 98 97 89 86 72 81 80 86 83 84 91 98 99 98 97 92 96 99 97 94 88 78 77 74 70 70 67 68 69 72 76 82 90 93 93 90
99 98 97 99 95 95 97 98 98 96 82 72 79 80 76 79 90 94 97 96 98 96 96 99 94 97 94 90 81 76 84 76 79 72 73 77 82 82 86 89 89 95 92
97 98 98 99 98 99 99 98 98 97 81 71 77 78 80 84 90 91 94 97 97 96 98 94 97 96 97 93 86 89 86 81 78 75 76 83 84 85 89 90 90 91 92
95 95 95 96 98 99 99 96 95 91 87 88 83 85 84 86 89 89 93 95 97 97 98 97 98 97 92 91 94 93 89 89 82 81 88 89 87 94 93 95 95 96 96
91 91 93 93 92 94 95 96 96 95 90 85 86 89 87 88 93 92 95 99 98 98 98 98 95 95 96 96 94 92 89 90 85 86 91 87 97 94 93 98 95 95 95
82 78 80 86 88 87 87 90 91 92 95 93 95 95 92 93 98 98 99 99 98 98 98 98 97 94 94 93 94 98 96 94 92 87 92 95 93 96 96 96 96 96 97
74 73 71 72 75 78 80 81 89 92 94 96 94 95 98 96 98 96 96 96 96 97 98 98 97 96 97 97 93 93 94 93 94 95 94 90 96 98 96 96 97 98 98
61 65 65 64 65 67 71 76 84 84 82 83 88 95 93 92 94 95 96 96 96 97 96 95 95 94 94 95 96 98 98 98 98 96 96 97 98 97 97 97 96 98 98
54 57 57 58 58 59 61 62 67 71 73 74 75 75 75 76 79 81 83 88 87 91 90 88 91 94 95 96 97 95 96 96 96 97 97 98 98 97 98 98 98 98 97
46 48 48 49 51 52 53 53 53 53 55 62 66 67 66 66 66 68 69 71 69 72 74 75 80 82 87 88 93 92 91 92 97 97 98 99 98 98 98 98 99 98 96
41 43 45 47 46 47 48 48 47 47 46 46 46 47 49 52 56 59 60 60 60 61 60 60 63 66 70 76 79 83 87 90 91 91 93 95 95 97 98 98 99 98 98
36 38 39 40 41 42 43 43 43 43 42 42 42 41 41 40 40 40 40 41 43 46 50 53 55 56 60 61 65 64 68 70 75 81 87 90 92 96 96 96 99 98 98
31 32 34 36 37 38 37 36 36 36 35 34 34 34 33 32 32 32 32 33 34 34 34 35 35 37 40 45 50 56 56 59 62 66 67 77 85 85 86 88 92 97 97
20 22 26 32 35 36 35 35 33 32 31 31 31 30 29 29 28 28 28 29 30 32 31 31 33 33 34 36 38 46 48 48 51 56 61 66 70 80 87 89 91 94 97
19 19 20 22 27 34 35 34 34 33 32 30 31 30 29 28 28 29 28 28 29 29 30 32 33 34 34 34 38 41 45 50 53 59 66 69 73 75 83 86 92 95 96
22 22 21 21 22 26 31 35 34 34 33 32 31 30 30 29 29 30 30 30 30 30 30 30 31 32 34 37 39 40 43 46 49 53 62 70 74 79 79 89 97 95 95
22 22 22 22 22 22 25 28 31 33 34 33 33 34 33 32 32 32 31 31 31 32 33 33 31 31 33 36 38 40 42 45 48 54 60 65 73 78 84 90 93 90 97
22 22 22 22 24 25 27 30 31 32 30 29 31 31 32 32 32 32 33 34 35 35 36 36 36 36 35 37 41 43 44 49 53 57 61 64 73 78 83 87 95 92 92
22 22 22 22 24 27 29 32 34 35 34 34 35 35 36 36 37 38 38 40 39 39 40 40 40 39 39 39 41 44 48 54 60 64 64 69 75 79 88 94 93 98 96

GFSMW_prec_cthk_132.txt.gz
RH
65 63 56 51 49 47 43 33 28 24 25 28 28 37 47 58 75 83 77 79 80 82 84 83 70 61 68 52 49 47 46 48 51 50 49 44 39 35 35 37 41 45 49
72 69 65 61 55 52 45 43 34 29 27 24 28 34 43 64 71 68 81 75 81 86 86 87 77 65 74 64 50 48 49 49 49 51 51 49 45 40 39 40 43 47 52
74 75 74 70 71 70 67 56 44 36 32 26 26 35 42 61 71 74 73 77 87 87 89 87 86 77 73 80 63 52 50 51 51 51 53 51 47 46 44 42 46 49 53
83 84 82 81 72 73 76 68 52 44 38 36 32 30 42 63 79 68 75 81 83 90 94 87 88 81 71 81 83 56 51 54 51 54 54 52 52 52 54 51 52 53 58
86 89 86 78 72 73 77 78 62 52 48 45 39 28 39 54 73 72 70 73 83 87 87 91 87 86 74 79 88 68 60 56 61 56 54 54 53 53 55 58 58 59 61
90 88 83 73 72 76 74 74 67 64 64 56 47 33 40 58 67 76 78 76 81 87 92 94 86 88 76 76 88 85 69 59 64 60 60 58 59 57 58 65 67 67 68
91 88 82 83 80 82 76 74 73 72 70 59 54 49 53 65 68 65 72 79 88 89 95 94 95 91 89 78 85 97 80 67 66 68 67 65 65 66 62 66 71 72 74
93 94 94 91 90 88 86 87 92 91 78 90 79 77 74 82 80 76 73 80 77 73 84 94 96 97 96 91 91 98 87 80 78 76 74 74 70 67 69 76 77 80 84
96 98 98 99 95 90 94 96 98 92 94 94 96 89 87 78 79 74 69 65 69 83 94 95 97 97 96 96 97 97 92 83 86 84 83 78 78 77 75 78 81 86 92
95 96 97 98 98 96 97 97 96 97 96 96 95 92 89 82 82 77 70 80 84 91 97 99 98 98 99 97 96 98 95 92 92 92 87 80 83 84 79 78 85 92 93
90 93 94 97 98 99 98 99 95 93 93 91 92 88 80 76 83 82 87 87 94 96 97 96 99 98 97 98 94 95 94 97 96 90 86 85 85 88 80 86 92 93 97
84 90 91 95 96 99 98 99 98 98 98 95 92 89 86 86 86 94 90 93 97 96 95 99 98 98 98 93 97 98 98 98 97 94 89 89 96 89 89 91 92 91 97
78 79 81 83 88 95 98 99 99 99 98 96 92 93 92 95 93 92 93 94 94 97 98 99 98 98 98 98 98 97 96 96 93 90 94 95 94 91 91 93 94 96 97
72 72 71 74 79 83 88 93 97 98 99 99 98 97 94 91 91 94 93 95 99 98 99 99 97 97 96 97 98 95 94 96 96 96 94 92 93 94 96 94 95 95 97
63 67 67 66 65 70 77 81 83 87 92 98 99 97 97 97 96 96 97 97 97 95 97 95 94 94 97 98 96 92 91 93 94 95 95 94 95 95 95 93 94 98 98
53 58 59 58 60 60 59 61 67 69 71 74 78 84 90 88 90 96 95 94 92 93 94 92 90 90 90 86 86 85 87 88 91 94 94 95 96 97 97 97 98 97 98
42 46 50 52 52 52 53 54 53 53 55 61 64 65 66 71 72 68 69 73 71 71 73 76 72 73 76 76 76 82 83 84 84 84 85 88 92 95 97 98 98 98 98
36 37 39 44 45 45 44 44 45 45 47 47 47 48 48 50 53 58 59 58 57 58 58 56 55 56 56 57 64 68 67 68 71 71 79 83 87 91 87 90 91 94 91
31 32 33 34 35 38 38 38 38 38 40 42 42 41 39 38 38 38 37 38 38 38 41 45 45 45 44 46 47 48 49 47 46 46 47 49 53 58 62 70 74 80 89
24 28 30 31 33 33 33 32 32 33 34 33 32 31 30 31 30 30 29 30 30 31 31 30 29 30 30 32 32 35 37 39 42 46 46 45 47 46 50 51 50 56 58
21 21 21 26 31 33 33 33 32 30 30 29 29 27 27 27 27 27 28 27 28 28 29 27 28 29 31 30 30 31 33 35 36 39 42 44 46 48 52 53 53 56 61
20 21 21 21 24 30 33 34 34 32 31 30 30 29 29 27 26 27 28 28 27 26 26 27 28 28 28 29 29 30 32 34 34 36 39 42 47 50 53 57 60 63 68
18 20 21 22 22 24 29 32 34 33 32 31 31 30 30 30 29 29 29 28 28 29 30 30 29 30 31 31 31 32 33 35 36 37 38 39 41 47 50 56 67 71 72
18 19 20 21 21 23 25 30 32 34 35 34 33 32 31 30 30 30 30 30 31 30 31 31 31 31 31 33 34 33 33 34 35 37 39 41 43 46 50 56 66 75 76
19 21 21 20 20 22 24 27 32 34 35 34 33 33 32 32 32 33 34 35 36 35 34 33 32 32 31 32 31 32 33 34 35 38 39 40 42 48 54 59 65 70 79
20 21 22 22 22 22 24 26 30 34 36 36 36 37 38 37 37 38 38 36 36 36 35 32 31 31 30 30 30 30 32 33 35 36 36 36 40 45 53 61 68 75 83

GFSMW_prec_cthk_135.txt.gz
RH
47 49 52 59 55 49 44 43 40 34 29 26 23 23 27 31 41 56 68 79 80 79 80 79 79 81 80 69 71 60 49 48 48 50 47 48 50 47 43 38 36 36 38
55 61 64 63 60 55 52 48 43 41 36 29 25 23 22 28 39 52 62 71 81 82 82 80 82 82 86 76 67 69 55 48 49 52 50 51 50 48 46 42 40 41 42
71 72 70 69 70 65 66 61 54 47 43 36 33 28 25 27 34 47 64 82 84 82 84 81 80 83 89 87 74 67 67 54 51 53 51 52 52 52 48 45 43 44 48
84 82 81 77 76 72 70 71 71 66 58 46 38 32 28 26 31 40 59 72 78 79 78 82 86 84 89 89 82 72 75 70 57 55 54 54 55 56 56 52 50 50 52
91 87 83 81 72 69 68 68 69 75 73 63 49 41 34 28 25 38 56 68 72 81 84 83 88 92 92 84 87 84 76 84 72 56 58 54 56 58 60 59 58 58 58
93 92 87 79 74 70 69 76 76 82 79 69 57 47 47 36 33 30 55 74 76 80 84 89 91 88 88 89 87 91 82 82 90 77 66 56 59 59 62 60 62 67 68
91 92 85 82 81 78 76 81 76 75 74 62 53 52 50 49 38 33 62 70 81 80 77 79 82 95 89 97 90 94 86 86 87 94 77 66 64 64 69 66 65 68 72
92 91 89 86 84 82 79 81 87 79 73 68 62 60 54 50 46 47 56 86 82 83 80 79 87 92 92 91 91 93 86 91 89 87 88 78 71 70 71 71 71 75 72
88 92 92 92 89 87 90 85 89 91 89 86 80 73 64 56 47 46 54 68 81 85 74 80 76 85 84 89 96 98 94 96 94 93 88 89 83 81 81 80 79 81 81
84 85 94 92 91 91 96 95 92 93 92 91 72 79 80 68 60 74 73 66 77 79 84 75 77 77 90 91 90 96 98 96 93 96 94 93 91 88 92 91 92 88 85
80 82 84 92 95 96 97 96 93 92 92 86 84 95 96 97 88 88 81 73 73 67 71 71 77 92 85 81 97 98 99 99 97 97 96 94 93 92 94 95 94 94 90
75 78 84 91 93 95 97 97 99 96 97 91 92 98 96 96 97 93 88 79 77 77 76 83 87 86 87 89 95 99 99 97 97 95 98 94 94 92 94 95 98 96 91
69 69 73 80 87 92 95 97 99 95 97 96 93 90 93 89 90 86 88 87 87 85 84 84 95 99 95 97 98 95 95 96 96 96 97 98 98 98 98 97 96 95 93
64 64 65 69 78 81 88 93 96 99 98 96 98 98 96 97 94 92 93 93 96 98 95 96 96 98 97 99 98 98 98 98 98 98 97 97 97 97 97 96 95 95 94
54 59 61 62 63 68 74 76 83 92 96 96 95 91 99 98 99 98 99 98 99 98 97 98 98 98 97 97 97 97 98 98 94 92 90 93 94 94 96 95 94 94 94
42 47 52 56 58 59 59 61 68 72 79 85 90 95 96 98 99 99 99 99 99 98 98 98 97 96 96 97 96 94 93 90 84 84 85 87 88 88 89 89 93 97 98
36 36 39 43 45 48 51 53 54 56 58 63 69 76 83 90 90 96 96 95 95 95 93 92 90 88 85 81 80 81 86 83 79 78 79 77 79 82 85 88 91 94 96
29 32 32 34 37 38 40 41 42 46 49 51 52 53 53 58 66 70 69 67 68 67 65 63 62 60 59 60 62 63 61 61 60 56 56 53 53 51 54 57 55 58 64
27 28 28 28 29 30 33 35 36 36 37 41 42 43 41 41 41 40 40 42 43 43 44 49 49 50 50 48 46 43 42 43 43 42 43 42 43 44 44 43 42 43 42
21 22 27 28 28 29 29 29 28 29 31 32 33 33 32 31 30 30 31 30 30 29 30 30 30 30 30 28 28 29 30 31 33 33 34 37 39 40 41 42 44 43 46
20 20 19 20 25 28 30 30 29 27 27 26 26 25 23 23 23 23 23 24 25 26 27 27 27 27 28 28 28 28 29 28 29 31 33 34 35 37 40 44 45 47 50
19 18 19 18 18 21 27 30 30 30 28 27 26 26 25 25 24 24 24 24 24 25 25 25 25 25 26 27 28 29 29 29 29 31 31 34 34 36 37 40 44 46 52
18 18 18 19 18 19 21 25 29 32 31 30 30 30 30 29 28 27 27 26 26 26 25 26 27 28 28 29 28 28 29 30 31 31 31 31 32 33 35 38 42 44 48
19 19 20 21 22 20 19 22 25 29 32 33 34 33 31 30 28 27 27 27 27 28 29 29 29 29 28 28 28 28 28 28 27 27 26 27 29 30 34 36 38 43 46
19 19 19 20 23 25 23 21 22 26 30 32 33 33 31 30 30 29 29 30 31 31 30 29 27 25 24 24 24 24 24 25 25 25 26 26 28 28 28 32 35 36 41
23 21 20 20 21 24 25 24 24 26 29 30 32 32 32 33 34 34 34 34 34 31 28 27 25 26 27 27 28 29 30 30 30 29 28 29 29 30 29 28 30 36 39

GFSMW_prec_cthk_141.txt.gz
RH
32 36 37 40 40 40 40 40 39 36 36 35 33 28 26 22 18 19 19 29 46 65 69 66 74 79 77 71 76 79 76 68 61 58 55 56 54 52 49 46 46 46 42
39 41 43 48 48 44 44 46 47 43 41 39 40 37 32 28 22 22 22 20 33 54 70 73 71 76 80 78 78 79 78 74 65 61 60 58 56 56 53 49 44 42 43
45 49 53 55 54 54 54 52 54 53 51 50 49 47 43 37 30 24 25 24 28 38 60 72 74 72 75 80 81 83 83 78 72 64 61 63 60 58 54 51 47 46 45
55 57 60 63 65 63 65 68 64 60 59 58 56 50 47 41 34 28 27 27 29 35 50 64 74 78 74 77 85 86 85 81 77 75 69 62 61 62 58 55 55 51 49
69 75 77 77 78 78 74 72 65 64 66 64 66 62 57 49 43 36 31 31 30 33 41 62 72 74 79 77 80 88 88 82 78 76 77 72 65 67 65 61 58 59 59
82 86 87 91 88 80 78 73 71 67 63 67 65 66 67 65 59 48 39 33 30 35 40 48 72 75 75 80 84 84 89 86 84 82 81 77 76 78 71 72 72 66 66
82 87 91 91 86 82 78 78 72 70 70 71 69 65 65 68 68 63 50 41 36 30 34 44 59 76 80 77 84 84 85 94 91 86 86 85 82 80 77 77 84 81 76
79 83 86 88 86 83 81 78 77 72 71 73 76 71 69 71 73 70 64 53 44 38 29 38 55 69 84 88 87 82 91 99 98 92 90 88 88 93 88 86 89 89 86
75 79 81 87 88 85 85 82 81 81 82 81 77 77 76 76 78 79 75 61 53 46 38 34 39 69 84 98 98 94 96 95 99 93 97 90 93 91 91 95 93 88 90
69 76 81 85 85 87 89 85 85 85 83 83 80 83 82 83 76 80 78 68 58 50 45 44 36 47 80 91 91 96 88 89 92 90 90 92 97 93 92 91 92 90 92
62 68 75 75 81 87 89 87 85 85 83 85 85 89 86 93 93 81 73 64 55 54 52 49 56 45 78 95 96 98 99 99 97 92 94 98 94 88 90 94 98 96 94
56 61 65 69 71 75 79 88 88 87 84 86 87 86 89 93 94 90 72 59 55 55 53 58 63 68 62 68 83 90 89 85 94 97 93 93 88 88 93 96 97 93 97
45 54 60 59 61 65 71 75 76 84 87 90 86 87 91 88 88 85 82 78 73 61 56 66 85 77 72 71 82 96 96 94 92 93 88 92 92 91 89 93 97 96 97
36 44 53 54 53 53 56 64 70 71 81 88 90 92 92 89 91 94 91 85 79 70 68 84 86 86 80 73 75 82 93 96 96 97 92 96 94 93 93 96 99 99 97
28 36 40 43 46 46 47 47 53 60 64 81 88 91 97 96 98 97 97 98 97 98 98 93 88 84 86 90 86 86 88 90 95 98 95 95 92 94 94 95 97 98 97
25 29 32 33 36 38 38 38 40 43 48 57 73 90 93 96 95 96 94 94 95 98 95 94 91 91 90 90 92 90 90 92 90 93 92 97 96 97 98 96 95 95 89
20 22 27 29 31 31 33 33 32 33 35 42 50 67 89 94 94 96 96 95 98 99 96 98 99 99 99 97 94 94 92 86 93 98 94 98 98 98 96 93 91 82 78
19 21 22 24 26 28 27 28 30 30 30 31 41 46 52 70 85 84 92 94 97 97 98 96 95 96 95 97 97 96 98 98 97 94 93 93 89 80 75 72 63 53 48
16 18 20 21 23 25 26 27 27 27 28 28 31 42 44 47 49 57 63 65 73 76 80 81 85 85 83 83 84 83 84 81 78 76 71 59 51 46 42 39 39 39 39
14 15 17 18 19 21 25 26 27 28 27 26 27 35 37 36 36 36 38 40 41 41 43 46 49 49 51 54 54 56 53 49 44 34 30 29 30 29 29 29 29 30 31
14 16 16 16 15 16 18 21 25 27 27 27 27 29 33 30 28 28 28 29 27 27 28 29 29 28 28 29 27 26 25 24 25 25 25 26 26 26 27 26 26 27 28
18 15 15 15 15 15 16 16 17 21 26 27 27 27 26 26 25 25 26 26 27 25 25 26 26 27 26 25 24 24 24 25 25 25 25 26 27 26 25 25 26 27 28
29 25 19 15 16 16 17 17 17 19 21 23 27 28 28 28 28 28 28 27 27 27 27 27 26 25 24 24 24 23 24 24 23 22 21 20 20 20 21 22 23 25 27
29 31 31 29 22 19 18 18 19 20 22 23 24 26 28 29 30 29 28 28 27 27 25 25 25 25 24 24 24 24 23 23 22 22 21 21 21 21 22 24 25 27 26
25 27 31 33 35 36 27 24 23 21 22 24 26 28 29 30 30 29 28 29 29 28 28 28 27 25 24 24 23 23 22 22 21 21 21 20 20 20 21 23 25 26 27
21 24 27 29 30 33 35 29 28 27 29 28 26 27 29 31 32 33 32 32 32 31 31 30 28 27 26 26 25 24 24 23 22 21 21 20 21 21 22 24 26 27 28

GFSMW_prec_cthk_144.txt.gz
RH
33 32 31 32 33 33 35 35 32 31 33 32 30 29 25 25 21 19 17 14 15 20 38 60 67 69 74 80 80 78 82 83 75 65 60 57 56 51 52 54 51 46 42
31 31 32 35 37 39 39 39 38 36 36 38 37 36 32 29 27 23 22 18 16 18 28 54 65 72 74 77 87 84 78 80 80 74 69 66 64 54 55 56 54 52 48
37 39 45 46 45 45 45 46 44 42 41 41 43 41 42 39 33 29 27 23 19 19 22 38 67 66 77 74 77 86 84 78 80 79 77 74 66 61 55 54 54 55 54
46 54 58 55 54 53 51 50 52 51 51 55 56 57 53 49 41 36 35 32 25 23 24 26 47 67 75 77 75 76 86 88 86 85 82 78 70 64 61 60 58 57 57
60 61 65 65 66 68 67 65 64 64 65 64 61 60 59 55 51 51 46 40 31 27 29 31 35 58 72 84 83 77 78 80 86 88 87 85 80 75 66 62 62 61 61
68 73 77 82 83 80 77 76 73 70 67 65 63 65 62 59 60 56 51 44 38 33 31 35 40 49 58 75 77 81 75 73 73 84 91 92 81 78 75 70 67 68 69
76 76 80 84 83 78 82 76 75 72 69 66 67 67 67 66 64 65 64 58 46 38 32 32 32 37 50 96 79 85 94 85 84 82 93 92 83 83 83 78 75 71 70
72 75 78 78 78 79 80 75 75 76 76 74 73 72 74 73 68 67 67 66 63 50 39 34 31 34 40 52 91 73 80 83 95 88 94 87 90 90 90 88 85 78 78
65 70 73 75 76 77 78 79 77 76 76 77 77 79 77 77 73 70 70 72 70 67 56 46 38 32 34 43 59 92 80 81 84 96 97 88 96 96 97 91 92 87 83
53 61 66 71 70 71 73 78 77 81 77 77 76 79 84 84 82 75 80 83 79 75 73 59 48 39 32 32 46 64 98 85 87 92 86 95 95 87 98 97 96 92 90
42 53 58 67 65 63 68 71 73 80 81 83 84 83 82 85 85 84 83 86 87 83 79 70 57 50 43 31 35 55 72 90 98 94 96 96 95 89 98 98 95 93 93
35 43 51 55 58 57 60 65 69 69 80 85 84 83 82 85 90 91 94 88 84 86 72 65 61 51 46 41 32 41 60 75 86 93 96 92 95 97 96 98 95 94 90
32 36 43 49 50 51 50 54 60 64 69 85 88 88 88 87 90 91 92 95 81 74 78 71 64 56 53 53 47 47 59 82 93 90 99 95 99 98 98 94 93 98 99
29 30 33 41 43 44 45 45 45 51 58 64 83 88 88 88 93 95 91 95 92 80 68 63 57 54 60 72 82 70 70 88 85 95 95 97 98 96 98 95 98 98 98
19 26 27 32 36 37 37 38 37 37 41 52 62 81 91 91 91 94 97 96 95 90 87 79 65 59 66 77 85 89 93 98 98 94 98 94 98 94 95 93 93 97 98
15 19 23 25 29 30 32 33 32 31 32 35 47 64 88 95 94 96 97 97 98 99 96 80 77 83 87 90 98 89 84 85 88 85 87 97 93 92 92 92 92 92 98
14 15 17 19 23 26 27 27 28 29 29 30 33 44 61 80 88 97 98 94 94 97 97 98 98 95 98 93 88 92 89 90 89 92 92 90 91 92 94 92 94 98 98
14 15 16 16 18 20 22 24 25 26 27 28 30 34 46 55 70 79 89 95 94 96 95 96 96 90 95 97 94 93 94 93 97 96 93 96 88 97 98 94 94 89 87
11 13 15 17 17 17 19 21 22 23 25 25 25 26 41 46 46 51 56 65 77 82 92 95 95 95 96 98 96 95 94 95 95 96 97 95 95 90 86 75 69 65 58
14 13 14 16 17 17 17 18 20 22 24 25 24 24 36 38 36 34 34 37 41 44 50 52 58 64 73 79 76 81 84 85 80 80 74 72 68 58 41 32 29 28 28
24 20 16 15 16 17 16 16 18 19 22 25 25 26 31 31 27 24 23 23 25 26 26 28 30 32 34 34 41 49 53 50 46 47 42 33 24 22 21 21 21 21 21
28 27 26 24 20 18 17 17 18 19 20 23 26 26 25 24 24 24 23 23 22 21 22 22 22 22 21 22 22 22 21 21 21 20 19 19 19 19 20 20 19 19 19
26 29 29 29 27 27 23 18 17 20 21 22 24 26 28 28 28 27 27 27 26 25 24 23 23 22 22 21 20 20 21 21 20 20 20 19 19 18 18 19 20 21 22
21 25 28 29 30 31 31 27 25 24 25 26 24 26 27 29 30 31 30 29 28 28 27 25 24 23 22 22 22 22 21 21 20 20 20 20 20 21 21 21 21 22 22
22 20 23 27 29 30 32 33 34 28 26 27 30 31 30 29 30 31 32 32 31 29 28 27 28 26 25 24 23 22 22 21 21 20 20 20 20 20 20 20 21 22 23
28 24 22 23 26 28 31 32 33 33 27 24 27 29 31 33 34 35 32 30 30 30 31 31 30 28 27 27 26 25 24 23 23 22 22 21 21 21 21 21 21 22 24

GFSMW_prec_cthk_147.txt.gz
RH
40 38 37 35 34 33 33 33 33 36 36 33 30 29 26 25 23 20 20 18 17 16 13 15 32 58 58 70 77 81 79 78 80 86 80 66 58 56 52 49 49 48 43
35 35 34 35 37 38 38 37 37 36 34 33 31 30 29 27 27 26 24 24 21 19 17 14 16 35 63 61 72 81 80 83 81 86 88 80 70 59 55 53 54 51 49
31 32 34 40 43 44 43 43 41 39 38 38 36 35 33 31 30 30 29 27 27 23 21 17 15 19 40 65 61 73 82 82 83 87 87 83 73 68 64 59 59 55 52
33 37 47 52 55 55 53 50 46 44 43 42 41 41 40 38 39 38 38 37 31 27 26 23 19 21 27 52 67 66 76 80 82 93 91 84 78 73 71 65 62 57 52
42 49 55 58 59 60 58 56 54 52 55 55 56 55 54 54 52 51 50 50 42 34 30 28 24 21 22 32 75 60 69 79 78 78 93 92 85 79 76 70 67 65 59
48 54 55 59 64 68 70 68 71 73 72 69 67 64 62 61 60 60 59 56 52 45 39 35 30 27 25 23 35 86 82 73 79 87 80 84 91 90 81 80 79 75 69
51 60 66 71 73 74 75 74 74 72 73 72 72 67 65 64 65 64 61 61 58 55 52 46 39 34 32 27 29 49 88 82 94 89 78 79 85 87 91 87 86 87 79
59 63 67 69 73 73 72 73 75 71 74 75 71 70 73 71 69 68 70 66 67 66 64 56 48 43 42 38 32 33 39 68 87 98 99 93 87 79 84 90 95 94 85
46 51 57 61 69 69 70 72 70 65 74 75 75 72 73 76 79 77 74 73 70 69 70 69 63 49 44 41 38 37 38 49 79 76 87 97 93 88 88 91 95 98 97
37 40 48 55 64 62 61 63 65 63 67 72 75 78 78 78 80 81 81 83 77 76 76 72 71 67 56 44 39 38 37 43 55 90 96 85 89 93 89 97 94 97 98
33 35 40 47 51 54 52 52 58 61 60 69 77 78 77 78 78 80 82 85 83 81 86 82 76 71 70 65 54 42 39 42 47 71 88 90 88 94 91 94 98 96 96
26 29 30 38 44 46 45 44 46 50 54 57 74 79 79 80 80 81 85 85 85 84 86 87 81 76 77 75 65 49 42 41 41 46 61 81 94 87 97 99 97 97 98
18 22 27 28 35 41 41 40 40 39 41 48 54 64 71 80 83 83 85 88 89 92 82 85 83 79 76 77 74 58 49 46 38 38 41 60 79 78 86 98 93 97 97
17 17 21 24 25 31 36 34 33 33 32 34 41 50 68 79 84 86 88 89 90 91 88 76 82 81 71 69 66 60 55 54 48 42 51 62 70 79 89 96 93 97 93
11 11 12 18 22 23 28 29 29 28 27 27 30 39 52 69 85 87 92 91 92 97 96 91 73 78 74 68 66 63 76 71 63 69 60 59 69 92 97 98 97 98 95
11 11 11 16 17 19 23 25 25 25 25 26 27 31 41 57 72 83 87 91 91 96 98 98 89 80 73 67 61 77 81 86 78 74 78 76 98 91 91 97 97 97 98
11 12 13 15 16 18 20 22 24 24 25 25 26 27 30 42 62 78 85 87 93 94 95 98 94 88 74 69 76 89 90 98 94 97 88 89 91 92 95 96 97 94 93
15 11 11 14 16 18 19 20 22 23 24 24 25 25 26 33 51 57 66 74 81 89 94 95 98 93 92 97 95 97 90 99 98 95 94 90 91 89 94 92 93 91 95
21 19 13 11 15 18 19 19 20 22 23 24 24 26 25 37 41 44 41 44 57 66 84 88 91 94 98 98 98 99 97 98 96 95 98 99 99 98 97 97 95 93 90
24 24 22 17 13 15 18 18 18 19 21 24 25 27 32 35 34 33 32 31 32 35 42 49 61 76 85 91 95 97 97 97 96 98 97 95 94 96 96 93 85 70 57
20 22 26 26 21 19 18 18 18 17 20 23 26 26 26 28 29 26 25 25 25 26 26 25 26 30 38 45 50 61 65 67 69 70 66 62 62 54 50 49 42 32 21
21 21 24 27 27 26 23 20 20 19 20 21 23 26 28 28 28 28 28 28 27 26 25 24 24 23 23 22 22 23 25 30 36 39 35 34 31 30 24 17 15 15 16
24 22 24 26 28 30 29 27 23 23 23 24 25 26 27 28 30 30 30 30 29 29 27 26 25 23 23 22 22 22 21 20 20 19 19 19 18 18 17 17 18 19 19
47 29 26 25 25 28 29 30 30 30 29 23 25 28 30 34 32 32 32 31 30 30 29 28 26 25 23 23 22 22 22 22 21 21 20 20 20 20 20 20 20 21 20
65 48 34 28 26 24 26 29 31 32 32 32 28 27 28 30 35 38 38 36 35 34 32 30 28 27 25 24 24 24 23 21 20 20 20 19 19 18 18 18 18 19 19
75 64 48 35 31 27 25 29 30 33 33 33 33 28 28 31 33 33 34 37 39 39 37 35 33 30 28 26 26 25 23 22 20 19 18 17 17 18 18 18 18 18 19